[[{"header":{"parameterUnit":"m.s-1","parameterCategory":1,"la1":30.6,"la2":28.766,"lo1":-90.7593,"lo2":-88.6598,"dy":0.0162,"dx":0.0183,"nx":116,"ny":114,"refTime":"2023-08-11T06:00:00:Z","depth":0,"parameterNumber":2,"parameterNumberName":"U-component_of_WINDS"},"data":[0.0,0.0,0.0,0.0,0.0,0.0,0.0,0.0,0.0,0.0,0.0,0.0,0.0,0.0,0.0,0.0,0.0,0.0,0.0,0.0,0.0,0.0,0.0,0.0,0.0,0.0,0.0,0.0,0.0,0.0,0.0,0.0,0.0,0.0,0.0,0.0,0.0,0.0,0.0,0.0,0.0,0.0,0.0,0.0,0.0,0.0,0.0,0.0,0.0,0.0,0.0,0.0,0.0,0.0,0.0,0.0,0.0,0.0,0.0,0.0,0.0,0.0,0.0,0.0,0.0,0.0,0.0,0.0,0.0,0.0,0.0,0.0,0.0,0.0,0.0,0.0,0.0,0.0,0.0,0.0,0.0,0.0,0.0,0.0,0.0,0.0,0.0,0.0,0.0,0.0,0.0,0.0,0.0,0.0,0.0,0.0,0.0,0.0,0.0,0.0,0.0,0.0,0.0,0.0,0.0,0.0,0.0,0.0,0.0,0.0,0.0,0.0,0.0,0.0,0.0,0.0,0.0,0.0,0.0,0.0,0.0,0.0,0.0,0.0,0.0,0.0,0.0,0.0,0.0,0.0,0.0,0.0,0.0,0.0,0.0,0.0,0.0,0.0,0.0,0.0,0.0,0.0,0.0,0.0,0.0,0.0,0.0,0.0,0.0,0.0,0.0,0.0,0.0,0.0,0.0,0.0,0.0,0.0,0.0,0.0,0.0,0.0,0.0,0.0,0.0,0.0,0.0,0.0,0.0,0.0,0.0,0.0,0.0,0.0,0.0,0.0,0.0,0.0,0.0,0.0,0.0,0.0,0.0,0.0,0.0,0.0,0.0,0.0,0.0,0.0,0.0,0.0,0.0,0.0,0.0,0.0,0.0,0.0,0.0,0.0,0.0,0.0,0.0,0.0,0.0,0.0,0.0,0.0,0.0,0.0,0.0,0.0,0.0,0.0,0.0,0.0,0.0,0.0,0.0,0.0,0.0,0.0,0.0,0.0,0.0,0.0,0.0,0.0,0.0,0.0,0.0,0.0,0.0,0.0,0.0,0.0,0.0,0.0,0.0,0.0,0.0,0.0,0.0,0.0,0.0,0.0,0.0,0.0,0.0,0.0,0.0,0.0,0.0,0.0,0.0,0.0,0.0,0.0,0.0,0.0,0.0,0.0,0.0,0.0,0.0,0.0,0.0,0.0,0.0,0.0,0.0,0.0,0.0,0.0,0.0,0.0,0.0,0.0,0.0,0.0,0.0,0.0,0.0,0.0,0.0,0.0,0.0,0.0,0.0,0.0,0.0,0.0,0.0,0.0,0.0,0.0,0.0,0.0,0.0,0.0,0.0,0.0,0.0,0.0,0.0,0.0,0.0,0.0,0.0,0.0,0.0,0.0,0.0,0.0,0.0,0.0,0.0,0.0,0.0,0.0,0.0,0.0,0.0,0.0,0.0,0.0,0.0,0.0,0.0,0.0,0.0,0.0,0.0,0.0,0.0,0.0,0.0,0.0,0.0,0.0,0.0,0.0,0.0,0.0,0.0,0.0,0.0,0.0,0.0,0.0,0.0,0.0,0.0,0.0,0.0,0.0,0.0,0.0,0.0,0.0,0.0,0.0,0.0,0.0,0.0,0.0,0.0,0.0,0.0,0.0,0.0,0.0,0.0,0.0,0.0,0.0,0.0,0.0,0.0,0.0,0.0,0.0,0.0,0.0,0.0,0.0,0.0,0.0,0.0,0.0,0.0,0.0,0.0,0.0,0.0,0.0,0.0,0.0,0.0,0.0,0.0,0.0,0.0,0.0,0.0,0.0,0.0,0.0,0.0,0.0,0.0,0.0,0.0,0.0,0.0,0.0,0.0,0.0,0.0,0.0,0.0,0.0,0.0,0.0,0.0,0.0,0.0,0.0,0.0,0.0,0.0,0.0,0.0,0.0,0.0,0.0,0.0,0.0,0.0,0.0,0.0,0.0,0.0,0.0,0.0,0.0,0.0,0.0,0.0,0.0,0.0,0.0,0.0,0.0,0.0,0.0,0.0,0.0,0.0,0.0,0.0,0.0,0.0,0.0,0.0,0.0,0.0,0.0,0.0,0.0,0.0,0.0,0.0,0.0,0.0,0.0,0.0,0.0,0.0,0.0,0.0,0.0,0.0,0.0,0.0,0.0,0.0,0.0,0.0,0.0,0.0,0.0,0.0,0.0,0.0,0.0,0.0,0.0,0.0,0.0,0.0,0.0,0.0,0.0,0.0,0.0,0.0,0.0,0.0,0.0,0.0,0.0,0.0,0.0,0.0,0.0,0.0,0.0,0.0,0.0,0.0,0.0,0.0,0.0,0.0,0.0,0.0,0.0,0.0,0.0,0.0,0.0,0.0,0.0,0.0,0.0,0.0,0.0,0.0,0.0,0.0,0.0,0.0,0.0,0.0,0.0,0.0,0.0,0.0,0.0,0.0,0.0,0.0,0.0,0.0,0.0,0.0,0.0,0.0,0.0,0.0,0.0,0.0,0.0,0.0,0.0,0.0,0.0,0.0,0.0,0.0,0.0,0.0,0.0,0.0,0.0,0.0,0.0,0.0,0.0,0.0,0.0,0.0,0.0,0.0,0.0,0.0,0.0,0.0,0.0,0.0,0.0,0.0,0.0,0.0,0.0,0.0,0.0,0.0,0.0,0.0,0.0,0.0,0.0,0.0,0.0,0.0,0.0,0.0,0.0,0.0,0.0,0.0,0.0,0.0,0.0,0.0,0.0,0.0,0.0,0.0,0.0,0.0,0.0,0.0,0.0,0.0,0.0,0.0,0.0,0.0,0.0,0.0,0.0,0.0,0.0,0.0,0.0,0.0,0.0,0.0,0.0,0.0,0.0,0.0,0.0,0.0,0.0,0.0,0.0,0.0,0.0,0.0,0.0,0.0,0.0,0.0,0.0,0.0,0.0,0.0,0.0,0.0,0.0,0.0,0.0,0.0,0.0,0.0,0.0,0.0,0.0,0.0,0.0,0.0,0.0,0.0,0.0,0.0,0.0,0.0,0.0,0.0,0.0,0.0,0.0,0.0,0.0,0.0,0.0,0.0,0.0,0.0,0.0,0.0,0.0,0.0,0.0,0.0,0.0,0.0,0.0,0.0,0.0,0.0,0.0,0.0,0.0,0.0,0.0,0.0,0.0,0.0,0.0,0.0,0.0,0.0,0.0,0.0,0.0,0.0,0.0,0.0,0.0,0.0,0.0,0.0,0.0,0.0,0.0,0.0,0.0,0.0,0.0,0.0,0.0,0.0,0.0,0.0,0.0,0.0,0.0,0.0,0.0,0.0,0.0,0.0,0.0,0.0,0.0,0.0,0.0,0.0,0.0,0.0,0.0,0.0,0.0,0.0,0.0,0.0,0.0,0.0,0.0,0.0,0.0,0.0,0.0,0.0,0.0,0.0,0.0,0.0,0.0,0.0,0.0,0.0,0.0,0.0,0.0,0.0,0.0,0.0,0.0,0.0,0.0,0.0,0.0,0.0,0.0,0.0,0.0,0.0,0.0,0.0,0.0,0.0,0.0,0.0,0.0,0.0,0.0,0.0,0.0,0.0,0.0,0.0,0.0,0.0,0.0,0.0,0.0,0.0,0.0,0.0,0.0,0.0,0.0,0.0,0.0,0.0,0.0,0.0,0.0,0.0,0.0,0.0,0.0,0.0,0.0,0.0,0.0,0.0,0.0,0.0,0.0,0.0,0.0,0.0,0.0,0.0,0.0,0.0,0.0,0.0,0.0,0.0,0.0,0.0,0.0,0.0,0.0,0.0,0.0,0.0,0.0,0.0,0.0,0.0,0.0,0.0,0.0,0.0,0.0,0.0,0.0,0.0,0.0,0.0,0.0,0.0,0.0,0.0,0.0,0.0,0.0,0.0,0.0,0.0,0.0,0.0,0.0,0.0,0.0,0.0,0.0,0.0,0.0,0.0,0.0,0.0,0.0,0.0,0.0,0.0,0.0,0.0,0.0,0.0,0.0,0.0,0.0,0.0,0.0,0.0,0.0,0.0,0.0,0.0,0.0,0.0,0.0,0.0,0.0,0.0,0.0,0.0,0.0,0.0,0.0,0.0,0.0,0.0,0.0,0.0,0.0,0.0,0.0,0.0,0.0,0.0,0.0,0.0,0.0,0.0,0.0,0.0,0.0,0.0,0.0,0.0,0.0,0.0,0.0,0.0,0.0,0.0,0.0,0.0,0.0,0.0,0.0,0.0,0.0,0.0,0.0,0.0,0.0,0.0,0.0,0.0,0.0,0.0,0.0,0.0,0.0,0.0,0.0,0.0,0.0,0.0,0.0,0.0,0.0,0.0,0.0,0.0,0.0,0.0,0.0,0.0,0.0,0.0,0.0,0.0,0.0,0.0,0.0,0.0,0.0,0.0,0.0,0.0,0.0,0.0,0.0,0.0,0.0,0.0,0.0,0.0,0.0,0.0,0.0,0.0,0.0,0.0,0.0,0.0,0.0,0.0,0.0,0.0,0.0,0.0,0.0,0.0,0.0,0.0,0.0,0.0,0.0,0.0,0.0,0.0,0.0,0.0,0.0,0.0,0.0,0.0,0.0,0.0,0.0,0.0,0.0,0.0,0.0,0.0,0.0,0.0,0.0,0.0,0.0,0.0,0.0,0.0,0.0,0.0,0.0,0.0,0.0,0.0,0.0,0.0,0.0,0.0,0.0,0.0,0.0,0.0,0.0,0.0,0.0,0.0,0.0,0.0,0.0,0.0,0.0,0.0,0.0,0.0,0.0,0.0,0.0,0.0,0.0,0.0,0.0,0.0,0.0,0.0,0.0,0.0,0.0,0.0,0.0,0.0,0.0,0.0,0.0,0.0,0.0,0.0,0.0,0.0,0.0,0.0,0.0,0.0,0.0,0.0,0.0,0.0,0.0,0.0,0.0,0.0,0.0,0.0,0.0,0.0,0.0,0.0,0.0,0.0,0.0,0.0,0.0,0.0,0.0,0.0,0.0,0.0,0.0,0.0,0.0,0.0,0.0,0.0,0.0,0.0,0.0,0.0,0.0,0.0,0.0,0.0,0.0,0.0,0.0,0.0,0.0,0.0,0.0,0.0,0.0,0.0,0.0,0.0,0.0,0.0,0.0,0.0,0.0,0.0,0.0,0.0,0.0,0.0,0.0,0.0,0.0,0.0,0.0,0.0,0.0,0.0,0.0,0.0,0.0,0.0,0.0,0.0,0.0,0.0,0.0,0.0,0.0,0.0,0.0,0.0,0.0,0.0,0.0,0.0,0.0,0.0,0.0,0.0,0.0,0.0,0.0,0.0,0.0,0.0,0.0,0.0,0.0,0.0,0.0,0.0,0.0,0.0,0.0,0.0,0.0,0.0,0.0,0.0,0.0,0.0,0.0,0.0,0.0,0.0,0.0,0.0,0.0,0.0,0.0,0.0,0.0,0.0,0.0,0.0,0.0,0.0,0.0,0.0,0.0,0.0,0.0,0.0,0.0,0.0,0.0,0.0,0.0,0.0,0.0,0.0,0.0,0.0,0.0,0.0,0.0,0.0,0.0,0.0,0.0,0.0,0.0,0.0,0.0,0.0,0.0,0.0,0.0,0.0,0.0,0.0,0.0,0.0,0.0,0.0,0.0,0.0,0.0,0.0,0.0,0.0,0.0,0.0,0.0,0.0,0.0,0.0,0.0,0.0,0.0,0.0,0.0,0.0,0.0,0.0,0.0,0.0,0.0,0.0,0.0,0.0,0.0,0.0,0.0,0.0,0.0,0.0,0.0,0.0,0.0,0.0,0.0,0.0,0.0,0.0,0.0,0.0,0.0,0.0,0.0,0.0,0.0,0.0,0.0,0.0,0.0,0.0,0.0,0.0,0.0,0.0,0.0,0.0,0.0,0.0,0.0,0.0,0.0,0.0,0.0,0.0,0.0,0.0,0.0,0.0,0.0,0.0,0.0,0.0,0.0,0.0,0.0,0.0,0.0,0.0,0.0,0.0,0.0,0.0,0.0,0.0,0.0,0.0,0.0,0.0,0.0,0.0,0.0,0.0,0.0,0.0,0.0,0.0,0.0,0.0,0.0,0.0,0.0,0.0,0.0,0.0,0.0,0.0,0.0,0.0,0.0,0.0,0.0,-1.6032,-1.5992,0.0,0.0,0.0,0.0,0.0,0.0,0.0,0.0,0.0,0.0,0.0,0.0,0.0,0.0,0.0,0.0,0.0,0.0,0.0,0.0,0.0,0.0,0.0,0.0,0.0,0.0,0.0,0.0,0.0,0.0,0.0,0.0,0.0,0.0,0.0,0.0,0.0,0.0,0.0,0.0,0.0,0.0,0.0,0.0,0.0,0.0,0.0,0.0,0.0,0.0,0.0,0.0,0.0,0.0,0.0,0.0,0.0,0.0,0.0,0.0,0.0,0.0,0.0,0.0,0.0,0.0,0.0,0.0,0.0,0.0,0.0,0.0,0.0,0.0,0.0,0.0,0.0,0.0,0.0,0.0,0.0,0.0,0.0,0.0,0.0,0.0,0.0,0.0,0.0,0.0,0.0,0.0,0.0,0.0,0.0,0.0,0.0,0.0,0.0,0.0,0.0,0.0,0.0,0.0,0.0,0.0,0.0,0.0,0.0,0.0,0.0,0.0,0.0,0.0,-1.7188,-1.6874,0.0,0.0,0.0,0.0,0.0,0.0,0.0,0.0,0.0,0.0,0.0,0.0,0.0,0.0,0.0,0.0,0.0,0.0,0.0,0.0,0.0,0.0,0.0,0.0,0.0,0.0,0.0,0.0,0.0,0.0,0.0,0.0,0.0,0.0,0.0,0.0,0.0,0.0,0.0,0.0,0.0,0.0,0.0,0.0,0.0,0.0,0.0,0.0,0.0,0.0,0.0,0.0,0.0,0.0,0.0,0.0,0.0,0.0,0.0,0.0,0.0,0.0,0.0,0.0,0.0,0.0,0.0,0.0,0.0,0.0,0.0,0.0,0.0,0.0,0.0,0.0,0.0,0.0,0.0,0.0,0.0,0.0,0.0,0.0,0.0,0.0,0.0,0.0,0.0,0.0,0.0,0.0,0.0,0.0,0.0,0.0,0.0,0.0,0.0,0.0,0.0,0.0,0.0,0.0,0.0,0.0,0.0,0.0,-1.7976,-1.8364,-1.8571,-1.8328,-1.8255,-1.8249,-1.7764,-1.7297,-1.6951,-1.6684,0.0,0.0,0.0,0.0,0.0,0.0,0.0,0.0,0.0,0.0,0.0,0.0,0.0,0.0,0.0,0.0,0.0,0.0,0.0,0.0,0.0,0.0,0.0,0.0,0.0,0.0,0.0,0.0,0.0,0.0,0.0,0.0,0.0,0.0,0.0,0.0,0.0,0.0,0.0,0.0,0.0,0.0,0.0,0.0,0.0,0.0,0.0,0.0,0.0,0.0,0.0,0.0,0.0,0.0,0.0,0.0,0.0,0.0,0.0,0.0,0.0,0.0,0.0,0.0,0.0,0.0,0.0,0.0,0.0,0.0,0.0,0.0,0.0,0.0,0.0,0.0,0.0,0.0,0.0,0.0,0.0,0.0,0.0,0.0,0.0,0.0,-1.5244,-1.499,0.0,0.0,0.0,0.0,0.0,0.0,0.0,0.0,0.0,0.0,0.0,0.0,0.0,-1.7422,-1.7695,-1.8277,-1.8484,-1.8323,-1.8905,-1.9078,-1.8765,-1.7837,-1.7327,-1.7351,-1.6284,0.0,-1.5929,-1.4471,0.0,0.0,0.0,0.0,0.0,0.0,0.0,0.0,0.0,0.0,0.0,0.0,0.0,0.0,0.0,0.0,0.0,0.0,0.0,0.0,0.0,0.0,0.0,0.0,0.0,0.0,0.0,0.0,0.0,0.0,0.0,0.0,0.0,0.0,0.0,0.0,0.0,0.0,0.0,0.0,0.0,0.0,0.0,0.0,0.0,0.0,0.0,0.0,0.0,0.0,0.0,0.0,0.0,0.0,0.0,0.0,0.0,0.0,0.0,0.0,0.0,0.0,0.0,0.0,0.0,0.0,0.0,0.0,0.0,0.0,0.0,0.0,0.0,0.0,0.0,0.0,0.0,0.0,0.0,0.0,0.0,0.0,0.0,0.0,0.0,-1.5705,-1.5778,-1.5484,-1.5598,-1.5518,0.0,0.0,0.0,0.0,0.0,0.0,0.0,0.0,0.0,-1.7261,-1.7809,-1.8237,-1.8537,-1.8958,-1.9272,-1.9472,-1.8917,-1.8629,-1.8666,-1.7151,-1.649,-1.6375,-1.4923,-1.436,-1.4401,-1.4183,-1.3852,-1.3378,0.0,0.0,0.0,0.0,-1.1281,-1.1899,0.0,0.0,0.0,0.0,0.0,0.0,0.0,0.0,0.0,0.0,0.0,0.0,0.0,0.0,0.0,0.0,0.0,0.0,0.0,0.0,0.0,0.0,0.0,0.0,0.0,0.0,0.0,0.0,0.0,0.0,0.0,0.0,0.0,0.0,0.0,0.0,0.0,0.0,0.0,0.0,0.0,0.0,0.0,0.0,0.0,0.0,0.0,0.0,0.0,0.0,0.0,0.0,0.0,0.0,0.0,0.0,0.0,0.0,0.0,0.0,0.0,0.0,0.0,0.0,0.0,0.0,0.0,0.0,0.0,0.0,0.0,0.0,0.0,0.0,0.0,0.0,0.0,-1.6279,-1.6413,-1.5892,-1.6353,-1.6426,0.0,0.0,0.0,0.0,0.0,0.0,-1.7569,-1.8023,-1.8404,-1.8711,-1.9078,-1.9412,-1.9706,-1.9853,-1.9899,-1.9937,-1.8746,-1.8134,-1.7736,-1.6165,-1.5371,-1.5139,-1.3375,-1.2716,-1.2636,-1.3273,-1.3283,-1.2795,-1.1496,-1.0946,-1.0848,-1.0035,-1.0238,-1.1,0.0,0.0,0.0,0.0,0.0,0.0,0.0,0.0,0.0,0.0,0.0,0.0,0.0,0.0,0.0,0.0,0.0,0.0,0.0,0.0,0.0,0.0,0.0,0.0,0.0,0.0,0.0,0.0,0.0,0.0,0.0,0.0,0.0,0.0,0.0,0.0,0.0,0.0,0.0,0.0,0.0,0.0,0.0,0.0,0.0,0.0,0.0,0.0,0.0,0.0,0.0,0.0,0.0,0.0,0.0,0.0,0.0,0.0,0.0,0.0,0.0,0.0,0.0,0.0,0.0,0.0,0.0,0.0,0.0,0.0,0.0,0.0,0.0,0.0,0.0,0.0,0.0,0.0,0.0,-1.5965,-1.7074,0.0,0.0,0.0,0.0,-1.7488,-1.8283,-1.8791,-1.8831,-1.9639,-2.0234,-2.0535,-2.1102,-2.1537,-2.183,-2.1577,-2.0664,-1.9102,-1.8853,-1.769,-1.5928,-1.462,-1.3789,-1.3333,-1.1665,-1.0987,-1.0826,-1.0649,-1.0593,-1.0673,-1.0252,-1.0015,-1.0015,-1.0022,-1.0022,-1.0019,0.0,0.0,0.0,0.0,0.0,0.0,0.0,0.0,0.0,0.0,0.0,0.0,0.0,0.0,0.0,0.0,0.0,0.0,0.0,0.0,0.0,0.0,0.0,0.0,0.0,0.0,0.0,0.0,0.0,0.0,0.0,0.0,0.0,0.0,0.0,0.0,0.0,0.0,0.0,0.0,0.0,0.0,0.0,0.0,0.0,0.0,0.0,0.0,0.0,0.0,0.0,0.0,0.0,0.0,0.0,0.0,0.0,0.0,0.0,0.0,0.0,0.0,0.0,0.0,0.0,0.0,0.0,0.0,0.0,0.0,0.0,0.0,0.0,0.0,0.0,0.0,0.0,0.0,0.0,-1.7308,-1.8384,0.0,-1.8056,-1.843,-1.8885,-1.9259,-1.9586,-2.0013,-2.0588,-2.0915,-2.1216,-2.151,-2.1724,-2.1345,-2.0232,-2.0133,-1.9064,-1.7176,-1.5855,-1.495,-1.411,-1.2661,-1.1843,-1.1644,-1.1146,-1.0863,-1.0711,-1.0609,-1.0595,-1.0629,-1.0524,-1.0483,-1.0483,-1.0483,-1.0483,-1.0483,0.0,0.0,0.0,0.0,0.0,0.0,0.0,0.0,0.0,0.0,0.0,0.0,0.0,0.0,0.0,0.0,0.0,0.0,0.0,0.0,0.0,0.0,0.0,0.0,0.0,0.0,0.0,0.0,0.0,0.0,0.0,0.0,0.0,0.0,0.0,0.0,0.0,0.0,0.0,0.0,0.0,0.0,-1.5925,0.0,0.0,0.0,0.0,0.0,0.0,0.0,0.0,0.0,0.0,0.0,0.0,0.0,0.0,0.0,0.0,0.0,0.0,0.0,0.0,0.0,0.0,0.0,0.0,0.0,0.0,0.0,0.0,0.0,0.0,0.0,0.0,0.0,0.0,-1.7869,-1.8551,-1.8364,-1.9553,-2.016,-1.9573,-1.996,-2.0448,-2.0935,-2.1162,-2.149,-2.1971,-2.2191,-2.2291,-2.2278,-2.1828,-2.0865,-1.9552,-1.8778,-1.7432,-1.5399,-1.4192,-1.3292,-1.2594,-1.1564,-1.0989,-1.0802,-1.0904,-1.0863,-1.0721,-1.0721,-1.0721,-1.0721,-1.0721,-1.0721,-1.0727,-1.0778,-1.0765,-1.0721,0.0,0.0,0.0,0.0,0.0,0.0,0.0,0.0,0.0,0.0,0.0,0.0,0.0,0.0,0.0,0.0,0.0,0.0,0.0,0.0,0.0,0.0,0.0,0.0,0.0,0.0,0.0,0.0,0.0,0.0,0.0,0.0,0.0,0.0,0.0,0.0,0.0,0.0,0.0,0.0,0.0,0.0,-1.6226,0.0,0.0,0.0,0.0,0.0,0.0,0.0,0.0,0.0,0.0,0.0,0.0,0.0,0.0,0.0,0.0,0.0,0.0,0.0,0.0,0.0,0.0,0.0,0.0,0.0,0.0,0.0,0.0,0.0,0.0,0.0,0.0,0.0,-1.7268,-1.8731,-1.9626,-1.9072,-2.0541,-2.137,-2.0802,-2.153,-2.2158,-2.2438,-2.3006,-2.3207,-2.2906,-2.3447,-2.336,-2.2769,-2.1175,-2.0327,-1.9941,-1.7872,-1.5815,-1.4157,-1.4018,-1.2959,-1.1168,-1.1314,-1.1226,-1.0948,-1.0948,-1.0863,-1.0721,-1.0721,-1.0721,-1.0721,-1.0721,-1.0721,-1.0738,-1.0887,-1.0846,-1.0721,0.0,0.0,0.0,0.0,0.0,0.0,0.0,0.0,0.0,0.0,0.0,0.0,0.0,0.0,0.0,0.0,0.0,0.0,0.0,0.0,0.0,0.0,0.0,0.0,0.0,0.0,0.0,0.0,0.0,0.0,0.0,0.0,0.0,0.0,0.0,0.0,0.0,0.0,0.0,0.0,0.0,0.0,-1.5965,0.0,0.0,0.0,0.0,0.0,0.0,0.0,0.0,0.0,0.0,0.0,0.0,0.0,0.0,0.0,0.0,0.0,0.0,0.0,0.0,0.0,0.0,0.0,0.0,0.0,0.0,0.0,0.0,0.0,0.0,0.0,-1.8123,-1.8925,-1.9052,-1.986,-2.0535,-2.0795,-2.1817,-2.2438,-2.2278,-2.2879,-2.3313,-2.3394,-2.3554,-2.3027,-2.1339,-2.1479,-2.0767,-1.9173,-1.8656,-1.7784,-1.6276,-1.565,-1.421,-1.2255,-1.214,-1.1723,-1.1165,-1.1206,-1.1124,-1.0948,-1.0948,-1.0863,-1.0721,-1.0721,-1.0721,-1.0721,-1.0721,-1.0721,-1.0857,-1.2207,-1.2584,-1.2541,0.0,0.0,0.0,0.0,0.0,0.0,0.0,0.0,0.0,0.0,0.0,0.0,0.0,0.0,0.0,0.0,0.0,0.0,0.0,0.0,0.0,0.0,0.0,0.0,0.0,0.0,0.0,0.0,0.0,0.0,0.0,0.0,0.0,0.0,0.0,0.0,0.0,0.0,0.0,0.0,0.0,0.0,-1.6553,-1.648,-1.6607,-1.6767,-1.6346,-1.6633,-1.7114,-1.6426,0.0,0.0,0.0,0.0,0.0,0.0,0.0,0.0,0.0,0.0,0.0,0.0,0.0,0.0,0.0,0.0,0.0,0.0,0.0,0.0,0.0,0.0,0.0,0.0,-1.9372,-2.0327,-2.0989,-2.1269,-2.163,-2.2225,-2.2859,-2.334,-2.3581,-2.3814,-2.3753,-2.3095,-2.3006,-2.1849,-1.9674,-1.9762,-1.9132,-1.7769,-1.712,-1.6053,-1.4872,-1.3901,-1.2909,-1.1616,-1.1531,-1.144,-1.1348,-1.1219,-1.1118,-1.1029,-1.0907,-1.0802,-1.0717,-1.1501,-1.1762,-1.1762,0.0,0.0,0.0,0.0,-1.3765,-1.4218,0.0,0.0,0.0,0.0,0.0,0.0,0.0,0.0,0.0,0.0,0.0,0.0,0.0,0.0,0.0,0.0,0.0,0.0,0.0,0.0,0.0,0.0,0.0,0.0,0.0,0.0,0.0,0.0,0.0,0.0,0.0,0.0,0.0,0.0,0.0,0.0,0.0,0.0,0.0,0.0,0.0,0.0,-1.7428,-1.6941,-1.7081,-1.7462,-1.6901,-1.6814,-1.6934,-1.6592,0.0,0.0,0.0,0.0,0.0,0.0,0.0,0.0,0.0,0.0,0.0,0.0,0.0,0.0,0.0,0.0,0.0,0.0,0.0,0.0,0.0,0.0,0.0,0.0,-2.0875,-2.169,-2.2806,-2.2766,-2.2806,-2.332,-2.3641,-2.4022,-2.4536,-2.4236,-2.342,-2.2094,-2.1615,-2.0336,-1.8026,-1.8049,0.0,0.0,0.0,-1.4811,-1.45,-1.2718,-1.1769,-1.1643,-1.1626,-1.1609,-1.1586,-1.1294,-1.1155,-1.1121,-1.1108,-1.0979,-1.1111,-1.2931,-1.3582,-1.3582,-1.3582,-1.3582,-1.3582,-1.3582,-1.4476,-1.5262,0.0,0.0,0.0,0.0,0.0,0.0,0.0,0.0,0.0,0.0,0.0,0.0,0.0,0.0,0.0,0.0,0.0,0.0,0.0,0.0,0.0,0.0,0.0,0.0,0.0,0.0,0.0,0.0,0.0,0.0,0.0,0.0,0.0,0.0,0.0,0.0,0.0,0.0,0.0,0.0,0.0,0.0,-1.6887,-1.7014,-1.7134,-1.7188,-1.6834,-1.7475,-1.8123,-1.5897,-1.5737,-1.6087,-1.3788,0.0,0.0,0.0,0.0,0.0,0.0,0.0,0.0,0.0,0.0,0.0,0.0,0.0,0.0,0.0,0.0,0.0,0.0,0.0,0.0,-2.0802,-2.183,-2.2772,-2.3494,-2.3748,-2.3814,-2.3701,-2.3941,-2.4162,-2.4275,-2.294,-2.196,-2.1814,-2.025,-1.8365,-1.6331,-1.6366,-1.5516,-1.3632,-1.3083,-1.286,-1.2799,-1.21,-1.1816,-1.1789,-1.1674,0.0,-1.143,-1.1246,-1.1101,-1.0978,-1.2242,-1.2804,-1.2935,-1.4619,-1.5399,-1.5399,-1.5399,-1.5399,-1.5399,-1.5399,-1.4772,-1.3765,0.0,0.0,0.0,0.0,0.0,0.0,0.0,0.0,0.0,0.0,0.0,0.0,0.0,0.0,0.0,0.0,0.0,0.0,0.0,0.0,0.0,0.0,0.0,0.0,0.0,0.0,0.0,0.0,0.0,0.0,0.0,0.0,0.0,0.0,0.0,0.0,0.0,0.0,0.0,0.0,0.0,0.0,-1.6116,-1.716,-1.7589,-1.7477,-1.6723,-1.6775,-1.6857,-1.4937,-1.4541,-1.4681,-1.2772,-1.2018,-1.1801,0.0,0.0,0.0,0.0,0.0,0.0,0.0,0.0,0.0,0.0,0.0,0.0,0.0,0.0,-1.8931,-1.9666,0.0,-2.1009,-2.2051,-2.2839,-2.3186,-2.2595,-2.2859,-2.3324,-2.409,-2.3426,-2.2965,-2.3103,-2.1297,-1.9778,-1.9047,-1.7788,-1.6335,-1.4274,-1.4201,-1.3653,-1.2505,-1.2366,-1.2254,-1.2176,-1.1945,-1.1796,-1.1725,-1.1575,-1.1463,-1.1382,-1.2109,-1.2357,-1.2269,-1.3928,-1.4619,-1.4619,-1.5529,-1.5913,-1.5913,-1.5913,-1.5913,-1.5784,-1.4879,-1.4101,-1.3193,0.0,0.0,0.0,0.0,0.0,0.0,0.0,0.0,0.0,0.0,0.0,0.0,0.0,0.0,0.0,0.0,0.0,0.0,0.0,0.0,0.0,0.0,0.0,0.0,0.0,0.0,0.0,0.0,0.0,0.0,0.0,0.0,0.0,0.0,0.0,0.0,0.0,0.0,0.0,0.0,0.0,0.0,-1.5189,-1.6621,-1.7143,-1.7041,-1.5876,-1.5367,-1.4911,-1.3673,-1.3247,-1.2941,-1.1624,-1.1093,-1.0638,-0.9244,-0.8947,0.0,0.0,0.0,0.0,0.0,0.0,0.0,0.0,-1.2435,-1.4441,-1.6189,-1.8125,-1.9967,-2.1142,-2.1503,-2.2038,-2.3293,-2.345,-2.2834,-2.1414,-2.1199,-2.1685,-2.3296,-2.2097,-2.1146,-2.1345,-1.9307,-1.7516,-1.6179,-1.5457,-1.4284,-1.2722,-1.2583,-1.2488,-1.2461,-1.2291,-1.2142,-1.2016,-1.1837,-1.1687,-1.1572,-1.1836,-1.1884,-1.1849,-1.3337,-1.3983,-1.4073,-1.5734,-1.6431,-1.6431,-1.6431,-1.6043,-1.5399,-1.5399,-1.5139,-1.4749,-1.3709,-1.3062,-1.2541,0.0,0.0,0.0,0.0,0.0,0.0,0.0,0.0,0.0,0.0,0.0,0.0,0.0,0.0,0.0,0.0,0.0,0.0,0.0,0.0,0.0,0.0,0.0,0.0,0.0,0.0,0.0,0.0,0.0,0.0,0.0,0.0,0.0,0.0,0.0,0.0,0.0,0.0,0.0,0.0,0.0,0.0,-1.3889,-1.414,-1.4151,-1.402,-1.3733,-1.3759,-1.3704,-1.2261,-1.1871,-1.1727,-1.0565,-1.002,-0.9756,-0.947,0.0,-0.8716,-0.8513,-0.8506,-0.8642,-0.8991,-0.9008,-0.9617,0.0,-1.4147,-1.6017,-1.7885,-2.027,-2.2078,-2.2238,-2.2933,-2.3614,-2.4035,-2.2846,-2.1823,-2.1549,-2.0091,-1.9057,-1.9182,-1.9207,-1.9188,-1.9214,-1.7176,-1.5778,-1.5844,-1.4117,-1.2865,-1.2729,-1.2583,-1.2444,-1.2318,-1.2033,-1.1874,-1.1857,-1.1579,-1.1433,-1.1416,-1.2904,-1.3419,-1.3267,-1.5086,-1.5751,-1.5694,-1.7479,-1.825,-1.825,-1.825,-1.6431,-1.3582,-1.3582,-1.2672,-1.1505,-1.2804,-1.2281,-1.0982,0.0,0.0,0.0,0.0,0.0,0.0,0.0,0.0,0.0,0.0,0.0,0.0,0.0,0.0,0.0,0.0,0.0,0.0,0.0,0.0,0.0,0.0,0.0,0.0,0.0,0.0,0.0,0.0,0.0,0.0,0.0,0.0,0.0,0.0,0.0,0.0,0.0,0.0,0.0,0.0,0.0,0.0,-1.226,-1.226,-1.1642,-1.09,-1.1912,-1.2156,0.0,0.0,-1.001,-1.0085,-0.978,-0.9513,-0.9313,-0.9167,-0.9049,0.0,-0.8998,-0.9005,-0.9049,-0.9239,-1.024,-1.1347,-1.2717,-1.5202,-1.7685,-1.9155,-2.1206,-2.2839,-2.336,-2.2742,-2.2329,-2.2602,-2.1078,-1.9478,-1.8265,-1.7464,-1.6392,-1.5113,-1.5093,-1.5658,-1.6726,-1.4976,-1.3789,-1.3957,-1.3109,-1.2596,-1.2596,-1.2457,-1.2267,-1.203,-1.182,-1.1667,-1.1575,-1.1453,-1.1899,-1.2762,-1.3505,-1.4183,-1.5058,-1.6771,-1.7961,-1.9024,-1.968,-1.8896,-1.6953,-1.6953,-1.4879,-1.1762,-1.1762,-1.1372,-1.0853,-1.1501,-1.1372,-1.0721,0.0,0.0,0.0,0.0,0.0,0.0,0.0,0.0,0.0,0.0,0.0,0.0,0.0,0.0,0.0,0.0,0.0,0.0,0.0,0.0,0.0,0.0,0.0,0.0,0.0,0.0,0.0,0.0,0.0,0.0,0.0,0.0,0.0,0.0,0.0,0.0,0.0,0.0,0.0,0.0,0.0,0.0,-1.0695,-1.06,-0.9835,-0.8996,-1.0307,-1.0482,0.0,0.0,-0.8811,-0.8866,-0.9164,-0.9154,-0.9018,-0.8957,-0.9172,-0.9539,-0.9771,-1.0235,-1.059,-1.0794,-1.2154,-1.345,-1.3678,-1.6423,-1.8965,-2.0005,-2.1302,-2.2473,-2.3175,-2.1726,-2.0483,-2.0813,-1.9025,-1.7184,-1.562,-1.5085,-1.4118,-1.2343,-1.222,-1.2874,-1.4259,-1.3257,-1.2427,-1.2535,-1.2444,-1.2379,-1.2379,-1.2206,-1.2003,-1.1779,-1.1592,-1.144,-1.1331,-1.1838,-1.2578,-1.3662,-1.4684,-1.5648,-1.6813,-1.7944,-1.8896,-1.968,-1.968,-1.7988,-1.5135,-1.5135,-1.3451,-1.0721,-1.0721,-1.0721,-1.0721,-1.0721,-1.0721,-1.0721,0.0,0.0,0.0,0.0,0.0,0.0,0.0,0.0,0.0,0.0,0.0,0.0,0.0,0.0,0.0,0.0,0.0,0.0,0.0,0.0,0.0,0.0,0.0,0.0,0.0,0.0,0.0,0.0,0.0,0.0,0.0,0.0,0.0,0.0,0.0,0.0,0.0,0.0,0.0,0.0,0.0,0.0,-0.9233,-0.8941,-0.872,-0.8716,-0.872,0.0,0.0,0.0,-0.8496,-0.855,-0.8855,-0.8849,0.0,-0.8896,-0.9581,-1.0468,-1.0789,-1.2154,-1.3704,-1.4249,-1.4871,-1.5487,-1.5905,-1.7806,-1.9527,-2.0203,-2.0592,-2.0891,-2.1167,-1.9916,-1.8713,-1.8718,-1.6904,-1.5476,-1.529,-1.3499,-1.2168,-1.1864,-1.1728,-1.1701,-1.1837,-1.1986,-1.2077,-1.2081,-1.2077,-1.2077,-1.2077,-1.1799,-1.1636,-1.1626,-1.1335,-1.1175,-1.1168,-1.264,-1.3486,-1.3612,-1.6822,-1.8396,-1.839,-1.8512,-1.7602,-1.6048,-1.6048,-1.5009,-1.332,-1.332,-1.2281,-1.0721,-1.0721,-1.0721,-1.0721,-1.0721,-1.0721,-1.0721,0.0,0.0,0.0,0.0,0.0,0.0,0.0,0.0,0.0,0.0,0.0,0.0,0.0,0.0,0.0,0.0,0.0,0.0,0.0,0.0,0.0,0.0,0.0,0.0,0.0,0.0,0.0,0.0,0.0,0.0,0.0,0.0,0.0,0.0,0.0,0.0,0.0,0.0,0.0,0.0,0.0,0.0,-1.0898,-1.0319,-1.0642,-1.1227,0.0,0.0,0.0,0.0,0.0,0.0,-1.0441,-1.0624,-1.0685,-1.0857,-1.1373,-1.2048,-1.2534,-1.3412,-1.4405,-1.5011,-1.6311,-1.753,-1.8194,-1.982,-2.0971,-2.0587,-2.032,-2.0,-1.9107,-1.7235,-1.5808,-1.5931,-1.4322,-1.3103,-1.3159,-1.2536,-1.1932,-1.1582,-1.1586,-1.1521,-1.127,-1.1562,-1.185,-1.2047,-1.1965,-1.1908,-1.1908,-1.1725,-1.1528,-1.1321,-1.2205,-1.2704,-1.2586,-1.4365,-1.5781,-1.6811,-1.9072,-1.9674,-1.8506,-1.8506,-1.7602,-1.5913,-1.5913,-1.4879,-1.3325,-1.3325,-1.2285,-1.0721,-1.0721,-1.0721,-1.0721,-1.0721,-1.0721,-1.0721,0.0,0.0,0.0,0.0,0.0,0.0,0.0,0.0,0.0,0.0,0.0,0.0,0.0,0.0,0.0,0.0,0.0,0.0,0.0,0.0,0.0,0.0,0.0,0.0,0.0,0.0,0.0,0.0,0.0,0.0,0.0,0.0,0.0,0.0,0.0,0.0,0.0,0.0,0.0,0.0,0.0,0.0,-1.205,-1.1522,-1.1793,0.0,0.0,0.0,0.0,0.0,0.0,0.0,-1.1303,-1.1507,-1.1858,-1.2041,-1.2883,-1.38,-1.4549,-1.5642,-1.6543,-1.7217,-1.8322,-1.9314,-1.9268,-2.0078,-2.0553,-1.9594,-1.8507,-1.7564,-1.6683,-1.4573,-1.3086,-1.3193,-1.2201,-1.1487,-1.1643,-1.1616,-1.1494,-1.126,-1.1321,-1.1267,-1.0975,-1.1209,-1.148,-1.1721,-1.2265,-1.2639,-1.2584,-1.3105,-1.3336,-1.2982,-1.3931,-1.4174,-1.3325,-1.5143,-1.6582,-1.7602,-1.8762,-1.8378,-1.6695,-1.6695,-1.5659,-1.4101,-1.4101,-1.3451,-1.2413,-1.2413,-1.1765,-1.0721,-1.0721,-1.0721,-1.0721,-1.0721,-1.0721,-1.0721,0.0,0.0,0.0,0.0,0.0,0.0,0.0,0.0,0.0,0.0,0.0,0.0,0.0,0.0,0.0,0.0,0.0,0.0,0.0,0.0,0.0,0.0,0.0,0.0,0.0,0.0,0.0,0.0,0.0,0.0,0.0,0.0,0.0,0.0,0.0,0.0,0.0,0.0,0.0,0.0,0.0,0.0,-1.28,-1.2542,0.0,0.0,0.0,0.0,0.0,0.0,0.0,-1.138,-1.1508,-1.1821,-1.2222,-1.2752,-1.4089,-1.5671,-1.6797,-1.8428,-1.998,-2.0555,-2.0902,-2.0661,-1.9368,-1.8882,-1.8479,-1.7308,-1.5283,-1.3858,-1.3883,-1.2189,-1.0687,-1.0687,-1.0711,-1.0785,-1.0938,-1.0836,-1.0795,-1.0941,-1.0955,-1.0948,-1.0948,-1.0941,-1.0992,-1.1128,-1.2924,-1.3909,-1.3746,-1.5678,-1.6551,-1.6002,-1.6242,-1.5473,-1.3456,-1.5009,-1.5913,-1.5913,-1.5913,-1.5009,-1.3325,-1.3325,-1.2413,-1.0721,-1.0721,-1.0721,-1.0721,-1.0721,-1.0721,-1.0721,-1.0721,-1.0721,-1.0721,-1.0721,-1.0721,-1.0721,0.0,0.0,0.0,0.0,0.0,0.0,0.0,0.0,0.0,0.0,0.0,0.0,0.0,0.0,0.0,0.0,0.0,0.0,0.0,0.0,0.0,0.0,0.0,0.0,0.0,0.0,0.0,0.0,0.0,0.0,0.0,0.0,0.0,0.0,0.0,0.0,0.0,0.0,0.0,0.0,0.0,0.0,-1.5706,0.0,0.0,0.0,0.0,0.0,0.0,0.0,-1.4113,-1.4408,-1.4823,-1.5193,-1.5563,-1.615,-1.706,-1.8131,-1.864,-1.9595,-2.0541,-2.0909,-2.0017,-1.9096,-1.8971,-1.782,-1.6416,-1.4823,-1.3762,-1.2699,-1.1016,-1.0492,-1.0219,-1.0219,-1.0599,-1.0941,-1.1087,-1.1073,-1.1067,-1.1104,-1.1012,-1.0948,-1.0948,-1.0846,-1.0795,-1.0829,-1.1375,-1.1765,-1.1837,-1.3522,-1.4374,-1.4138,-1.5434,-1.5714,-1.5269,-1.5654,-1.5913,-1.5913,-1.5913,-1.5009,-1.3325,-1.3325,-1.2413,-1.0721,-1.0721,-1.0721,-1.0721,-1.0721,-1.0721,-1.0721,-1.0721,-1.0721,-1.0721,-1.0721,-1.0721,-1.0721,0.0,0.0,0.0,0.0,0.0,0.0,0.0,0.0,0.0,0.0,0.0,0.0,0.0,0.0,0.0,0.0,0.0,0.0,0.0,0.0,0.0,0.0,0.0,0.0,0.0,0.0,0.0,0.0,0.0,0.0,0.0,0.0,0.0,0.0,0.0,0.0,0.0,0.0,0.0,0.0,0.0,0.0,0.0,0.0,0.0,0.0,0.0,0.0,0.0,0.0,-1.6216,-1.5905,-1.662,-1.7054,-1.7435,-1.8156,-1.8233,-1.8206,-1.8722,-1.8754,-1.8584,-1.8732,-1.8116,-1.7161,-1.6344,-1.539,-1.412,-1.2162,-1.1433,-1.0867,-0.9585,-0.9449,-0.9581,-0.9646,-1.0053,-1.0456,-1.0734,-1.0775,-1.0822,-1.0955,-1.0955,-1.0921,-1.0856,-1.0829,-1.0792,-1.0724,-1.1654,-1.215,-1.2169,-1.3957,-1.4847,-1.4536,-1.5551,-1.5623,-1.4749,-1.4749,-1.4358,-1.3582,-1.4362,-1.384,-1.2153,-1.2153,-1.1633,-1.0721,-1.0721,-1.0721,-1.0721,-1.0721,-1.0721,-1.0721,-1.0721,-1.0721,-1.0721,-1.0721,-1.0721,-1.0721,0.0,0.0,0.0,0.0,0.0,0.0,0.0,0.0,0.0,0.0,0.0,0.0,0.0,0.0,0.0,0.0,0.0,0.0,0.0,0.0,0.0,0.0,0.0,0.0,0.0,0.0,0.0,0.0,0.0,0.0,0.0,0.0,0.0,0.0,0.0,0.0,0.0,0.0,0.0,0.0,0.0,0.0,0.0,0.0,0.0,0.0,0.0,0.0,0.0,0.0,-1.7853,-1.6653,-1.7495,-1.778,-1.8098,-1.8892,-1.8083,-1.7017,-1.7575,-1.6854,-1.5873,-1.5873,-1.5739,-1.5066,-1.3102,-1.2704,-1.2094,-1.0015,-0.9649,-0.9594,-0.9421,-0.9329,-0.9539,-0.9825,-0.9898,-1.0041,-1.0651,-1.0445,-1.0419,-1.0714,-1.085,-1.0873,-1.0761,-1.0853,-1.0863,-1.0731,-1.2422,-1.3232,-1.2939,-1.5086,-1.6047,-1.5539,-1.6105,-1.5322,-1.3325,-1.3582,-1.2804,-1.1111,-1.2541,-1.2413,-1.0721,-1.0721,-1.0721,-1.0721,-1.0721,-1.0721,-1.0721,-1.0721,-1.0721,-1.0721,-1.0721,-1.0721,-1.0721,-1.0721,-1.0721,-1.0721,0.0,0.0,0.0,0.0,0.0,0.0,0.0,0.0,0.0,0.0,-1.8652,0.0,0.0,0.0,0.0,0.0,0.0,0.0,0.0,0.0,0.0,0.0,0.0,0.0,0.0,0.0,0.0,0.0,0.0,0.0,0.0,0.0,0.0,0.0,0.0,0.0,0.0,0.0,0.0,0.0,0.0,0.0,0.0,0.0,0.0,0.0,0.0,0.0,0.0,0.0,-1.9398,-1.7849,-1.849,-1.8001,-1.7399,-1.775,-1.677,-1.5705,-1.5784,-1.572,-1.5763,-1.5763,-1.4619,-1.3361,-1.2704,-1.2155,-1.1561,-1.0763,-1.1376,-1.1981,-1.1699,-1.1943,-1.2302,-1.3017,-1.2156,-1.1689,-1.2613,-1.1431,-1.0568,-1.0873,-1.0819,-1.0799,-1.09,-1.0819,-1.0748,-1.0721,-1.1003,-1.1272,-1.1111,-1.286,-1.391,-1.3713,-1.5173,-1.5178,-1.3325,-1.4749,-1.4619,-1.2804,-1.3193,-1.2413,-1.0721,-1.0721,-1.0721,-1.0721,-1.0721,-1.0721,-1.0721,-1.0721,-1.0721,-1.0721,-1.0721,-1.0721,-1.0721,-1.0721,-1.0721,-1.0721,0.0,0.0,0.0,0.0,0.0,0.0,0.0,0.0,0.0,0.0,-1.9023,-1.9297,0.0,0.0,0.0,0.0,0.0,0.0,0.0,0.0,0.0,0.0,0.0,0.0,0.0,0.0,-1.4266,-1.4667,0.0,0.0,0.0,-1.462,-1.4509,-1.4509,0.0,0.0,0.0,0.0,0.0,0.0,0.0,0.0,0.0,0.0,0.0,0.0,0.0,0.0,0.0,0.0,-1.9568,-1.8203,-1.9098,-1.8965,-1.8633,-1.8903,-1.7207,-1.5428,-1.5428,-1.4317,-1.3034,-1.3062,-1.2403,-1.1714,-1.1848,-1.1616,-1.144,-1.1431,-1.1971,-1.2287,-1.2063,-1.2347,-1.2708,-1.3148,-1.2777,-1.2513,-1.2662,-1.1814,-1.1166,-1.0785,-1.0765,-1.0748,-1.0822,-1.1548,-1.2022,-1.2022,-1.2935,-1.2672,-1.085,-1.1501,-1.2413,-1.3325,-1.4101,-1.4619,-1.4619,-1.6431,-1.5913,-1.3325,-1.4232,-1.3325,-1.0721,-1.0721,-1.0721,-1.0721,-1.0721,-1.0721,-1.0721,-1.0721,-1.0721,-1.0721,-1.0721,-1.0721,-1.0721,-1.0721,-1.0721,-1.0721,0.0,0.0,0.0,0.0,0.0,0.0,0.0,-1.8447,-1.8779,-1.8779,-1.9521,-1.9973,-1.9735,-2.0285,-2.0625,0.0,0.0,0.0,0.0,0.0,0.0,0.0,0.0,0.0,0.0,0.0,0.0,-1.5379,-1.4661,0.0,0.0,0.0,0.0,0.0,-1.4088,-1.4215,0.0,0.0,0.0,0.0,0.0,-1.9901,0.0,0.0,0.0,0.0,0.0,0.0,0.0,0.0,-1.8969,-1.7943,-1.8998,-1.9298,-1.9218,-1.938,-1.7262,-1.4818,-1.4818,-1.278,-1.0548,-1.0429,-1.0371,-1.051,-1.104,-1.1322,-1.1749,-1.2188,-1.2671,-1.2931,-1.2754,-1.2924,-1.318,-1.3519,-1.3408,-1.3287,-1.304,-1.2677,-1.227,-1.178,-1.1743,-1.1762,-1.1762,-1.3062,-1.384,-1.384,-1.5139,-1.4749,-1.2025,-1.1762,-1.2413,-1.384,-1.4232,-1.5009,-1.6431,-1.8244,-1.7339,-1.3844,-1.5269,-1.4101,-1.0721,-1.0721,-1.0721,-1.0721,-1.0721,-1.0721,-1.0721,-1.0721,-1.0721,-1.0721,-1.0721,-1.0721,-1.0721,-1.0721,-1.07,-1.0677,0.0,0.0,0.0,0.0,0.0,0.0,0.0,-1.8701,-1.9228,-1.9228,-1.9971,-2.0178,-1.9219,-2.0334,-2.0751,0.0,0.0,0.0,0.0,0.0,0.0,0.0,0.0,0.0,0.0,0.0,0.0,-1.425,-1.3841,0.0,0.0,0.0,0.0,0.0,0.0,-1.4102,-1.4128,-1.4128,0.0,0.0,0.0,0.0,0.0,0.0,0.0,0.0,0.0,0.0,0.0,0.0,0.0,-1.6941,-1.7582,-1.7673,-1.744,-1.7233,-1.5057,-1.267,-1.267,-1.1456,-1.0107,-1.0093,-0.9985,-1.0109,-1.0956,-1.1787,-1.272,-1.3562,-1.4675,-1.5471,-1.5445,-1.5484,-1.5784,-1.6599,-1.53,-1.4652,-1.6098,-1.51,-1.4387,-1.5033,-1.5277,-1.5399,-1.5399,-1.5524,-1.5654,-1.5654,-1.5784,-1.5784,-1.5394,-1.5399,-1.5529,-1.5659,-1.7211,-1.8116,-1.8244,-1.9941,-1.9158,-1.5654,-1.5784,-1.4101,-1.0721,-1.0721,-1.0721,-1.0721,-1.0721,-1.0721,-1.0721,-1.0721,-1.0721,-1.0721,-1.0721,-1.0721,-1.0721,-1.0721,-1.0633,-1.0531,0.0,0.0,0.0,0.0,0.0,0.0,0.0,-1.874,-1.9287,-1.9287,-1.9488,-1.9534,-1.9362,-1.9413,-1.9221,0.0,0.0,0.0,0.0,0.0,0.0,0.0,0.0,0.0,0.0,0.0,-1.4055,-1.4349,-1.4229,0.0,0.0,0.0,0.0,0.0,0.0,-1.4496,-1.5054,-1.5054,0.0,0.0,0.0,0.0,0.0,0.0,0.0,0.0,0.0,0.0,-1.9446,-1.9175,-1.7905,-1.6453,-1.6506,-1.6866,0.0,-1.7673,-1.6345,-1.4826,-1.5219,-1.4166,-1.2756,-1.1665,-1.1308,-1.1314,-1.1997,-1.2312,-1.2997,-1.4697,-1.5439,-1.5832,-1.5832,-1.5832,-1.5945,-1.6299,0.0,0.0,-1.5435,-1.4922,-1.4669,-1.4941,-1.5018,-1.5352,-1.5878,-1.6818,-1.7859,-1.8896,-1.903,-1.903,-1.903,-1.7082,-1.6431,-1.7468,-1.8122,-1.9024,-2.0068,-1.9674,-1.825,-1.5913,-1.4879,-1.3062,-1.0721,-1.0721,-1.0721,-1.0721,-1.0721,-1.0721,-1.0721,-1.0721,-1.0721,-1.0721,-1.0721,-1.0721,-1.0711,-1.0616,-1.0544,-1.0487,0.0,0.0,0.0,0.0,0.0,0.0,-1.8008,-1.874,-1.9287,-1.9287,-1.9402,-1.9463,-1.9417,-1.8967,-1.8541,-1.806,0.0,0.0,0.0,0.0,0.0,0.0,0.0,0.0,0.0,0.0,-1.4275,-1.4649,-1.4476,-1.4629,0.0,0.0,-1.469,-1.4922,0.0,0.0,0.0,0.0,0.0,0.0,0.0,0.0,0.0,0.0,0.0,0.0,0.0,0.0,0.0,0.0,0.0,0.0,0.0,0.0,0.0,0.0,-1.711,-1.6321,-1.6798,-1.5932,-1.4534,-1.3419,-1.2798,-1.2675,-1.3386,-1.3184,-1.3407,-1.5441,-1.5832,-1.5832,-1.5832,-1.5832,-1.5832,0.0,0.0,-1.5616,-1.524,-1.5299,-1.5421,-1.568,-1.5769,-1.621,-1.7058,-1.8418,-1.9807,-2.0976,-2.1109,-2.1109,-2.1109,-1.8768,-1.7988,-1.9285,-1.9285,-1.9807,-2.1109,-1.9419,-1.7602,-1.5918,-1.4101,-1.2413,-1.0721,-1.0721,-1.0721,-1.0721,-1.0721,-1.0721,-1.0721,-1.0721,-1.0721,-1.0721,-1.0721,-1.0721,-1.07,-1.0548,-1.0466,-1.0415,0.0,0.0,0.0,0.0,0.0,0.0,0.0,-1.874,-1.9287,-1.9287,-2.0029,-2.0167,-1.9125,-1.9228,-1.9108,-1.8468,0.0,0.0,0.0,0.0,0.0,0.0,0.0,0.0,0.0,0.0,-1.4369,-1.4957,-1.4376,-1.4536,-1.5378,-1.4796,-1.5102,-1.6097,0.0,0.0,0.0,0.0,0.0,0.0,0.0,0.0,0.0,0.0,0.0,0.0,0.0,0.0,0.0,0.0,0.0,0.0,0.0,0.0,0.0,0.0,-1.6474,-1.6092,-1.6092,-1.5313,-1.4609,-1.4609,-1.3989,-1.3773,-1.4951,-1.4619,-1.4398,-1.5593,-1.5832,-1.5832,-1.5832,-1.5832,-1.5832,-1.5832,0.0,0.0,-1.6627,-1.6967,-1.7488,-1.8397,-1.8639,-1.9163,-2.0033,-2.0768,-2.1109,-2.1109,-2.1109,-2.1109,-2.1109,-2.1109,-2.1109,-2.1109,-2.1109,-2.1109,-2.1109,-1.9419,-1.7602,-1.5918,-1.4101,-1.2413,-1.0721,-1.0721,-1.0721,-1.0721,-1.0721,-1.0721,-1.0721,-1.0721,-1.0721,-1.0721,-1.0721,-1.0721,-1.07,-1.0548,-1.0405,-1.0283,0.0,0.0,0.0,0.0,0.0,0.0,0.0,-1.8486,-1.8955,-1.9248,-1.9156,-1.9049,-1.9009,-1.8802,-1.8965,-1.9595,0.0,0.0,0.0,0.0,0.0,0.0,0.0,0.0,0.0,0.0,-1.4376,-1.4963,-1.4576,-1.4836,-1.5678,-1.5097,-1.5527,-1.684,-1.6615,-1.7571,0.0,0.0,0.0,0.0,0.0,0.0,-2.3135,0.0,0.0,0.0,0.0,0.0,0.0,0.0,0.0,0.0,0.0,0.0,0.0,0.0,0.0,-1.6605,-1.6989,-1.6888,-1.6362,-1.5248,-1.4708,-1.4469,-1.4504,-1.423,-1.4274,-1.5553,-1.5832,-1.5832,-1.5832,-1.5832,-1.5899,-1.6099,-1.6132,0.0,-1.6386,-1.7007,-1.7709,-1.841,-1.9633,-2.0528,-2.0808,-2.1002,-2.1109,-2.1109,-2.1109,-2.1109,-2.1109,-2.1109,-2.1109,-2.1109,-2.1109,-2.1109,-2.1109,-1.8244,-1.6431,-1.5913,-1.2935,-1.1244,-1.0721,-1.0721,-1.0721,-1.0721,-1.0721,-1.0721,-1.0721,-1.0721,-1.0721,-1.0711,-1.0605,-1.0565,-1.0534,-1.0283,-1.0161,-1.0107,0.0,0.0,0.0,0.0,0.0,0.0,0.0,-1.8506,-1.8926,-1.9023,-1.908,-1.9177,-1.9357,-1.9444,-1.9808,-2.0717,0.0,0.0,0.0,0.0,0.0,0.0,0.0,0.0,0.0,-1.4195,-1.4482,-1.4963,-1.4776,-1.5348,-1.6466,-1.6057,-1.6795,-1.8475,-1.8353,-1.9222,0.0,0.0,0.0,0.0,0.0,0.0,-2.3047,0.0,0.0,0.0,0.0,0.0,0.0,0.0,0.0,0.0,0.0,0.0,0.0,0.0,-1.6375,-1.7085,0.0,-1.7415,-1.7364,-1.6393,-1.5768,-1.5469,-1.5273,-1.4851,-1.4848,-1.5635,-1.5832,-1.5832,-1.5832,-1.5832,-1.5885,-1.6079,-1.6106,-1.6186,-1.6406,-1.7007,-1.7722,-1.8557,-1.9913,-2.0775,-2.0775,-2.0975,-2.1109,-2.1109,-2.1109,-2.1109,-2.1109,-2.1109,-2.1109,-2.1109,-2.1109,-2.0722,-2.0068,-1.7339,-1.5524,-1.4879,-1.2022,-1.0721,-1.0721,-1.0721,-1.0721,-1.0721,-1.0721,-1.0687,0.0,-1.0633,-1.0602,-1.0544,-1.0449,-1.0412,-1.0382,-1.0141,-1.0049,-1.0029,0.0,0.0,0.0,0.0,0.0,0.0,0.0,0.0,0.0,0.0,-1.9756,-2.0371,-1.98,-2.0566,-2.1273,0.0,0.0,0.0,0.0,0.0,0.0,0.0,0.0,0.0,0.0,-1.4382,-1.4676,-1.4997,-1.504,-1.5945,-1.7639,-1.7356,-1.8443,-2.0716,-2.0716,-2.1154,0.0,0.0,0.0,0.0,0.0,0.0,0.0,0.0,0.0,0.0,0.0,0.0,0.0,0.0,0.0,0.0,0.0,0.0,0.0,0.0,0.0,0.0,0.0,-1.7143,-1.7455,-1.7455,-1.7048,-1.6647,-1.6647,-1.6219,0.0,-1.5832,-1.5832,-1.5838,-1.5852,-1.5845,-1.5845,-1.5885,-1.5892,-1.6079,-1.6627,-1.7034,-1.7709,-1.8878,-1.9773,-2.0281,-2.0234,-2.0768,-2.1109,-2.1109,-2.1109,-2.1109,-2.1109,-2.1109,-2.1109,-2.1109,-2.0976,-2.0195,-1.8506,-1.6695,-1.4879,-1.3325,-1.1501,-1.0721,-1.0721,-1.0721,-1.0721,-1.0721,-1.0721,-1.0639,-1.0507,-1.0497,-1.0415,-1.0293,-1.0273,-1.0263,-1.0246,-1.009,-1.0032,-1.0012,0.0,0.0,0.0,0.0,0.0,0.0,0.0,0.0,0.0,0.0,-1.9678,-1.9716,-1.8764,-1.9659,-2.003,0.0,0.0,0.0,0.0,0.0,0.0,0.0,0.0,0.0,0.0,-1.4482,-1.4776,-1.5297,-1.5694,-1.6294,-1.7182,-1.7478,-1.8768,-2.0716,-2.0716,-2.146,0.0,0.0,0.0,0.0,0.0,0.0,0.0,0.0,0.0,0.0,-2.0395,-1.9761,0.0,0.0,0.0,0.0,0.0,0.0,0.0,0.0,-1.8226,-1.7628,-1.7501,0.0,-1.6239,-1.6239,-1.6139,-1.6032,0.0,0.0,-1.5832,-1.5832,0.0,-1.5899,-1.6126,-1.5979,-1.5972,-1.6426,-1.65,-1.6547,-1.6687,-1.7749,-1.8858,-1.9813,-2.0501,-2.0728,-2.0274,-2.0768,-2.1109,-2.1109,-2.1109,-2.1109,-2.1109,-2.1109,-2.1109,-2.1109,-1.9807,-1.8896,-1.8506,-1.5394,-1.3713,-1.3325,-1.1501,-1.0721,-1.0721,-1.0721,-1.0721,-1.0721,-1.0721,-1.07,-1.0656,-1.0538,-1.0473,-1.0419,-1.0192,-1.0103,-1.0086,-0.993,-0.9876,-0.9988,0.0,0.0,0.0,0.0,0.0,0.0,0.0,0.0,0.0,0.0,0.0,0.0,0.0,0.0,0.0,0.0,0.0,0.0,0.0,0.0,0.0,0.0,0.0,0.0,-1.5057,-1.5704,-1.6211,-1.6477,-1.7098,-1.7684,-1.8425,-1.9073,-2.0137,-2.153,-2.1167,-2.1465,0.0,0.0,0.0,0.0,-1.9131,0.0,0.0,0.0,0.0,0.0,-1.9943,-1.9497,0.0,-1.7397,-1.6763,-1.6943,0.0,0.0,0.0,0.0,-1.9039,-1.8411,-1.787,-1.6756,-1.5832,-1.5832,-1.5832,-1.5832,-1.5832,0.0,0.0,0.0,0.0,0.0,-1.6039,-1.5939,-1.5932,-1.6253,-1.6533,-1.6901,-1.7448,-1.833,-1.9252,-2.0127,-2.0514,-2.0688,-2.0641,-2.0922,-2.1109,-2.1109,-2.1109,-2.1109,-2.1109,-2.1109,-2.0716,-1.9935,-1.825,-1.7339,-1.7339,-1.4619,-1.2935,-1.2153,-1.1111,-1.0721,-1.0721,-1.0721,-1.0721,-1.0721,-1.0721,-1.0643,-1.0514,-1.0429,-1.031,-1.0168,-1.0008,-0.9944,-0.9934,-1.0694,-1.0899,-1.114,0.0,0.0,0.0,0.0,0.0,0.0,0.0,0.0,0.0,0.0,0.0,0.0,0.0,0.0,0.0,0.0,0.0,0.0,0.0,0.0,0.0,0.0,0.0,-1.5966,-1.602,-1.7223,-1.7828,-1.7885,-1.8514,-1.9229,-1.9955,-2.0889,-2.164,-2.2169,-2.1396,-2.1025,0.0,0.0,-1.9222,-1.9131,-1.7863,0.0,0.0,0.0,0.0,0.0,0.0,0.0,0.0,-1.6986,-1.6886,-1.7811,-1.7988,0.0,0.0,0.0,0.0,0.0,-1.8041,-1.6791,-1.5885,-1.5838,-1.5832,-1.5832,-1.5832,0.0,0.0,0.0,0.0,0.0,0.0,-1.5892,-1.5872,-1.6005,-1.6526,-1.7341,-1.8577,-1.8971,-1.9399,-2.0147,-2.0314,-2.0528,-2.0935,-2.0796,-2.0716,-2.0716,-2.0456,-2.0329,-2.0329,-2.0329,-1.9674,-1.8116,-1.6431,-1.5529,-1.5529,-1.3709,-1.2153,-1.0721,-1.0721,-1.0707,-1.0687,-1.0711,-1.0697,-1.0656,-1.0677,-1.0661,-1.0651,-1.063,-1.0582,-1.0572,-1.0308,-1.0301,-1.066,-1.1736,-1.2333,-1.2813,0.0,0.0,0.0,0.0,0.0,0.0,0.0,0.0,0.0,0.0,0.0,0.0,0.0,0.0,0.0,0.0,0.0,0.0,0.0,0.0,0.0,0.0,-1.7357,-1.7155,-1.7462,-1.7687,-1.7951,-1.8169,-1.8895,-1.9348,-1.9542,-2.0693,-2.1089,-2.0916,-2.0142,-1.9761,-1.967,-1.8503,-1.7963,-1.787,-1.6574,0.0,0.0,0.0,0.0,0.0,0.0,0.0,0.0,-1.8425,-1.7978,-1.8327,-1.935,0.0,0.0,0.0,0.0,0.0,-1.788,-1.6954,-1.6146,-1.5892,-1.5832,-1.5832,-1.5832,0.0,0.0,0.0,0.0,0.0,0.0,-1.6166,-1.6072,-1.6827,-1.7448,-1.8337,-1.9766,-2.0,-2.008,-2.0214,-2.0668,-2.0815,-2.0408,-1.9531,-1.8896,-1.8896,-1.7468,-1.6695,-1.6695,-1.6695,-1.6565,-1.6302,-1.4619,-1.3713,-1.3713,-1.2025,-1.0982,-1.0721,-1.0721,-1.0653,-1.0531,-1.066,-1.0585,-1.0354,-1.0473,-1.1191,-1.2381,-1.2109,-1.2869,-1.3882,-1.2393,-1.2693,-1.377,-1.2573,-1.3048,-1.448,0.0,0.0,0.0,0.0,0.0,0.0,0.0,0.0,0.0,0.0,0.0,0.0,0.0,0.0,0.0,0.0,0.0,0.0,0.0,0.0,0.0,-2.0334,-1.9752,-1.9102,-1.849,-1.8985,-1.9389,-1.9489,-2.0114,-2.0273,-2.0047,-2.0417,-2.0368,-1.9966,-1.8975,-1.8503,-1.8411,-1.7217,-1.6662,-1.6662,0.0,0.0,0.0,0.0,0.0,0.0,0.0,0.0,0.0,0.0,-1.8665,-1.9264,-1.9867,0.0,0.0,0.0,0.0,0.0,-1.7538,-1.6727,-1.5999,-1.5865,-1.5952,-1.6025,-1.5865,-1.5832,0.0,0.0,0.0,0.0,0.0,-1.638,-1.67,-1.7909,-1.8337,-1.8871,-1.986,-1.9005,-1.8532,-1.8697,-1.8202,-1.7856,-1.7897,-1.734,-1.7082,-1.7082,-1.6302,-1.5913,-1.5913,-1.5913,-1.5529,-1.4488,-1.3713,-1.2804,-1.1894,-1.1111,-1.0677,-1.0595,-1.0521,-1.0446,-1.0382,-1.0453,-1.0409,-1.041,-1.1224,-1.2039,-1.2614,-1.3382,-1.413,-1.4615,-1.3803,-1.4004,-1.4604,-1.4713,-1.5784,-1.7337,0.0,0.0,0.0,0.0,0.0,0.0,0.0,0.0,0.0,0.0,0.0,0.0,0.0,0.0,0.0,0.0,0.0,0.0,0.0,0.0,-2.2373,-2.2041,-2.1621,-2.0713,-1.9371,-2.0167,-2.0566,-2.0566,-2.0908,-2.0837,-2.0464,-1.9582,-1.9146,-1.9047,-1.777,-1.7225,-1.7225,-1.6204,-1.6015,-1.6197,0.0,0.0,0.0,0.0,0.0,0.0,0.0,0.0,0.0,0.0,0.0,0.0,0.0,0.0,0.0,-1.9614,-1.8378,-1.6967,-1.6853,-1.6323,-1.5832,-1.5832,0.0,-1.6126,-1.5972,-1.5985,-1.6052,0.0,0.0,0.0,-1.6446,-1.6714,-1.7355,-1.8704,-1.9038,-1.9236,-1.952,-1.8196,-1.7236,-1.7247,-1.6034,-1.5418,-1.5883,-1.5524,-1.5265,-1.5265,-1.4879,-1.473,-1.4679,-1.4674,-1.403,-1.2739,-1.2608,-1.1984,-1.0717,-1.0683,-1.0609,-1.049,-1.0382,-1.0293,-1.0226,-1.0263,-1.0492,-1.0796,-1.2069,-1.2969,-1.3517,-1.4842,-1.547,-1.5671,-1.5316,-1.5192,-1.5311,-1.6973,-1.8286,-1.9366,0.0,0.0,0.0,0.0,0.0,0.0,0.0,0.0,0.0,0.0,0.0,0.0,0.0,0.0,0.0,0.0,0.0,0.0,0.0,0.0,-2.25,-2.2471,-2.206,-2.1435,-2.0498,-2.0566,-2.0566,-2.0566,-2.0596,-2.0419,-2.003,-1.7857,-1.7213,-1.7777,-1.648,-1.592,-1.592,-1.5825,-1.648,-1.7598,-1.7598,0.0,0.0,0.0,0.0,0.0,0.0,0.0,0.0,0.0,0.0,0.0,0.0,0.0,-1.7564,-1.7904,-1.7085,-1.6045,-1.5686,-1.5698,-1.5832,-1.5832,-1.5845,-1.5925,-1.6186,-1.6446,-1.672,-1.7001,-1.7268,-1.7382,-1.7134,-1.7321,-1.7829,-1.8771,-1.9379,-1.9419,-1.8704,-1.8412,-1.7769,-1.625,-1.5868,-1.5878,-1.5913,-1.4488,-1.3451,-1.3451,-1.2022,-1.1048,-1.09,-1.0893,-1.0893,-1.0763,-1.0763,-1.0706,-1.0717,-1.0578,-1.0504,-1.049,-1.048,-1.0331,-1.007,-1.0215,-1.0988,-1.2026,-1.2319,-1.398,-1.6638,-1.6756,-1.7701,-1.8887,-1.7443,-1.685,-1.6968,-1.8642,-1.9249,-1.9366,0.0,0.0,0.0,0.0,0.0,0.0,0.0,0.0,0.0,0.0,0.0,0.0,0.0,0.0,0.0,0.0,0.0,0.0,0.0,0.0,-2.2402,-2.2139,-2.1973,-2.1602,-2.0996,-2.0713,-2.0566,-2.0566,-2.0099,-1.9168,-1.7889,-1.7143,-1.669,-1.648,-1.6015,-1.6197,-1.6943,-1.6943,-1.7677,-1.8864,-1.8864,-1.9588,0.0,0.0,0.0,0.0,0.0,0.0,0.0,0.0,-1.855,0.0,0.0,0.0,-1.6304,-1.6428,-1.5871,-1.5071,-1.4878,-1.5197,-1.5558,-1.5558,-1.5698,0.0,0.0,-1.6627,-1.674,-1.6847,-1.7248,-1.7549,-1.7442,-1.7969,-1.8584,-1.9112,-1.9846,-1.9892,-1.8703,-1.7597,-1.6302,-1.4488,-1.332,-1.2672,-1.2672,-1.2022,-1.1633,-1.1633,-1.102,-1.0555,-1.0493,-1.0409,-1.0361,-1.0361,-1.0361,-1.0938,-1.2118,-1.195,-1.2549,-1.3669,-1.2312,-1.1643,-1.1518,-1.2572,-1.3197,-1.377,-1.4804,-1.5866,-1.7085,-1.8046,-1.8887,-1.9366,-1.8765,-1.8525,-1.8525,-1.9127,-1.9366,-1.9366,0.0,0.0,0.0,0.0,0.0,0.0,0.0,0.0,0.0,0.0,0.0,0.0,0.0,0.0,0.0,0.0,0.0,0.0,0.0,-2.1777,-2.21,-2.209,-2.1953,-2.1748,-2.1445,-2.0668,-2.0213,-2.0079,-1.8806,-1.7684,-1.6595,-1.6475,-1.6352,-1.6386,-1.6386,-1.7124,-1.8234,-1.8234,-1.8956,-2.0034,-2.0034,-2.0755,0.0,0.0,0.0,0.0,0.0,0.0,0.0,0.0,0.0,0.0,0.0,0.0,0.0,0.0,-1.5043,-1.4402,-1.4496,-1.4883,-1.5284,-1.5378,0.0,0.0,-1.6827,-1.6981,-1.7041,-1.7228,-1.7115,-1.6987,-1.7161,-1.7541,-1.7972,-1.8436,-1.9714,-2.0002,-1.8607,-1.6904,-1.5265,-1.3451,-1.1762,-1.0721,-1.0721,-1.0721,-1.07,-1.0653,-1.0551,-1.0449,-1.0358,-1.0259,-1.0458,-1.0955,-1.0458,-1.1277,-1.3712,-1.3078,-1.3577,-1.5474,-1.4365,-1.3713,-1.3219,-1.4226,-1.4842,-1.5429,-1.6492,-1.7325,-1.7806,-1.9004,-1.9366,-1.9366,-1.9366,-1.9366,-1.9366,-1.9366,-1.9366,-1.9366,0.0,0.0,0.0,0.0,0.0,0.0,0.0,0.0,0.0,0.0,0.0,0.0,0.0,0.0,0.0,0.0,0.0,0.0,-2.1172,-2.123,-2.1621,-2.2471,-2.2109,-2.1885,-2.1894,-2.0428,-1.9435,-1.8966,-1.6764,-1.604,-1.6595,-1.5486,-1.6001,-1.7692,-1.7692,-1.8411,-1.9497,-1.9488,-2.0215,-2.1293,-2.1293,-2.2031,-2.296,0.0,0.0,0.0,0.0,0.0,0.0,0.0,0.0,0.0,0.0,0.0,0.0,0.0,-1.4894,-1.4155,-1.4436,-1.4736,-1.503,-1.5317,0.0,0.0,-1.7382,-1.7582,-1.7749,-1.8364,-1.6907,-1.5809,-1.6204,-1.589,-1.5802,-1.6559,-1.8676,-1.9704,-1.8214,-1.6802,-1.5265,-1.3447,-1.1762,-1.0717,-1.0717,-1.0717,-1.0656,-1.05,-1.049,-1.0361,-1.0066,-1.0046,-1.0783,-1.2373,-1.0904,-1.1596,-1.5003,-1.351,-1.351,-1.5127,-1.6497,-1.6507,-1.5044,-1.4705,-1.5548,-1.6968,-1.6968,-1.7923,-1.9366,-1.9366,-1.9366,-1.9366,-1.9366,-1.9366,-1.9366,-1.9366,-1.9366,-1.9366,0.0,0.0,0.0,0.0,0.0,0.0,0.0,0.0,0.0,0.0,0.0,0.0,0.0,0.0,0.0,0.0,0.0,0.0,-2.0752,-2.1064,-2.1484,-2.2041,-2.1071,-2.1137,-2.2324,-2.0848,-1.8993,-1.6956,-1.6521,-1.66,-1.7019,-1.6916,-1.7674,-1.8956,-1.8956,-1.9687,-2.0764,-2.0474,-2.1235,-2.2463,-2.1355,-2.1235,-2.1756,0.0,0.0,0.0,0.0,0.0,0.0,0.0,0.0,0.0,0.0,0.0,0.0,0.0,-1.4477,-1.4362,-1.4249,-1.4429,-1.4723,-1.5017,0.0,-1.6446,0.0,-1.7281,0.0,-1.6845,-1.7058,-1.6689,-1.4772,-1.5417,-1.5971,-1.5029,-1.5882,-1.6453,-1.6193,-1.4906,-1.3638,-1.313,-1.159,-1.0561,-1.0561,-1.0561,-1.0497,-1.0354,-1.0344,-1.0256,-1.0059,-0.9947,-1.0612,-1.218,-1.1817,-1.3229,-1.6602,-1.6074,-1.6765,-1.8606,-1.8752,-1.7909,-1.6622,-1.7575,-1.8292,-1.8648,-1.8648,-1.9004,-1.9366,-1.9366,-1.9366,-1.9366,-1.9366,-1.9366,-1.9366,-1.9366,-1.9366,-1.9366,0.0,0.0,0.0,0.0,0.0,0.0,0.0,0.0,0.0,0.0,0.0,0.0,0.0,0.0,0.0,0.0,0.0,0.0,0.0,0.0,-2.0989,-2.1154,-2.0382,-2.0395,-2.1167,-2.0507,-1.9221,-1.7266,-1.7336,-1.7634,-1.7971,-1.8198,-1.9001,-2.0215,-2.0215,-2.0854,-2.2031,-2.1612,-2.2034,-2.2921,-2.1323,-2.095,-2.1203,0.0,0.0,0.0,0.0,0.0,0.0,0.0,0.0,0.0,0.0,0.0,0.0,-1.4449,-1.4396,-1.4362,-1.4422,-1.4563,-1.4796,-1.5204,-1.5879,-1.6567,-1.7041,-1.7515,-1.7597,-1.6619,-1.6446,-1.5706,-1.3441,-1.3864,-1.4384,-1.3427,-1.4277,-1.5095,-1.5104,-1.3941,-1.2936,-1.294,-1.1422,-1.0409,-1.0409,-1.0409,-1.0348,-1.0202,-1.0188,-1.0367,-1.0819,-1.0834,-1.1732,-1.3994,-1.3526,-1.4779,-1.8164,-1.7403,-1.7966,-1.9887,-1.9412,-1.8861,-1.8052,-1.8966,-1.9366,-1.9359,-1.9239,-1.9192,-1.9192,-1.9192,-1.9192,-1.9205,-1.9325,-1.9366,-1.9366,-1.9366,-1.9366,-1.9366,0.0,0.0,0.0,0.0,0.0,0.0,0.0,0.0,0.0,0.0,0.0,0.0,0.0,0.0,0.0,0.0,0.0,0.0,0.0,0.0,-2.0451,-2.0177,-2.0277,-1.9876,-1.9179,-1.998,-2.0057,-1.9276,-1.8821,-1.8812,-1.9226,-1.9259,-2.005,-2.1425,-2.1462,-2.2031,-2.3105,-2.2685,-2.2754,-2.2921,-2.119,-2.0712,-2.0873,-1.8509,0.0,0.0,0.0,0.0,0.0,0.0,0.0,0.0,0.0,0.0,-1.4858,-1.511,-1.4717,-1.4412,-1.4865,-1.4943,-1.5104,-1.5685,-1.6313,-1.6874,-1.7201,-1.811,-1.8477,-1.714,-1.5445,-1.3868,-1.2221,-1.1889,-1.1833,-1.1766,-1.3278,-1.4508,-1.4746,-1.3482,-1.275,-1.2879,-1.1507,-1.051,-1.051,-1.051,-1.0444,-1.0408,-1.0287,-1.0834,-1.2346,-1.2453,-1.388,-1.685,-1.5548,-1.6256,-1.9325,-1.7886,-1.7873,-1.9285,-1.9011,-1.9025,-1.9285,-1.9319,-1.9325,-1.9312,-1.9011,-1.8885,-1.8885,-1.8911,-1.8925,-1.8951,-1.9225,-1.9345,-1.9366,-1.9339,-1.9345,-1.9366,0.0,0.0,0.0,0.0,0.0,0.0,0.0,0.0,0.0,0.0,0.0,0.0,0.0,0.0,0.0,0.0,0.0,0.0,0.0,0.0,-2.0878,-2.1495,-2.2064,-2.1465,-1.9472,-2.1465,-2.1905,-2.0811,-1.963,-1.9502,-2.0367,-2.0669,-2.1332,-2.2294,-2.2533,-2.2862,-2.3105,-2.2685,-2.2754,-2.2892,-2.0017,-1.9191,-1.9398,-1.7606,-1.6981,0.0,0.0,0.0,0.0,0.0,0.0,0.0,-1.7869,-1.7898,-1.74,-1.6346,-1.5855,-1.5526,-1.4831,-1.4783,0.0,-1.5685,-1.662,-1.7535,-1.8076,-1.8397,-1.8014,-1.6053,-1.5765,-1.4955,-1.2161,-1.1689,-1.1454,-1.0113,-1.0399,-1.1236,-1.2526,-1.1496,-1.1083,-1.2312,-1.2192,-1.1945,-1.1945,-1.1945,-1.236,-1.349,-1.2534,-1.2538,-1.4018,-1.4123,-1.495,-1.6968,-1.6609,-1.7346,-1.9018,-1.8663,-1.8551,-1.8677,-1.8617,-1.8617,-1.8691,-1.8918,-1.9018,-1.8998,-1.8711,-1.8584,-1.8604,-1.8831,-1.8925,-1.8931,-1.8991,-1.9158,-1.9339,-1.9105,-1.9165,-1.9366,0.0,0.0,0.0,0.0,0.0,0.0,0.0,0.0,0.0,0.0,0.0,0.0,0.0,0.0,0.0,0.0,0.0,0.0,0.0,0.0,0.0,-2.0959,-2.1795,-2.1676,-2.0395,-2.2138,-2.2669,-2.1839,-2.1094,-2.1094,-2.1811,-2.183,-2.2187,-2.2822,-2.3047,-2.3135,-2.3096,-2.248,-2.2186,-2.1851,-1.9733,-1.8546,-1.7881,-1.7007,-1.6426,-1.5931,-1.6088,0.0,0.0,0.0,0.0,0.0,0.0,0.0,-1.8464,-1.7049,-1.6541,-1.6235,-1.5327,0.0,0.0,-1.6066,-1.6814,-1.7495,-1.7956,-1.7949,-1.7582,-1.6543,-1.6278,-1.5507,-1.3013,-1.2675,-1.2452,-1.1655,-1.1508,-1.1919,-1.2716,-1.2395,-1.2341,-1.3177,-1.3389,-1.3448,-1.3448,-1.3448,-1.3764,-1.449,-1.387,-1.4077,-1.5392,-1.5492,-1.6147,-1.7659,-1.7767,-1.8052,-1.8718,-1.8718,-1.8637,-1.849,-1.8343,-1.8277,-1.829,-1.8584,-1.8718,-1.8698,-1.8404,-1.8277,-1.829,-1.8444,-1.8591,-1.8731,-1.8871,-1.9105,-1.9352,-1.9192,-1.9232,-1.9366,0.0,0.0,0.0,0.0,0.0,0.0,0.0,0.0,0.0,0.0,0.0,0.0,0.0,0.0,0.0,0.0,0.0,0.0,0.0,0.0,0.0,-2.0355,-2.1167,-2.1596,-2.1569,-2.2513,-2.2861,-2.251,-2.2441,-2.2617,-2.3027,-2.2676,-2.2705,-2.3037,-2.2833,-2.2775,-2.2717,-2.1967,-2.1306,-2.047,-1.9516,-1.8212,-1.6673,-1.6279,-1.5746,-1.5164,-1.5212,-1.592,-1.6775,-1.6923,0.0,0.0,0.0,0.0,-1.9309,-1.7699,-1.732,-1.7133,-1.6111,0.0,-1.5685,-1.656,-1.6967,-1.7215,-1.7455,-1.7321,-1.7215,-1.7462,-1.6723,-1.5612,-1.4254,-1.3805,-1.358,-1.358,-1.361,-1.3635,-1.3635,-1.3939,-1.4079,-1.4079,-1.46,-1.4841,-1.4841,-1.4841,-1.4959,-1.52,-1.5077,-1.546,-1.6756,-1.6864,-1.734,-1.8497,-1.849,-1.8464,-1.841,-1.841,-1.839,-1.833,-1.8083,-1.7969,-1.7976,-1.8223,-1.8364,-1.8397,-1.8096,-1.7969,-1.7969,-1.8023,-1.8223,-1.8517,-1.8751,-1.9058,-1.9359,-1.9312,-1.9325,-1.9366,0.0,0.0,0.0,0.0,0.0,0.0,0.0,0.0,0.0,0.0,0.0,0.0,0.0,0.0,0.0,0.0,0.0,0.0,-2.0,0.0,0.0,-2.1617,-2.2428,-2.2872,-2.2862,-2.2697,-2.2568,-2.251,-2.2148,-2.2187,-2.2598,-2.2539,-2.2539,-2.2522,-2.1873,-2.1569,-2.1542,-2.1094,-2.0236,-1.9247,-1.8515,-1.7484,-1.6212,-1.4958,-1.4937,-1.5624,-1.5896,-1.6684,-1.7665,-1.8051,-1.887,0.0,0.0,0.0,-2.11,-1.8835,-1.8956,-1.9203,-1.6774,0.0,-1.5985,0.0,-1.7121,-1.7161,-1.7201,-1.7181,-1.7161,-1.7201,-1.6287,-1.5409,-1.5194,-1.4218,-1.335,-1.335,-1.3407,-1.3537,-1.3537,-1.3718,-1.3735,-1.3735,-1.502,-1.5846,-1.5846,-1.5846,-1.6535,-1.7914,-1.6654,-1.663,-1.8203,-1.8203,-1.8302,-1.849,-1.849,-1.837,-1.811,-1.8103,-1.7969,-1.7702,-1.7662,-1.7642,-1.7649,-1.7682,-1.7849,-1.809,-1.7776,-1.7642,-1.7662,-1.7936,-1.8223,-1.8497,-1.8537,-1.8885,-1.9339,-1.9078,-1.9145,-1.9366,0.0,0.0,0.0,0.0,0.0,0.0,0.0,0.0,0.0,0.0,0.0,0.0,0.0,0.0,0.0,-1.8945,-1.9316,-1.9668,-1.9902,-2.0928,-2.1631,-2.1875,-2.2461,-2.29,-2.3135,-2.2734,-2.2402,-2.2158,-2.1728,-2.139,-2.109,-2.109,-2.1332,-2.177,-2.0775,-2.0305,-2.0262,-1.9677,-1.8821,-1.7802,-1.7695,-1.6589,-1.5078,-1.5027,-1.4894,-1.4831,-1.4965,-1.5676,-1.6687,-1.6836,-1.7768,-1.8776,-1.8237,0.0,0.0,0.0,-1.8599,-1.8673,-1.6382,-1.5889,-1.6172,-1.656,-1.666,-1.67,-1.686,-1.6774,-1.6707,-1.6867,-1.6477,-1.6194,-1.6346,-1.607,-1.5647,-1.5249,-1.5541,-1.5761,-1.5612,-1.5837,-1.6097,-1.6097,-1.6907,-1.7458,-1.7458,-1.7458,-1.7687,-1.849,-1.7798,-1.7616,-1.8141,-1.8243,-1.8163,-1.7983,-1.7822,-1.7756,-1.7789,-1.7462,-1.7308,-1.7341,-1.7341,-1.7341,-1.7341,-1.7341,-1.7502,-1.7776,-1.7642,-1.7582,-1.7595,-1.7729,-1.7969,-1.8243,-1.8243,-1.8604,-1.9085,-1.8791,-1.8865,-1.9118,0.0,0.0,0.0,0.0,0.0,0.0,0.0,0.0,0.0,0.0,0.0,0.0,0.0,0.0,0.0,0.0,-1.8936,-1.9346,-1.9883,-2.0742,-2.1387,-2.1709,-2.2227,-2.2607,-2.2812,-2.251,-2.2148,-2.1719,-2.1396,-2.0938,-2.0475,-1.9965,-2.0114,-2.0755,-1.9579,-1.9039,-1.8999,-1.8282,-1.7288,-1.636,-1.6708,-1.5726,-1.4159,-1.4885,-1.4906,-1.4496,-1.4496,-1.522,-1.6026,-1.5779,-1.6692,-1.7714,-1.7195,-1.8419,0.0,0.0,0.0,-1.7744,-1.6245,0.0,-1.5992,-1.6219,-1.6273,-1.6333,-1.6547,-1.6426,-1.6333,-1.6553,-1.66,-1.666,-1.6887,-1.7168,-1.7215,-1.678,-1.7074,-1.7281,-1.7068,-1.7422,-1.7736,-1.7809,-1.8016,-1.815,-1.815,-1.815,-1.815,-1.815,-1.8083,-1.7969,-1.7829,-1.7749,-1.7602,-1.7368,-1.7148,-1.7141,-1.7355,-1.6927,-1.682,-1.7041,-1.7041,-1.7041,-1.7041,-1.7041,-1.7154,-1.7361,-1.7442,-1.7515,-1.7582,-1.7582,-1.7762,-1.805,-1.805,-1.8364,-1.8784,-1.8571,-1.8631,-1.8818,0.0,0.0,0.0,0.0,0.0,0.0,0.0,0.0,0.0,0.0,0.0,0.0,-1.9336,-1.9287,-1.9111,-1.8672,-1.8592,-1.9023,-1.9863,-2.0742,-2.125,-2.1269,-2.207,0.0,-2.1963,-2.1934,-2.1709,-2.1269,-2.125,-2.1374,-2.1719,-1.9817,-1.9125,-1.9588,-1.8319,-1.7777,-1.774,-1.6967,-1.608,-1.515,-1.5313,-1.4878,-1.4055,-1.3768,-1.4475,-1.5621,-1.5621,-1.6273,-1.709,-1.6026,-1.6445,-1.7172,-1.64,-1.777,-1.9561,0.0,0.0,0.0,-1.7166,-1.609,-1.5231,-1.6066,-1.6273,-1.6279,-1.6293,-1.6286,-1.6279,-1.6293,-1.6293,-1.6299,-1.6319,-1.6553,-1.674,-1.6707,-1.6734,-1.6747,-1.6734,-1.6754,-1.6881,-1.7161,-1.7215,-1.7221,-1.7221,-1.7221,-1.7221,-1.7221,-1.6961,-1.6914,-1.7181,-1.6927,-1.6767,-1.6754,-1.6734,-1.6734,-1.6747,-1.672,-1.6714,-1.6727,-1.6727,-1.6727,-1.6727,-1.6727,-1.674,-1.6767,-1.7048,-1.7328,-1.7582,-1.7582,-1.7762,-1.805,-1.805,-1.8237,-1.851,-1.8497,-1.8504,-1.851,0.0,0.0,0.0,0.0,0.0,0.0,0.0,0.0,0.0,0.0,0.0,0.0,0.0,-1.9121,-1.9004,-1.8301,-1.874,-1.9297,-1.9873,-2.0469,-2.0937,-2.1221,-2.1797,-2.2168,-2.2285,-2.2021,-2.1807,-2.165,-2.1084,-2.0617,-2.0273,-1.9561,-1.9178,-1.8979,-1.7208,-1.648,-1.6452,-1.6035,-1.5588,-1.5275,-1.4902,-1.4597,-1.4329,-1.4041,-1.4232,-1.465,-1.465,-1.4901,-1.5228,-1.4817,-1.4901,-1.5325,-1.5755,-1.6451,-1.7105,-1.7022,-1.7268,-1.7271,-1.5857,-1.5376,-1.5317,-1.5631,-1.5852,-1.5985,-1.5985,-1.5985,-1.5985,-1.5985,-1.5985,-1.5985,-1.5985,-1.638,-1.658,-1.6206,-1.646,-1.664,-1.6453,-1.6587,-1.6747,-1.6854,-1.6867,-1.6867,-1.6867,-1.6867,-1.6867,-1.6867,-1.6767,-1.6754,-1.6854,-1.6767,-1.6707,-1.6707,-1.6526,-1.6333,-1.6146,-1.6333,-1.6426,-1.6426,-1.6426,-1.6426,-1.6426,-1.6426,-1.6426,-1.6433,-1.654,-1.6754,-1.7021,-1.7021,-1.7201,-1.7448,-1.7261,-1.7602,-1.8156,-1.7769,-1.7876,-1.8203,0.0,0.0,0.0,0.0,0.0,0.0,0.0,0.0,0.0,-1.8652,0.0,0.0,0.0,0.0,-1.9544,-1.8963,-1.9574,-1.9979,-1.9893,-2.0322,-2.0703,-2.0996,-2.1572,-2.1943,-2.208,-2.1953,-2.1816,-2.167,-2.0928,-2.0378,-1.997,-1.9625,-1.9291,-1.9121,-1.741,-1.6494,-1.6292,-1.5902,-1.5602,-1.5281,-1.4922,-1.474,-1.4629,-1.4235,-1.4208,-1.4369,-1.4269,-1.4229,-1.4215,-1.4122,-1.4088,-1.425,-1.5379,-1.5944,-1.6191,-1.5779,-1.6353,-1.6729,-1.5002,-1.5062,-1.5666,-1.5965,-1.6437,-1.6772,-1.6772,-1.6944,-1.6994,-1.6886,-1.6584,-1.648,-1.648,-1.6436,-1.6279,-1.5892,-1.6159,-1.6346,-1.6152,-1.6293,-1.6446,-1.6547,-1.656,-1.656,-1.656,-1.656,-1.656,-1.656,-1.6466,-1.6453,-1.6553,-1.6466,-1.6413,-1.6413,-1.6226,-1.6032,-1.5832,-1.6025,-1.6126,-1.6126,-1.6126,-1.6126,-1.6126,-1.6126,-1.6126,-1.6126,-1.6126,-1.6346,-1.6707,-1.6707,-1.682,-1.6981,-1.678,-1.7074,-1.7562,-1.7261,-1.7402,-1.7762,0.0,0.0,0.0,0.0,0.0,0.0,0.0,0.0,-1.9131,-1.8711,0.0,0.0,0.0,0.0,0.0,-2.0846,-2.1176,-2.1009,-2.0007,-2.0332,-2.0566,-2.0566,-2.1416,-2.1689,-2.126,-2.168,-2.1689,0.0,0.0,0.0,0.0,-1.9942,-1.965,-2.0018,-1.8734,-1.789,-1.7199,-1.6817,-1.6006,-1.5075,-1.526,-1.519,-1.4903,-1.4322,-1.4449,-1.4903,-1.4609,-1.4509,-1.4476,-1.4182,-1.4095,-1.4257,-1.5304,-1.6437,-1.709,-1.5944,-1.5696,-1.5521,0.0,0.0,0.0,-1.7056,-1.8029,-1.8758,-1.8766,-1.9126,-1.9364,-1.8856,-1.817,-1.7677,-1.7692,-1.6669,-1.5832,-1.5832,-1.5832,-1.5832,-1.5832,-1.5832,-1.5939,-1.6226,-1.6259,-1.6259,-1.6259,-1.6259,-1.6259,-1.6259,-1.5992,-1.5952,-1.6246,-1.5985,-1.5832,-1.5832,-1.5832,-1.5832,-1.5832,-1.5832,-1.5832,-1.5832,-1.5832,-1.5832,-1.5832,-1.5832,-1.5832,-1.5832,-1.5832,-1.6152,-1.668,-1.668,-1.6687,-1.6693,-1.6687,-1.6693,-1.674,-1.7021,-1.7134,-1.7188,0.0,0.0,0.0,0.0,0.0,0.0,0.0,0.0,-2.0083,0.0,0.0,0.0,-2.0715,-2.1376,-2.1926,-2.2291,-2.179,-2.1429,-2.1453,-2.0864,-2.0566,-2.0566,-2.1416,-2.1826,-2.1709,-2.2119,-2.2129,0.0,0.0,0.0,0.0,0.0,0.0,-2.0809,-1.9623,-1.9002,-1.887,-1.8455,-1.7571,-1.648,-1.6647,-1.5963,-1.4923,-1.4543,-1.4369,-1.4315,-1.4235,-1.4342,-1.4476,-1.4182,-1.4229,-1.4448,-1.448,-1.5794,-1.6935,-1.5061,-1.5054,-1.5636,-1.5398,0.0,0.0,0.0,0.0,0.0,-1.8709,-1.8652,-1.8483,-1.8102,-1.7598,-1.7018,-1.6438,-1.6015,-1.5832,-1.5832,-1.5832,-1.5832,-1.5832,-1.5832,-1.5858,-1.5945,-1.5952,-1.5952,-1.5952,-1.5952,-1.5952,-1.5952,-1.5879,-1.5865,-1.5945,-1.5872,-1.5832,-1.5832,-1.5832,-1.5832,-1.5832,-1.5832,-1.5832,-1.5832,-1.5832,-1.5832,-1.5832,-1.5832,-1.5832,-1.5832,-1.5832,-1.5919,-1.6072,-1.6072,-1.6199,-1.6373,-1.6152,-1.6333,-1.6693,-1.6567,-1.6787,-1.7161,0.0,0.0,0.0,0.0,0.0,0.0,0.0,-2.1435,-2.1178,0.0,0.0,0.0,-2.2173,-2.3317,-2.3931,-2.3802,-2.2883,-2.2189,-2.2006,-2.1155,-2.0566,-2.0566,-2.124,-2.1699,-2.1885,-2.2129,0.0,0.0,0.0,0.0,0.0,0.0,0.0,0.0,-2.0203,-1.9944,-1.999,-1.9883,-1.8944,-1.764,-1.7873,-1.7213,-1.6084,-1.6155,-1.5609,-1.4885,-1.5269,-1.5163,-1.4843,-1.4549,-1.4563,-1.4629,-1.4215,-1.5077,-1.589,-1.4537,-1.4894,-1.5696,-1.5696,-1.6495,-1.7507,-1.8337,0.0,0.0,-1.975,-1.9759,-1.9624,-1.9217,-1.833,-1.7466,-1.6956,-1.6195,-1.5651,-1.5651,-1.5752,-1.5832,-1.5832,-1.5832,-1.5832,-1.5832,-1.5832,-1.5832,-1.5832,-1.5832,-1.5832,-1.5832,-1.5832,-1.5832,-1.5832,-1.5832,-1.5832,-1.5832,-1.5832,-1.5832,-1.5832,-1.5832,-1.5832,-1.5832,-1.5832,-1.5832,-1.5832,-1.5832,-1.5832,-1.5832,-1.5832,-1.5832,-1.5832,-1.5832,-1.5932,-1.6072,-1.5899,-1.6039,-1.6333,-1.6293,-1.6486,-1.682,0.0,0.0,0.0,0.0,0.0,0.0,0.0,-2.2906,-2.2488,0.0,-2.2009,-2.2496,-2.4336,-2.5704,-2.6164,-2.5229,-2.4264,-2.3294,-2.2403,-2.1375,-2.0789,-2.0789,-2.1075,-2.1416,-2.1807,-2.1904,0.0,0.0,0.0,0.0,0.0,0.0,0.0,0.0,0.0,-2.0566,-2.0596,-2.0986,-2.0227,-1.8727,-1.902,-1.8574,-1.7789,-1.8233,-1.7287,-1.5919,-1.6843,-1.6428,-1.5357,-1.5097,-1.497,-1.483,-1.4342,-1.4315,-1.4429,-1.4202,-1.4755,-1.5538,-1.5779,-1.7245,-1.8798,-1.9552,-2.0348,0.0,-2.115,-2.1533,-2.1719,-2.1205,-1.9692,-1.8452,-1.8407,-1.6959,-1.5752,-1.5752,-1.5999,-1.6103,-1.5825,-1.5832,-1.5832,-1.5832,-1.5832,-1.5832,-1.5832,-1.5832,-1.5832,-1.5832,-1.5832,-1.5832,-1.5832,-1.5832,-1.5832,-1.5832,-1.5798,-1.5785,-1.5785,-1.5785,-1.5785,-1.5785,-1.5812,-1.5832,-1.5832,-1.5832,-1.5832,-1.5832,-1.5832,-1.5832,-1.5832,-1.5832,-1.5832,-1.5832,-1.5832,-1.5832,-1.5865,-1.6126,-1.6246,-1.6353,-2.5535,0.0,0.0,0.0,0.0,0.0,0.0,0.0,-2.4768,-2.3946,-2.4123,-2.4767,-2.5921,-2.6321,-2.6383,-2.6233,-2.53,-2.4636,-2.4409,-2.2702,-2.1745,-2.1745,-2.1372,-2.1279,-2.1357,-2.2041,0.0,0.0,0.0,0.0,0.0,0.0,0.0,0.0,0.0,-2.0566,-2.0576,-2.0654,-2.07,-2.0608,-1.9998,-1.9221,-1.8264,-1.8387,-1.7455,-1.6068,-1.6698,-1.6242,-1.5391,-1.5331,-1.4997,-1.4629,-1.4756,-1.4509,-1.4208,-1.4382,-1.4433,-1.4817,-1.6527,-1.6683,-1.7017,-1.9683,-2.0132,0.0,-2.098,-2.1299,-2.1091,-2.0393,-1.9656,-1.8993,-1.8366,-1.8177,-1.815,-1.815,-1.8533,-1.8118,-1.6103,-1.5832,-1.5832,-1.5832,-1.5832,-1.5832,-1.5832,-1.5832,-1.5832,-1.5832,-1.5832,-1.5832,-1.5832,-1.5832,-1.5832,-1.5832,-1.5605,-1.5478,-1.5478,-1.5478,-1.5478,-1.5484,-1.5718,-1.5832,-1.5832,-1.5832,-1.5832,-1.5832,-1.5832,-1.5832,-1.5832,-1.5832,-1.5832,-1.5832,-1.5832,-1.5832,-1.5838,-1.5892,-1.6066,-1.6326,-2.5199,0.0,0.0,0.0,0.0,0.0,0.0,0.0,-2.6068,-2.5796,-2.6246,-2.6658,-2.6904,-2.6866,-2.6866,-2.6866,-2.597,-2.5038,-2.4276,-2.3154,-2.2137,-2.1308,-2.1006,-2.1006,-2.123,-2.165,0.0,0.0,0.0,0.0,0.0,0.0,0.0,0.0,0.0,-2.0449,-2.0254,-2.0469,-2.082,-2.1089,-2.0099,-1.9636,-1.9462,-1.8854,-1.8128,-1.7391,-1.712,-1.6328,-1.5463,-1.584,-1.561,-1.5208,-1.5429,-1.5588,-1.5472,-1.473,-1.5777,-1.7075,-1.6818,-1.7223,-1.8113,-1.9115,-1.9041,0.0,0.0,-1.9879,-2.0083,-1.9994,-1.9569,-1.9119,-1.8918,-1.8698,-1.8592,-1.8592,-1.9142,-1.8856,-1.7037,-1.6763,-1.648,-1.5927,-1.5832,-1.5832,-1.5832,-1.5832,-1.5832,-1.5832,-1.5832,-1.5832,-1.5832,-1.5832,-1.5534,-1.4848,-1.469,-1.4545,-1.444,-1.4314,-1.4688,-1.5398,-1.5545,-1.5691,-1.5832,-1.5832,-1.5832,-1.5832,-1.5832,-1.5832,-1.5832,-1.5832,-1.5832,-1.5832,-1.5832,-1.5832,-1.5832,-1.5832,-1.5925,-1.6092,-2.4925,-2.4957,0.0,0.0,0.0,0.0,0.0,0.0,-2.7103,-2.744,-2.7829,-2.7934,-2.7494,-2.7344,-2.7318,-2.7431,-2.6453,-2.5252,-2.4186,-2.3405,-2.237,-2.0954,-2.08,-2.0781,-2.0977,-2.1143,-2.1191,0.0,0.0,0.0,0.0,0.0,0.0,0.0,0.0,-2.042,-2.0185,-2.0449,-2.082,-2.107,-1.9879,-1.9922,-2.0671,-1.9618,-1.9087,-1.8745,-1.7749,-1.6816,-1.607,-1.6684,-1.6682,-1.6359,-1.6608,-1.7041,-1.7138,-1.5682,-1.7415,-1.9347,-1.7032,-1.7872,-1.9178,-1.8415,-1.7908,-1.7786,0.0,0.0,0.0,-1.9713,-1.9561,-1.9375,-1.9696,-1.9327,-1.8914,-1.8914,-1.936,-1.9307,-1.8041,-1.7832,-1.7225,-1.592,-1.5832,-1.5832,-1.5832,-1.5832,-1.5832,-1.5832,-1.5832,-1.5832,-1.5832,-1.5534,-1.4949,-1.3974,-1.3491,-1.3147,-1.3042,-1.3076,-1.3701,-1.4943,-1.5192,-1.5464,-1.5745,-1.5745,-1.5772,-1.5832,-1.5832,-1.5832,-1.5832,-1.5832,-1.5832,-1.5832,-1.5832,-1.5832,-1.5832,-1.5832,-1.5832,-1.5872,-2.3564,-2.5703,-2.7441,0.0,0.0,0.0,0.0,0.0,-2.8525,-2.81,-2.8061,-2.8084,-2.8021,-2.757,-2.7482,-2.7971,-2.6571,-2.5812,-2.6151,-2.4362,-2.282,-2.1886,-2.14,-2.082,-2.0078,-2.083,-2.1045,0.0,0.0,0.0,0.0,0.0,0.0,0.0,-2.0547,-2.0762,-2.1064,-2.0713,-2.082,-2.107,-1.9879,-2.0107,-2.1124,-2.0962,-2.0272,-1.9208,-1.8357,-1.7961,-1.7866,-1.7999,-1.804,-1.8136,-1.8514,-1.8496,-1.837,-1.8029,-1.8382,-1.859,-1.7809,-1.7375,-1.7367,-1.807,-1.7746,-1.7351,-1.7738,0.0,-1.9731,-1.9218,0.0,-2.042,-2.0469,0.0,0.0,-2.0886,-2.0706,-2.0158,-1.8831,-1.8125,-1.7225,-1.592,-1.5832,-1.5832,-1.5832,-1.5832,-1.5832,-1.5832,-1.5832,-1.5832,-1.5832,-1.4752,-1.407,-1.3878,-1.2379,-1.1594,-1.1502,-1.2445,-1.2951,-1.3075,-1.4423,-1.5164,-1.5444,-1.5444,-1.5585,-1.5832,-1.5832,-1.5832,-1.5832,-1.5832,-1.5832,-1.5832,-1.5832,-1.5832,-1.5832,-1.5832,-1.5832,-1.5872,-2.3188,-2.4898,-2.66,0.0,0.0,0.0,0.0,0.0,-2.9114,-2.8222,-2.8386,-2.8586,-2.8586,-2.8097,-2.7984,-2.8536,-2.7102,-2.6056,-2.5666,-2.4216,-2.2991,-2.2019,-2.15,-2.1064,-2.0693,-2.0791,-2.0752,-2.0566,-2.0752,0.0,0.0,0.0,0.0,0.0,-2.0449,-2.0527,-2.0469,-2.0537,-2.0674,-2.084,-2.0267,-2.0426,-2.0651,-1.9116,-1.8136,-1.7627,-1.8549,-1.8524,-1.8025,-1.8692,-1.8583,-1.8407,-1.9033,-1.9305,-1.9221,-1.8337,-1.9349,-2.0305,-1.7768,-1.773,-1.8092,-1.6847,-1.6235,-1.612,-1.6888,-1.7809,-1.865,-1.9442,0.0,0.0,0.0,0.0,0.0,0.0,-1.9956,-1.923,-1.7873,-1.7529,-1.6999,-1.59,-1.5832,-1.5832,-1.5832,-1.5832,-1.5832,-1.5832,-1.5832,-1.5832,-1.5832,-1.4561,-1.3584,-1.2716,-1.1796,-1.1278,-1.1181,-1.2076,-1.2922,-1.3798,-1.4632,-1.5117,-1.5404,-1.5571,-1.5712,-1.5832,-1.5832,-1.5832,-1.5832,-1.5832,-1.5832,-1.5832,-1.5832,-1.5832,-1.5832,-1.5832,-1.5939,-1.6079,-2.3857,-2.5168,-2.6528,-2.6109,0.0,0.0,0.0,-2.9528,-2.9503,-2.8674,-2.8913,-2.9164,-2.9164,-2.8812,-2.8725,-2.9126,-2.7563,-2.6218,-2.5262,-2.4046,-2.2847,-2.1614,-2.1562,-2.1367,-2.0879,-2.0791,-2.0684,-2.0566,0.0,0.0,0.0,0.0,0.0,0.0,-2.042,-2.0459,-2.0283,-2.0488,-2.0635,-2.0732,-2.0615,-2.0401,-1.9979,-1.8321,-1.7516,-1.754,-1.9119,-1.9218,-1.8719,-1.9462,-1.9395,-1.9184,-1.9851,-2.0403,-2.0492,-1.9361,-2.0716,-2.1731,-1.8185,-1.8232,-1.8648,-1.6077,-1.5237,-1.539,-1.6243,-1.6938,-1.7853,-1.9448,-2.017,0.0,0.0,0.0,-1.93,-1.9046,0.0,-1.7898,-1.6866,-1.6617,-1.6351,-1.5765,-1.5785,-1.5832,-1.5832,-1.5832,-1.5798,-1.5718,-1.5712,-1.5712,-1.5712,-1.445,-1.3324,-1.2522,-1.1703,-1.1278,-1.1181,-1.1882,-1.2899,-1.4067,-1.4559,-1.4997,-1.5291,-1.5578,-1.5712,-1.5712,-1.5792,-1.5832,-1.5832,-1.5832,-1.5832,-1.5832,-1.5832,-1.5832,-1.5832,-1.5832,-1.5965,-1.6119,-2.5643,-2.74,-2.8447,-2.7389,-2.866,-2.9779,-2.9767,-2.9779,-2.9779,-2.9741,-2.9754,-2.9767,-2.9767,-2.9754,-2.9741,-2.9767,-2.773,-2.6317,-2.5836,-2.4068,-2.233,-2.0722,-2.1807,-2.168,-1.999,-2.0781,-2.0996,-2.0566,0.0,0.0,0.0,0.0,0.0,0.0,-2.0557,-2.0801,-2.1162,-2.0742,-2.081,-2.1172,-2.0742,-2.0001,-1.9125,-2.0108,-2.043,-2.042,-2.0508,-2.0508,-2.0508,-2.0586,-2.08,-2.1167,-2.1656,-2.2065,-2.2405,-2.2386,-2.2405,-2.1978,-1.9377,-1.8766,-1.8255,-1.5936,-1.5391,-1.5497,-1.6009,-1.6954,-1.802,-1.8825,-1.9863,-2.0333,-1.9292,-1.9063,-1.8656,-1.7521,-1.6742,0.0,0.0,-1.5747,-1.5174,-1.5378,-1.5658,-1.5832,-1.5832,-1.5832,-1.5712,-1.5431,-1.5411,-1.5411,-1.5411,-1.4167,-1.352,-1.3866,-1.2165,-1.1283,-1.1283,-1.1975,-1.2457,-1.2891,-1.3986,-1.4689,-1.499,-1.5277,-1.5411,-1.5424,-1.5705,-1.5832,-1.5832,-1.5832,-1.5832,-1.5832,-1.5832,-1.5832,-1.5832,-1.5832,-1.5838,-1.5838,-2.6321,-2.7657,-2.8424,-2.7048,-2.8133,-2.9352,-2.9729,-2.9792,-3.0043,-3.0758,-3.0846,-3.1135,-3.1876,-3.1625,-3.1046,-3.0276,-2.8292,-2.6622,-2.5604,-2.4016,-2.2814,-2.2275,-2.2422,-2.2236,-2.1641,-2.1367,-2.1162,-2.1006,-2.0713,0.0,0.0,0.0,0.0,0.0,0.0,-2.0654,-2.0781,-2.0635,-2.0654,-2.0781,-2.0625,-2.0401,-2.0079,-2.0479,-2.0157,-1.9599,-2.0323,-2.0566,-2.0566,-2.0566,-2.0859,-2.126,-2.1406,-2.1748,-2.21,-2.21,-2.1759,-2.093,-1.9011,-1.8145,-1.7289,-1.5597,-1.4963,-1.5014,-1.5899,-1.627,-1.666,-1.7691,-1.8149,-1.8301,-1.7908,-1.7326,-1.6754,-1.6567,-1.5704,-1.505,0.0,-1.4926,-1.471,-1.4803,-1.5244,-1.5618,-1.5812,-1.5658,-1.5504,-1.5404,-1.5217,-1.511,-1.511,-1.389,-1.3181,-1.3269,-1.2581,-1.2137,-1.2137,-1.304,-1.3515,-1.3703,-1.4249,-1.4676,-1.4977,-1.5264,-1.5504,-1.5691,-1.5785,-1.5832,-1.5832,-1.5832,-1.5832,-1.5832,-1.5832,-1.5832,-1.5832,-1.5832,-1.5952,-1.6119,-2.7103,-2.8032,-2.8525,-2.7284,-2.8101,-2.9126,-2.9704,-3.0118,-3.0608,-3.1298,-3.1738,-3.2084,-3.2339,-3.2093,-3.1258,-2.9829,-2.8172,-2.6563,-2.528,-2.4025,-2.3164,-2.2715,-2.2715,-2.2519,-2.207,-2.1816,-2.1543,-2.123,-2.1103,-2.1182,0.0,0.0,0.0,0.0,0.0,-2.0566,-2.0566,-2.0157,-2.0245,-2.0566,-2.0566,-2.0566,-2.0566,-2.0566,-2.0157,-1.9678,-2.0323,-2.0566,-2.0566,-2.0566,-2.0859,-2.126,-2.1416,-2.166,-2.1821,-2.1614,-2.094,-1.9924,-1.8267,-1.735,-1.6507,-1.511,-1.4663,-1.4742,-1.5701,-1.5845,-1.6064,-1.7253,-1.7351,-1.7212,-1.6924,-1.6268,-1.5604,-1.5403,-1.4778,-1.4362,0.0,-1.4456,-1.4522,-1.4522,-1.5037,-1.5431,-1.5511,-1.5444,-1.5311,-1.5104,-1.491,-1.4803,-1.4803,-1.3976,-1.3566,-1.3748,-1.3401,-1.3267,-1.3267,-1.3795,-1.4135,-1.4242,-1.4429,-1.4676,-1.4977,-1.5264,-1.5498,-1.5678,-1.5785,-1.5832,-1.5832,-1.5832,-1.5832,-1.5832,-1.5832,-1.5832,-1.5832,-1.5832,-1.5952,-1.6112,-2.8096,-2.8497,-2.8775,-2.8273,-2.8599,-2.9126,-2.9704,-3.0696,-3.1411,-3.1461,-3.2453,-3.2611,-3.1354,-3.1163,-3.0481,-2.8622,-2.75,-2.6361,-2.4869,-2.4175,-2.3262,-2.2002,-2.2715,-2.2568,-2.1357,-2.2109,-2.2109,-2.1299,-2.1689,0.0,0.0,0.0,0.0,0.0,-2.0762,-2.0566,-2.0479,-1.9441,-1.9599,-2.0566,-2.0566,-2.0566,-2.0566,-2.0566,-2.0566,-2.0566,-2.0566,-2.0566,-2.0566,-2.0566,-2.0859,-2.1309,-2.1719,-2.1865,-2.1787,-2.1105,-2.0241,-1.9138,-1.7258,-1.6421,-1.5762,-1.477,-1.4509,-1.4681,-1.5482,-1.5658,-1.6065,-1.7419,-1.7391,-1.6916,-1.6129,-1.5866,-1.534,-1.4271,-1.4108,-1.4108,-1.4088,-1.4322,-1.4502,-1.4522,-1.501,-1.5251,-1.499,-1.5204,-1.5124,-1.4563,-1.4502,-1.4496,-1.4496,-1.4496,-1.4629,-1.491,-1.4649,-1.4496,-1.4496,-1.4222,-1.4222,-1.4496,-1.4496,-1.4656,-1.495,-1.5244,-1.5384,-1.5411,-1.5705,-1.5832,-1.5832,-1.5832,-1.5832,-1.5832,-1.5832,-1.5832,-1.5832,-1.5832,-1.5832,-1.5832,-2.8096,-2.8497,-2.9013,-2.9315,-2.9126,-2.9126,-2.9704,-3.0696,-3.1687,-3.2528,-3.2766,-3.2987,-3.3482,-3.2233,-3.0734,-2.9021,-2.8295,-2.6951,-2.4696,-2.4372,-2.3818,-2.2861,-2.3027,-2.2988,-2.2656,-2.2559,-2.2402,-2.2187,-2.1982,0.0,-2.1875,0.0,0.0,0.0,0.0,-2.0157,-1.9362,-1.9116,-1.9195,-1.9441,-2.0245,-2.0566,-2.0566,-2.0566,-2.0566,-2.0566,-2.0566,-2.0566,-2.0566,-2.0566,-2.0859,-2.125,-2.1367,-2.1621,-2.1729,-2.0679,-1.9613,-1.8404,-1.6861,-1.5662,-1.485,-1.4603,-1.4355,-1.4374,-1.4993,-1.4984,-1.4995,-1.5563,-1.5651,-1.5458,-1.4964,-1.506,-1.5007,-1.4442,-1.4409,-1.4335,-1.4115,-1.4155,-1.4282,-1.4496,-1.4649,-1.4803,-1.495,-1.483,-1.4683,-1.4529,-1.4322,-1.4202,-1.4202,-1.4202,-1.4235,-1.4309,-1.4242,-1.4202,-1.4202,-1.4122,-1.4122,-1.4202,-1.4202,-1.4349,-1.4643,-1.4937,-1.519,-1.5411,-1.5705,-1.5832,-1.5832,-1.5832,-1.5832,-1.5832,-1.5832,-1.5832,-1.5832,-1.5832,-1.5832,-1.5832,-2.8096,-2.8954,-2.9691,-2.9779,-2.9609,-2.9721,-3.039,-3.058,-3.1097,-3.2191,-3.215,-3.1872,-3.1757,-3.0942,-2.9728,-2.8031,-2.7384,-2.6345,-2.4492,-2.4414,-2.4033,-2.3174,-2.3135,-2.2969,-2.2598,-2.2539,-2.2422,-2.2236,-2.2002,-2.1982,-2.2148,0.0,0.0,0.0,0.0,-2.0245,-1.9678,-1.9678,-1.9441,-1.9116,-2.0167,-2.0566,0.0,-2.0566,-2.0566,-2.0566,-2.0566,-2.0566,-2.0566,-2.0566,-2.0859,-2.123,-2.123,-2.1396,-2.1255,-1.9701,-1.8566,-1.756,-1.5779,-1.4822,-1.4335,-1.4335,-1.4208,-1.4208,-1.4669,-1.4643,-1.4643,-1.5064,-1.505,-1.491,-1.4743,-1.4743,-1.4669,-1.4382,-1.4335,-1.4275,-1.4108,-1.4088,-1.4148,-1.4309,-1.4442,-1.4536,-1.4576,-1.4543,-1.4469,-1.4342,-1.4295,-1.4222,-1.4095,-1.4208,-1.4215,-1.4088,-1.4088,-1.4088,-1.4088,-1.4088,-1.4088,-1.4088,-1.4573,-1.5043,-1.5479,-1.5655,-1.5986,-1.6415,-1.594,-1.5832,-1.5832,-1.5832,-1.5832,-1.5832,-1.5832,-1.5832,-1.5832,-1.5832,-1.5832,-1.5832,-2.8347,-2.9457,-3.0181,-2.9633,-2.9772,-3.0126,-3.1045,-3.0423,-3.0241,-3.1229,-3.1027,-3.0306,-2.8697,-2.8708,-2.8133,-2.6447,-2.6045,-2.5513,-2.4569,-2.451,-2.4146,-2.3339,-2.3222,-2.2773,-2.1982,-2.2324,-2.2334,-2.1963,-2.1914,-2.207,0.0,0.0,0.0,0.0,0.0,-2.0489,-2.0401,-2.0401,-1.9835,-1.9116,-2.0167,-2.0566,-2.0566,-2.0566,-2.0566,-2.0566,-2.0566,-2.0566,-2.0566,-2.0566,-2.082,-2.1143,-2.1143,-2.1143,-2.0732,-1.8559,-1.759,-1.6854,-1.4657,-1.4088,-1.4088,-1.4088,-1.4088,-1.4162,-1.4456,-1.4522,-1.4676,-1.5224,-1.5137,-1.4963,-1.4963,-1.4723,-1.4462,-1.4289,-1.4162,-1.4115,-1.4188,-1.4168,-1.4162,-1.4195,-1.4389,0.0,-1.4168,-1.4369,-1.4402,-1.4108,-1.4322,-1.4355,-1.4102,-1.4322,-1.4349,-1.4095,-1.4088,-1.4108,-1.4142,-1.4108,-1.4186,-1.4389,-1.5235,-1.6079,-1.6896,-1.6813,-1.7086,-1.7465,-1.6445,-1.592,-1.5832,-1.5832,-1.5832,-1.5832,-1.5832,-1.5832,-1.5832,-1.5832,-1.5832,-1.5832,-2.9534,-2.9377,-2.9051,-2.8522,-2.8263,-2.8463,-2.9578,-3.0203,-3.0604,-3.0785,-3.058,-3.0204,-2.9558,-2.8594,-2.7386,-2.5947,-2.6613,-2.6568,-2.5269,-2.5186,-2.5026,-2.4478,-2.3637,-2.291,-2.2412,-2.2471,-2.248,-2.2402,-2.206,-2.1924,0.0,0.0,0.0,0.0,0.0,-2.0089,-1.9283,-1.9283,-1.9195,-1.9116,-2.0167,-2.0566,-2.0566,-2.0566,-2.0566,-2.0566,-2.0566,-2.0566,-2.0566,-2.0566,-2.0615,-2.0684,-2.0684,-2.0684,-2.0272,-1.8083,-1.7383,-1.6854,-1.4657,-1.4088,-1.4088,-1.4088,-1.4088,-1.4162,-1.4456,-1.4522,-1.4623,-1.497,-1.4997,-1.4963,-1.4963,-1.4723,-1.4663,-1.5097,-1.4563,-1.4255,-1.4743,-1.4596,-1.4536,-1.4783,-1.4636,-1.4496,-1.4449,-1.4489,-1.4402,-1.4108,-1.4135,-1.4142,-1.4088,-1.4135,-1.4142,-1.4088,-1.4088,-1.4202,-1.4442,-1.4208,-1.4698,-1.576,-1.5747,-1.6252,-1.7219,-1.7803,-1.762,-1.6795,-1.7169,-1.6756,-1.5832,-1.5832,-1.5832,-1.5832,-1.5832,-1.5832,-1.5832,-1.5832,-1.5832,-1.5832,-2.9699,-2.8952,-2.8337,-2.8276,-2.8055,-2.8211,-2.8923,-2.9056,-2.9316,-2.9753,-2.8932,-2.8117,-2.7661,-2.7833,-2.7519,-2.631,-2.7304,-2.7525,-2.6347,-2.5762,-2.5204,-2.4808,-2.3714,-2.2842,-2.2197,-2.2187,-2.2187,-2.2187,-2.1758,-2.167,0.0,0.0,0.0,-2.0566,-2.0566,-2.0323,-1.9844,-1.9844,-1.9844,-1.9844,-2.0401,-2.0566,-2.0566,-2.0566,-2.0566,-2.0566,-2.0566,-2.0566,-2.0566,-2.0566,-2.0566,-2.0566,-2.0566,-2.0245,-1.9432,-1.7827,-1.6927,-1.6116,-1.4489,-1.4088,-1.4088,-1.4088,-1.4088,-1.4162,-1.4456,-1.4522,-1.4603,-1.4903,-1.4963,-1.4917,-1.4763,-1.4496,-1.4436,-1.487,-1.4589,-1.4462,-1.4903,-1.4843,-1.4803,-1.4943,-1.4836,-1.4689,-1.4536,-1.4522,-1.4402,-1.4108,-1.4229,-1.4249,-1.4095,-1.4229,-1.4242,-1.4088,-1.4088,-1.4155,-1.4295,-1.4726,-1.5209,-1.5928,-1.6918,-1.775,-1.8443,-1.823,-1.7997,-1.7744,-1.6832,-1.6248,-1.5832,-1.5832,-1.5832,-1.5832,-1.5832,-1.5832,-1.5832,-1.5832,-1.5832,-1.5832,-2.9394,-2.8513,-2.7922,-2.8127,-2.8063,-2.8054,-2.8315,-2.7971,-2.7944,-2.8652,-2.7642,-2.6735,-2.6289,-2.7665,-2.8116,-2.7087,-2.7886,-2.8009,-2.7026,-2.5948,-2.51,-2.4808,-2.3714,-2.2783,-2.2031,-2.1934,-2.1836,-2.1748,-2.1396,-2.1367,-2.1602,0.0,0.0,-2.0566,-2.0566,-2.0566,-2.0566,-2.0566,-2.0566,-2.0566,-2.0566,-2.0566,-2.0566,-2.0566,-2.0566,-2.0566,-2.0566,-2.0566,-2.0566,-2.0566,-2.0566,-2.0566,-2.0323,-1.9678,-1.8709,-1.7334,-1.6355,-1.5462,-1.4412,-1.4088,-1.4088,-1.4088,-1.4088,-1.4148,-1.4376,-1.4429,-1.4496,-1.473,-1.483,-1.4796,-1.4563,-1.4382,-1.4349,-1.4576,-1.4616,-1.4716,-1.5017,-1.5057,-1.503,-1.497,-1.4963,-1.4823,-1.4462,-1.4429,-1.4335,-1.4108,-1.4242,-1.4262,-1.4095,-1.4302,-1.4349,-1.4182,-1.4182,-1.4287,-1.4603,-1.5362,-1.5982,-1.6539,-1.7942,-1.895,-1.9417,-1.8345,-1.8063,-1.8217,-1.6519,-1.5831,-1.5832,-1.5832,-1.5832,-1.5832,-1.5832,-1.5832,-1.5832,-1.5832,-1.5832,-1.5832,-2.8767,-2.8061,-2.7557,-2.7505,-2.7327,-2.7166,-2.7104,-2.7486,-2.7751,-2.7816,-2.8289,-2.8406,-2.8056,-2.9072,-2.9276,-2.7943,-2.7908,-2.7581,-2.6606,-2.5527,-2.484,-2.4787,-2.3714,-2.292,-2.2461,-2.208,-2.1689,-2.1299,-2.125,-2.1045,-2.0693,-2.1064,-2.0996,-2.0566,-2.0566,-2.0566,-2.0566,-2.0566,-2.0566,-2.0566,-2.0566,-2.0566,-2.0566,-2.0566,-2.0566,-2.0566,-2.0566,-2.0566,-2.0566,-2.0566,-2.0566,-2.0401,-1.9441,-1.9116,-1.855,-1.6429,-1.5786,-1.5462,-1.4412,-1.4088,-1.4088,-1.4088,-1.4088,-1.4095,-1.4122,-1.4128,-1.4135,-1.4162,-1.4376,-1.4556,-1.4522,-1.4716,-1.489,-1.4917,-1.4923,-1.5023,-1.5311,-1.5357,-1.5257,-1.4997,-1.4963,-1.4743,-1.4182,-1.4128,-1.4115,-1.4088,-1.3861,-1.3834,-1.4075,-1.4115,-1.4235,-1.4476,-1.4482,-1.5113,-1.633,-1.5911,-1.6833,-1.9062,-1.798,-1.8006,-1.902,-1.8317,-1.7584,-1.6823,-1.6944,-1.6536,-1.5832,-1.5832,-1.5832,-1.5832,-1.5832,-1.5832,-1.5832,-1.5832,-1.5832,-1.5832,-2.8763,-2.7676,-2.7049,-2.7472,-2.7248,-2.7294,-2.834,-2.8391,-2.8531,-2.9035,-2.8736,-2.8644,-2.9211,-2.9873,-2.9607,-2.8007,-2.8248,-2.7946,-2.6599,-2.5462,-2.4787,-2.4787,-2.3714,-2.2822,-2.2148,-2.1973,-2.167,-2.123,-2.1494,-2.1533,-2.1357,-2.1543,-2.125,-2.0566,-2.0566,-2.0566,-2.0566,-2.0566,-2.0566,-2.0566,-2.0566,-2.0566,-2.0566,-2.0566,-2.0566,-2.0566,-2.0566,-2.0566,-2.0566,-2.0566,-2.0157,-1.952,-1.9116,-1.806,-1.6838,-1.5944,-1.5213,-1.4657,-1.425,-1.4088,-1.4088,-1.4088,-1.4088,-1.4088,-1.4088,-1.4088,-1.4088,-1.4088,-1.4182,-1.4262,-1.4262,-1.4355,-1.4496,-1.4669,-1.4843,-1.5064,-1.5357,-1.5398,-1.5351,-1.5237,-1.4756,-1.4416,-1.4355,-1.4028,-1.3968,-1.4322,-1.4075,-1.4035,-1.4329,-1.4182,-1.4302,-1.477,-1.5105,-1.5553,-1.629,-1.7454,-1.8443,-1.9191,-1.8859,-1.8779,-1.8966,-1.754,-1.6481,-1.5938,-1.6239,-1.6175,-1.5832,-1.5832,-1.5832,-1.5832,-1.5832,-1.5832,-1.5832,-1.5832,-1.5832,-1.5832,-2.851,-2.7834,-2.7572,-2.8321,-2.848,-2.892,-2.9897,-2.9725,-2.9732,-3.0473,-2.9598,-2.914,-3.0056,-3.0472,-2.9998,-2.8351,-2.8321,-2.7739,-2.6091,-2.4967,-2.4296,-2.4296,-2.3551,-2.2861,-2.2266,-2.2012,-2.167,-2.123,-2.1543,-2.1562,-2.1309,-2.1435,-2.1162,-2.0566,-2.0566,-2.0566,-2.0566,-2.0566,-2.0566,-2.0566,-2.0566,-2.0566,-2.0566,-2.0566,-2.0566,-2.0566,-2.0566,-2.0566,-2.0566,-2.0566,-1.9678,-1.8479,-1.8479,-1.7253,-1.5621,-1.5296,-1.465,-1.4088,-1.4088,-1.4088,-1.4088,-1.4088,-1.4088,-1.4088,-1.4088,-1.4088,-1.4088,-1.4088,-1.4088,-1.4088,-1.4088,-1.4155,-1.4255,-1.4369,-1.4716,-1.5003,-1.5124,-1.5217,-1.5237,-1.515,-1.4589,-1.4262,-1.4382,-1.4015,-1.3941,-1.4362,-1.4282,-1.4302,-1.4509,-1.4322,-1.4568,-1.5334,-1.5667,-1.6247,-1.7249,-1.8724,-1.9597,-1.9811,-1.9182,-1.8868,-1.8654,-1.6692,-1.5609,-1.5411,-1.5705,-1.5832,-1.5832,-1.5832,-1.5832,-1.5832,-1.5832,-1.5832,-1.5832,-1.5832,-1.5832,-1.5832,-2.7791,-2.8747,-2.9772,-3.0234,-3.1316,-3.2051,-3.1571,-3.1091,-3.1088,-3.1804,-3.1015,-3.0375,-3.0363,-3.0952,-3.0741,-2.901,-2.7969,-2.6565,-2.4904,-2.3714,-2.3135,-2.3135,-2.3135,-2.3135,-2.3125,-2.2314,-2.167,-2.123,-2.124,-2.0791,-1.9951,-2.0381,-2.0576,-2.0566,-2.0566,-2.0566,-2.0566,-2.0566,-2.0566,-2.0566,-2.0566,-2.0566,-2.0566,-2.0566,-2.0566,-2.0566,-2.0566,-2.0566,-2.0566,-2.0566,-1.9116,-1.7334,-1.7334,-1.6601,-1.5455,-1.4412,-1.4088,-1.4088,-1.4088,-1.4088,-1.4088,-1.4088,-1.4088,-1.4088,-1.4088,-1.4088,-1.4088,-1.4088,-1.4088,-1.4088,-1.4088,-1.4322,-1.4422,-1.4135,-1.4583,-1.4863,-1.4569,-1.4783,-1.4863,-1.4563,-1.4522,-1.4402,-1.4122,-1.4088,-1.4082,-1.4088,-1.4355,-1.4516,-1.4522,-1.4516,-1.5016,-1.6019,-1.6097,-1.7342,-1.9934,-1.9345,-1.9947,-2.1855,-1.8766,-1.7532,-1.7971,-1.5943,-1.5117,-1.5411,-1.5705,-1.5832,-1.5832,-1.5832,-1.5832,-1.5832,-1.5832,-1.5832,-1.5832,-1.5832,-1.5832,-1.5832,-3.0267,-3.0882,-3.1348,-3.1173,-3.144,-3.1754,-3.1785,-3.1705,-3.1884,-3.2658,-3.1723,-3.0783,-3.0097,-3.0507,-3.002,-2.798,-2.7148,-2.5888,-2.381,-2.3299,-2.3135,-2.3135,-2.2861,-2.2715,-2.2715,-2.2168,-2.167,-2.123,-2.1533,-2.1377,-2.082,-2.0957,-2.0859,-2.0566,-2.0566,-2.0566,-2.0566,-2.0566,-2.0566,-2.0537,-2.0244,-2.0117,-2.0117,-2.0117,-2.0117,-2.0156,-2.0459,-2.0566,-2.0566,-2.0566,-1.9678,-1.847,-1.847,-1.669,-1.4573,-1.4166,-1.4088,-1.4088,-1.4088,-1.4088,-1.4088,-1.4088,-1.4088,-1.4088,-1.4088,-1.4088,-1.4088,-1.4088,-1.4088,-1.4088,-1.4088,-1.4162,-1.4195,-1.4102,-1.4409,-1.4629,-1.4536,-1.4603,-1.4549,-1.4262,-1.4048,-1.3881,-1.3794,-1.3781,-1.3955,-1.4355,-1.4656,-1.4736,-1.4529,-1.4522,-1.4778,-1.5327,-1.6652,-1.776,-1.8473,-1.9583,-2.018,-2.0163,-1.8214,-1.6846,-1.6178,-1.5568,-1.5418,-1.5698,-1.5792,-1.5832,-1.5832,-1.5832,-1.5832,-1.5832,-1.5832,-1.5832,-1.5832,-1.5832,-1.5832,-1.5832,-3.1471,-3.2404,-3.2883,-3.238,-3.2688,-3.2924,-3.2653,-3.2665,-3.2763,-3.3057,-3.2089,-3.0964,-2.9942,-2.9727,-2.8769,-2.6583,-2.6056,-2.5052,-2.3222,-2.3135,-2.3135,-2.3135,-2.2891,-2.2676,-2.2519,-2.21,-2.167,-2.123,-2.1338,-2.125,-2.0986,-2.0986,-2.083,-2.0566,-2.0566,-2.0566,-2.0566,-2.0566,-2.0566,-2.0527,-2.0088,-1.9912,-1.9893,-1.9736,-1.9678,-1.9736,-2.0166,-2.0322,-2.0342,-2.0508,-1.9923,-1.9036,-1.9036,-1.7342,-1.5228,-1.4817,-1.4734,-1.4566,-1.4166,-1.4088,-1.4088,-1.4088,-1.4088,-1.4088,-1.4088,-1.4088,-1.4088,-1.4088,-1.4088,-1.4088,-1.4088,-1.4088,-1.4088,-1.4088,-1.4242,-1.4355,-1.4355,-1.4262,-1.4162,-1.4095,-1.3821,-1.3687,-1.3801,-1.3808,-1.3961,-1.4329,-1.473,-1.4836,-1.4536,-1.473,-1.5001,-1.5395,-1.6644,-1.758,-1.8206,-1.9007,-1.9347,-1.9303,-1.7802,-1.6425,-1.5398,-1.5398,-1.5558,-1.5832,-1.5832,-1.5832,-1.5832,-1.5832,-1.5832,-1.5832,-1.5832,-1.5832,-1.5832,-1.5832,-1.5832,-1.5832,-3.1653,-3.3254,-3.4268,-3.3756,-3.463,-3.5127,-3.406,-3.3872,-3.3646,-3.3093,-3.2064,-3.0951,-2.9726,-2.8632,-2.7105,-2.4872,-2.4787,-2.4296,-2.3135,-2.3135,-2.3135,-2.3135,-2.3105,-2.291,-2.2519,-2.21,-2.167,-2.123,-2.0781,-2.0566,-2.0566,-2.0537,-2.0537,-2.0566,-2.0498,-2.0498,-2.0518,-2.0488,-2.0478,-2.0439,-2.0,-1.9824,-1.9785,-1.9385,-1.9238,-1.9297,-1.9717,-1.9893,-1.9971,-2.0352,-1.9856,-1.9079,-1.9079,-1.8266,-1.7139,-1.6018,-1.5696,-1.5462,-1.4412,-1.4088,-1.4088,-1.4088,-1.4088,-1.4088,-1.4088,-1.4088,-1.4088,-1.4088,-1.4088,-1.4088,-1.4088,-1.4088,-1.4088,-1.4088,-1.4088,-1.4082,-1.4055,-1.3834,-1.3761,-1.4001,-1.3814,-1.3774,-1.4035,-1.4075,-1.4095,-1.4115,-1.4643,-1.4843,-1.4563,-1.511,-1.559,-1.5985,-1.6149,-1.6967,-1.8742,-1.7801,-1.7834,-1.8815,-1.7424,-1.6296,-1.5424,-1.5424,-1.5571,-1.5832,-1.5832,-1.5832,-1.5832,-1.5832,-1.5832,-1.5832,-1.5832,-1.5832,-1.5832,-1.5832,-1.5832,-1.5832,-3.3839,-3.4681,-3.5214,-3.5077,-3.4902,-3.4688,-3.401,-3.3545,-3.3068,-3.2491,-3.1813,-3.0462,-2.8188,-2.7258,-2.5964,-2.3714,-2.4296,-2.4296,-2.3135,-2.3135,-2.3135,-2.3135,-2.2832,-2.2617,-2.251,-2.21,-2.167,-2.123,-2.0781,-2.0566,-2.0557,-2.0225,-2.0244,-2.0537,-1.9883,-1.9766,-2.0049,-1.9727,-1.959,-1.9551,-1.9121,-1.8936,-1.8926,-1.8828,-1.8789,-1.8848,-1.9287,-1.9639,-1.9883,-1.9658,-1.9645,-1.9678,-1.9678,-1.897,-1.7761,-1.6195,-1.5696,-1.5462,-1.4412,-1.4088,-1.4088,-1.4088,-1.4088,-1.4088,-1.4088,-1.4088,-1.4088,-1.4088,-1.4088,-1.4088,-1.4088,-1.4088,-1.4088,-1.4088,-1.4088,-1.4008,-1.3781,-1.3881,-1.3841,-1.346,-1.3748,-1.3921,-1.3768,-1.3955,-1.4175,-1.4402,-1.4756,-1.4937,-1.4863,-1.5411,-1.555,-1.5308,-1.6366,-1.6973,-1.7148,-1.743,-1.7241,-1.6549,-1.6199,-1.5926,-1.5732,-1.5732,-1.5765,-1.5832,-1.5832,-1.5832,-1.5832,-1.5832,-1.5832,-1.5832,-1.5832,-1.5832,-1.5832,-1.5832,-1.5832,-1.5832,-3.3909,-3.4613,-3.509,-3.4839,-3.455,-3.4073,-3.3257,-3.288,-3.2478,-3.1913,-3.1373,-3.0237,-2.8242,-2.7096,-2.5808,-2.4049,-2.3963,-2.38,-2.3135,-2.3135,-2.3135,-2.3135,-2.2734,-2.2422,-2.2227,-2.1807,-2.1377,-2.0928,-2.0684,-2.0566,-2.0557,-2.0117,-2.0039,-2.0244,-1.958,-1.9414,-1.9609,-1.9385,-1.9287,-1.9248,-1.8818,-1.8562,-1.8613,-1.8428,-1.835,-1.8408,-1.8838,-1.9131,-1.9326,-1.9297,-1.9443,-1.9629,-1.9629,-1.9247,-1.844,-1.7016,-1.6509,-1.6191,-1.5137,-1.481,-1.4734,-1.425,-1.4088,-1.4088,-1.4088,-1.4088,-1.4088,-1.4088,-1.4088,-1.4088,-1.4088,-1.4088,-1.4041,-1.3908,-1.4001,-1.3981,-1.3687,-1.3781,-1.3814,-1.3634,-1.3774,-1.3874,-1.3848,-1.4115,-1.4349,-1.4509,-1.4917,-1.5164,-1.5164,-1.5585,-1.5625,-1.5177,-1.5923,-1.6358,-1.6239,-1.6536,-1.6271,-1.5631,-1.5631,-1.5698,-1.5832,-1.5832,-1.5832,-1.5832,-1.5832,-1.5832,-1.5832,-1.5832,-1.5832,-1.5832,-1.5832,-1.5832,-1.5832,-1.5832,-1.5832,-1.5832,-3.3181,-3.3884,-3.4374,-3.4073,-3.3884,-3.3483,-3.2604,-3.2328,-3.2014,-3.1461,-3.0934,-3.0066,-2.8692,-2.7298,-2.5975,-2.4628,-2.3637,-2.3135,-2.3135,-2.3135,-2.3105,-2.3047,-2.2705,-2.2285,-2.1797,-2.1357,-2.0947,-2.0566,-2.0566,-2.0566,-2.0557,-2.0049,-1.9853,-1.9893,-1.9346,-1.9131,-1.9189,-1.9121,-1.9092,-1.9062,-1.8691,-1.8545,-1.8506,-1.8144,-1.8008,-1.8057,-1.8418,-1.8584,-1.8682,-1.8994,-1.9131,-1.9189,-1.9189,-1.9117,-1.8826,-1.7989,-1.7596,-1.7251,-1.6114,-1.5741,-1.5455,-1.4328,-1.4088,-1.4088,-1.4088,-1.4088,-1.4088,-1.4088,-1.4088,-1.4088,-1.4088,-1.4088,-1.4021,-1.3808,-1.3948,-1.4001,-1.3748,-1.3707,-1.3788,-1.3995,-1.3874,-1.3874,-1.4128,-1.4416,-1.4603,-1.4649,-1.5117,-1.5418,-1.5458,-1.5698,-1.5718,-1.5471,-1.5464,-1.5578,-1.5825,-1.5585,-1.5464,-1.5464,-1.5464,-1.5591,-1.5832,-1.5832,-1.5832,-1.5832,-1.5832,-1.5832,-1.5832,-1.5832,-1.5832,-1.5832,-1.5832,-1.5832,-1.5832,-1.5832,-1.5832,-1.5832,-3.3684,-3.3533,-3.3596,-3.4449,-3.3822,-3.3307,-3.3596,-3.283,-3.2014,-3.1461,-3.0934,-2.9665,-2.7136,-2.6693,-2.5641,-2.3551,-2.3222,-2.3135,-2.3135,-2.3135,-2.2978,-2.2627,-2.2549,-2.2139,-2.1357,-2.0898,-2.0635,-2.0566,-2.0566,-2.0566,-2.0547,-1.9756,-1.957,-1.9863,-1.8721,-1.8408,-1.8711,-1.8359,-1.8203,-1.8203,-1.8135,-1.8105,-1.8105,-1.8037,-1.8008,-1.8018,-1.8086,-1.833,-1.8594,-1.8301,-1.8447,-1.874,-1.874,-1.808,-1.7415,-1.7759,-1.8024,-1.79,-1.6863,-1.6121,-1.5455,-1.4328,-1.4088,-1.4088,-1.4088,-1.4088,-1.4088,-1.4088,-1.4088,-1.4088,-1.4088,-1.4088,-1.4155,-1.4349,-1.4215,-1.4075,-1.4021,-1.4015,-1.3941,-1.3734,-1.4108,-1.4402,-1.4449,-1.4723,-1.4997,-1.5244,-1.5344,-1.5504,-1.5752,-1.5805,-1.5805,-1.5765,-1.5758,-1.5785,-1.5832,-1.5785,-1.5758,-1.5758,-1.5758,-1.5785,-1.5832,-1.5832,-1.5832,-1.5832,-1.5832,-1.5832,-1.5832,-1.5832,-1.5832,-1.5832,-1.5832,-1.5832,-1.5832,-1.5832,-1.5832,-1.5832,-3.2491,-3.234,-3.2328,-3.2842,-3.2754,-3.2591,-3.2554,-3.2102,-3.1574,-3.1047,-2.9979,-2.8795,-2.7476,-2.6295,-2.5136,-2.4135,-2.3464,-2.3135,-2.3135,-2.3135,-2.2949,-2.2529,-2.2295,-2.1768,-2.0898,-2.0674,-2.0566,-2.0566,-2.0332,-2.0215,-2.0195,-1.9336,-1.9043,-1.9189,-1.8369,-1.8115,-1.8291,-1.8086,-1.8008,-1.8008,-1.8008,-1.8008,-1.8008,-1.8008,-1.8008,-1.8008,-1.8008,-1.8135,-1.8271,-1.8076,-1.8135,-1.8153,-1.7707,-1.7208,-1.6741,-1.6488,-1.6957,-1.7449,-1.71,-1.6393,-1.5455,-1.4328,-1.4088,-1.4088,-1.4088,-1.4088,-1.4128,-1.4289,-1.4195,-1.4135,-1.4295,-1.4195,-1.4128,-1.4262,-1.4175,-1.4142,-1.4302,-1.4322,-1.4329,-1.4349,-1.4589,-1.4763,-1.4763,-1.5023,-1.5251,-1.5384,-1.5538,-1.5691,-1.5818,-1.5832,-1.5832,-1.5832,-1.5832,-1.5832,-1.5832,-1.5832,-1.5832,-1.5832,-1.5832,-1.5832,-1.5832,-1.5832,-1.5832,-1.5832,-1.5832,-1.5832,-1.5832,-1.5832,-1.5832,-1.5832,-1.5832,-1.5832,-1.5832,-1.5832,-1.5832,-1.5832,-3.1386,-3.1298,-3.1248,-3.1373,-3.1637,-3.1655,-3.1096,-3.0934,-3.0548,-2.9898,-2.8602,-2.7602,-2.7348,-2.5775,-2.4702,-2.4457,-2.3627,-2.3135,-2.3135,-2.3047,-2.2812,-2.2383,-2.1865,-2.126,-2.0576,-2.0566,-2.0518,-2.041,-2.0078,-1.9863,-1.9756,-1.8994,-1.8562,-1.8553,-1.8193,-1.8008,-1.8008,-1.8008,-1.8008,-1.8008,-1.8008,-1.8008,-1.8008,-1.8008,-1.8008,-1.8008,-1.8008,-1.8008,-1.8008,-1.8008,-1.7862,-1.7569,-1.6853,-1.6419,-1.614,-1.5438,-1.5939,-1.6801,-1.7103,-1.6619,-1.5786,-1.4412,-1.4088,-1.4088,-1.4088,-1.4135,-1.4249,-1.4476,-1.4396,-1.4362,-1.4583,-1.4442,-1.4315,-1.4382,-1.4335,-1.4396,-1.4683,-1.4669,-1.471,-1.4937,-1.5023,-1.5064,-1.5064,-1.5331,-1.5498,-1.5498,-1.5705,-1.5832,-1.5832,-1.5832,-1.5832,-1.5832,-1.5832,-1.5832,-1.5832,-1.5832,-1.5832,-1.5832,-1.5832,-1.5832,-1.5832,-1.5832,-1.5832,-1.5832,-1.5832,-1.5832,-1.5832,-1.5832,-1.5832,-1.5832,-1.5832,-1.5832,-1.5832,-1.5832,-1.5832,-1.5832,-3.1386,-3.0997,-3.0821,-3.1298,-3.1022,-3.0549,-2.9965,-2.9415,-2.8751,-2.7633,-2.7024,-2.6224,-2.5126,-2.4872,-2.4372,-2.3299,-2.3135,-2.3135,-2.3135,-2.2773,-2.2373,-2.1953,-2.1113,-2.0635,-2.0566,-2.0566,-2.0371,-1.9961,-1.9932,-1.9717,-1.9316,-1.8857,-1.8562,-1.8553,-1.8193,-1.8008,-1.8008,-1.8008,-1.8008,-1.8008,-1.8008,-1.8008,-1.8008,-1.8008,-1.8008,-1.8008,-1.8008,-1.8008,-1.8008,-1.8008,-1.7432,-1.6706,-1.6636,-1.6,-1.5305,-1.5234,-1.5683,-1.6343,-1.6637,-1.699,-1.669,-1.4664,-1.4088,-1.4088,-1.4088,-1.4295,-1.4496,-1.4516,-1.4723,-1.4903,-1.493,-1.491,-1.499,-1.5257,-1.5077,-1.4997,-1.5291,-1.5097,-1.4937,-1.4963,-1.5204,-1.5364,-1.5364,-1.5625,-1.5798,-1.5798,-1.5818,-1.5832,-1.5832,-1.5832,-1.5832,-1.5832,-1.5832,-1.5832,-1.5832,-1.5832,-1.5832,-1.5832,-1.5832,-1.5832,-1.5832,-1.5832,-1.5832,-1.5832,-1.5832,-1.5832,-1.5832,-1.5832,-1.5832,-1.5832,-1.5832,-1.5832,-1.5832,-1.5832,-1.5832,-1.5832,-3.0909,-3.047,-3.0168,-3.0369,-2.9911,-2.9467,-2.9237,-2.8502,-2.779,-2.7381,-2.6187,-2.5294,-2.4872,-2.4125,-2.3551,-2.3135,-2.3135,-2.3135,-2.3135,-2.25,-2.1934,-2.1504,-2.0898,-2.0566,-2.0566,-2.0566,-2.0352,-1.9912,-1.9648,-1.9307,-1.8877,-1.8447,-1.8252,-1.8242,-1.8086,-1.8008,-1.8008,-1.8008,-1.8008,-1.8008,-1.8008,-1.8008,-1.8008,-1.8008,-1.8008,-1.8008,-1.8008,-1.8008,-1.8008,-1.8008,-1.7794,-1.7285,-1.6079,-1.5869,-1.5982,-1.5571,-1.584,-1.6149,-1.5826,-1.6009,-1.5951,-1.4496,-1.4088,-1.4088,-1.4088,-1.4309,-1.4569,-1.4756,-1.4883,-1.5017,-1.5197,-1.5084,-1.5057,-1.5351,-1.515,-1.513,-1.5598,-1.5418,-1.5297,-1.5478,-1.5598,-1.5665,-1.5665,-1.5765,-1.5832,-1.5832,-1.5832,-1.5832,-1.5832,-1.5832,-1.5832,-1.5832,-1.5832,-1.5832,-1.5832,-1.5832,-1.5832,-1.5832,-1.5832,-1.5832,-1.5832,-1.5832,-1.5832,-1.5832,-1.5832,-1.5832,-1.5832,-1.5832,-1.5832,-1.5832,-1.5832,-1.5832,-1.5832,-1.5832,-1.5832,-1.5832,-3.0357,-3.0055,-2.9792,-2.9792,-2.9426,-2.906,-2.8712,-2.7727,-2.6892,-2.6543,-2.5157,-2.4296,-2.4296,-2.3551,-2.3135,-2.3135,-2.3135,-2.3135,-2.3135,-2.2353,-2.1631,-2.1055,-2.0732,-2.0566,-2.0566,-2.043,-2.0146,-1.9717,-1.9297,-1.8867,-1.8437,-1.8144,-1.8008,-1.8008,-1.8008,-1.8008,-1.8008,-1.8008,-1.8008,-1.8008,-1.8008,-1.8008,-1.8008,-1.8008,-1.8008,-1.8008,-1.8008,-1.8008,-1.8008,-1.8008,-1.7794,-1.7364,-1.6079,-1.6158,-1.6617,-1.561,-1.581,-1.6089,-1.5043,-1.4979,-1.5061,-1.425,-1.4155,-1.4222,-1.4222,-1.4516,-1.4856,-1.5057,-1.517,-1.5297,-1.5498,-1.5371,-1.5297,-1.5504,-1.5364,-1.5378,-1.5772,-1.5658,-1.5605,-1.5805,-1.5832,-1.5832,-1.5832,-1.5832,-1.5832,-1.5832,-1.5832,-1.5832,-1.5832,-1.5832,-1.5832,-1.5832,-1.5832,-1.5832,-1.5832,-1.5832,-1.5832,-1.5832,-1.5832,-1.5832,-1.5832,-1.5832,-1.5832,-1.5832,-1.5832,-1.5832,-1.5832,-1.5832,-1.5534,-1.5242,-1.5242,-1.4949,-1.4567,-1.4567,-1.4854,-1.5242,-2.9792,-2.9792,-2.9792,-2.9792,-2.9792,-2.9378,-2.8255,-2.7209,-2.6058,-2.4957,-2.38,-2.3135,-2.3135,-2.3135,-2.3135,-2.3135,-2.3135,-2.3135,-2.3125,-2.2344,-2.1484,-2.0596,-2.0557,-2.0557,-2.0557,-2.0137,-1.9707,-1.9287,-1.8857,-1.8428,-1.8008,-1.8008,-1.8008,-1.8008,-1.8008,-1.8008,-1.8008,-1.8008,-1.8008,-1.8008,-1.8008,-1.8008,-1.8008,-1.8008,-1.8008,-1.8008,-1.8008,-1.8008,-1.8008,-1.8008,-1.7364,-1.6636,-1.6636,-1.6847,-1.6881,-1.5157,-1.5646,-1.6301,-1.4573,-1.4088,-1.4088,-1.4088,-1.4309,-1.4522,-1.4522,-1.4977,-1.5398,-1.5398,-1.5625,-1.5832,-1.5832,-1.5832,-1.5832,-1.5832,-1.5832,-1.5832,-1.5832,-1.5832,-1.5832,-1.5832,-1.5832,-1.5832,-1.5832,-1.5832,-1.5832,-1.5832,-1.5832,-1.5832,-1.5832,-1.5832,-1.5832,-1.5832,-1.5832,-1.5832,-1.5832,-1.5832,-1.5832,-1.5832,-1.5832,-1.5832,-1.5832,-1.5832,-1.5832,-1.5832,-1.5832,-1.5832,-1.5832,-1.5832,-1.5051,-1.3878,-1.3878,-1.3102,-1.1945,-1.1945,-1.2813,-1.3878,-2.9792,-2.9792,-2.9792,-2.9792,-2.9118,-2.8518,-2.8176,-2.6532,-2.521,-2.4872,-2.38,-2.3135,-2.3135,-2.3135,-2.3135,-2.3135,-2.3135,-2.2891,-2.2295,-2.1738,-2.1035,-2.0146,-2.0107,-2.0107,-2.0107,-1.998,-1.9707,-1.9287,-1.916,-1.8721,-1.8008,-1.8008,-1.8008,-1.8008,-1.8008,-1.8008,-1.8008,-1.8008,-1.8008,-1.8008,-1.8008,-1.8008,-1.8008,-1.8008,-1.8008,-1.8008,-1.8008,-1.8008,-1.8008,-1.8008,-1.7794,-1.7627,-1.7913,-1.7455,-1.6866,-1.713,-1.7294,-1.7243,-1.6532,-1.5794,-1.5111,-1.4507,-1.4456,-1.4576,-1.4783,-1.5124,-1.5398,-1.5398,-1.5625,-1.5832,-1.5832,-1.5832,-1.5832,-1.5832,-1.5832,-1.5832,-1.5832,-1.5832,-1.5832,-1.5832,-1.5832,-1.5832,-1.5832,-1.5832,-1.5832,-1.5832,-1.5832,-1.5832,-1.5832,-1.5832,-1.5832,-1.5832,-1.5832,-1.5832,-1.5832,-1.5832,-1.5832,-1.5832,-1.5832,-1.5832,-1.5832,-1.5832,-1.5832,-1.5832,-1.5832,-1.5832,-1.5832,-1.5832,-1.554,-1.5242,-1.5242,-1.4949,-1.4663,-1.4663,-1.4854,-1.5242,-2.9792,-2.9792,-2.9792,-2.9792,-2.9197,-2.8767,-2.8767,-2.7267,-2.6108,-2.6108,-2.4702,-2.38,-2.38,-2.38,-2.38,-2.38,-2.3649,-2.3088,-2.1934,-2.1475,-2.0762,-1.9707,-1.9668,-1.9668,-1.9668,-1.9502,-1.9287,-1.9023,-1.8857,-1.8516,-1.8008,-1.8008,-1.8008,-1.8008,-1.8008,-1.8008,-1.8008,-1.8008,-1.8008,-1.8008,-1.8008,-1.8008,-1.8008,-1.8008,-1.8008,-1.8008,-1.8008,-1.8008,-1.8008,-1.8008,-1.8008,-1.8057,-1.8311,-1.7894,-1.7487,-1.795,-1.7997,-1.784,-1.7418,-1.6846,-1.6141,-1.5518,-1.5034,-1.4743,-1.4923,-1.5277,-1.5565,-1.5565,-1.5705,-1.5832,-1.5832,-1.5832,-1.5832,-1.5832,-1.5832,-1.5832,-1.5832,-1.5832,-1.5832,-1.5832,-1.5832,-1.5832,-1.5832,-1.5832,-1.5832,-1.5832,-1.5832,-1.5832,-1.5832,-1.5832,-1.5832,-1.5832,-1.5832,-1.5832,-1.5832,-1.5832,-1.5832,-1.5832,-1.5832,-1.5832,-1.5832,-1.5832,-1.5832,-1.5832,-1.5832,-1.5832,-1.5832,-1.5832,-1.5146,-1.4274,-1.4854,-1.4465,-1.359,-1.4076,-1.4561,-1.5045,-2.9792,-2.9792,-2.9792,-2.9792,-2.9792,-2.9792,-2.9792,-2.8858,-2.8096,-2.8096,-2.6273,-2.4957,-2.4957,-2.4872,-2.4766,-2.4735,-2.4283,-2.3351,-2.1928,-2.1416,-2.0625,-1.9394,-1.9307,-1.9268,-1.9228,-1.8838,-1.8562,-1.8562,-1.8252,-1.8047,-1.8008,-1.8008,-1.8008,-1.8008,-1.8008,-1.8008,-1.8008,-1.8008,-1.8008,-1.8008,-1.8008,-1.8008,-1.8008,-1.8008,-1.8008,-1.8008,-1.8008,-1.8008,-1.8008,-1.8008,-1.8037,-1.8076,-1.8115,-1.8389,-1.8566,-1.8138,-1.8185,-1.8288,-1.7637,-1.7367,-1.7211,-1.6654,-1.5821,-1.501,-1.5037,-1.5451,-1.5832,-1.5832,-1.5832,-1.5832,-1.5832,-1.5832,-1.5832,-1.5832,-1.5832,-1.5832,-1.5832,-1.5832,-1.5832,-1.5832,-1.5832,-1.5832,-1.5832,-1.5832,-1.5832,-1.5832,-1.5832,-1.5832,-1.5832,-1.5832,-1.5832,-1.5832,-1.5832,-1.5832,-1.5832,-1.5832,-1.5832,-1.5832,-1.5832,-1.5832,-1.5832,-1.5832,-1.5832,-1.5832,-1.5832,-1.573,-1.5635,-1.5635,-1.4274,-1.2237,-1.3295,-1.242,-1.0583,-1.1556,-1.2721,-1.3872,-2.9792,-2.9792,-2.9792,-2.9792,-2.9792,-2.9792,-2.9792,-2.8858,-2.8096,-2.8096,-2.6953,-2.6141,-2.6141,-2.5294,-2.4651,-2.4377,-2.2808,-2.1698,-2.1377,-2.0957,-2.043,-1.9805,-1.9463,-1.9131,-1.8789,-1.8682,-1.8562,-1.8562,-1.8545,-1.833,-1.8008,-1.8008,-1.8008,-1.8008,-1.8008,-1.8008,-1.8008,-1.8008,-1.8008,-1.8008,-1.8008,-1.8008,-1.8008,-1.8008,-1.8008,-1.8008,-1.8008,-1.8008,-1.8008,-1.8008,-1.8223,-1.8555,-1.8906,-1.9072,-1.9297,-1.9831,-1.9793,-1.9383,-1.877,-1.8203,-1.7471,-1.6428,-1.5732,-1.5357,-1.5591,-1.5738,-1.5832,-1.5832,-1.5832,-1.5832,-1.5832,-1.5832,-1.5832,-1.5832,-1.5832,-1.5832,-1.5832,-1.5832,-1.5832,-1.5832,-1.5832,-1.5832,-1.5832,-1.5832,-1.5832,-1.5832,-1.5832,-1.5832,-1.5832,-1.5832,-1.5832,-1.5832,-1.5832,-1.5832,-1.5832,-1.5832,-1.5832,-1.5832,-1.5832,-1.5832,-1.5832,-1.5832,-1.5832,-1.5832,-1.5832,-1.5242,-1.4268,-1.4268,-1.3974,-1.3392,-1.2619,-1.3204,-1.437,-1.2528,-1.2721,-1.3747,-2.9792,-2.9792,-2.9792,-2.9792,-2.9792,-2.9792,-2.9792,-2.9275,-2.8937,-2.8937,-2.7464,-2.6382,-2.6228,-2.5211,-2.4366,-2.3903,-2.2763,-2.1759,-2.123,-2.081,-2.0273,-1.9639,-1.9404,-1.9082,-1.8582,-1.8437,-1.8437,-1.8562,-1.8848,-1.873,-1.8311,-1.8311,-1.8203,-1.8008,-1.8008,-1.8008,-1.8008,-1.8008,-1.8008,-1.8008,-1.8008,-1.8008,-1.8008,-1.8008,-1.8008,-1.8008,-1.8008,-1.8008,-1.8037,-1.8242,-1.8457,-1.8711,-1.915,-1.9287,-1.9414,-2.0068,-2.0088,-1.9821,-1.9314,-1.8892,-1.8246,-1.6721,-1.6161,-1.5875,-1.5644,-1.5732,-1.5832,-1.5832,-1.5832,-1.5832,-1.5832,-1.5832,-1.5832,-1.5832,-1.5832,-1.5832,-1.5832,-1.5832,-1.5832,-1.5832,-1.5832,-1.5832,-1.5832,-1.5832,-1.5832,-1.5832,-1.5832,-1.5832,-1.5832,-1.5832,-1.5832,-1.5832,-1.5832,-1.5832,-1.5832,-1.5832,-1.5832,-1.5832,-1.5832,-1.5832,-1.5832,-1.5832,-1.5832,-1.5737,-1.5146,-1.4561,-1.3872,-1.3199,-1.2915,-1.2909,-1.2915,-1.3686,-1.4752,-1.3397,-1.2909,-1.2876,-2.9792,-2.9792,-2.9792,-2.9792,-2.9792,-2.9792,-2.9792,-2.9792,-2.9792,-2.9792,-2.8039,-2.6608,-2.6109,-2.4934,-2.396,-2.3408,-2.2955,-2.2325,-2.1422,-2.085,-2.0244,-1.9541,-1.9365,-1.915,-1.8867,-1.8437,-1.8398,-1.875,-1.8965,-1.8926,-1.8562,-1.8564,-1.835,-1.8008,-1.8008,-1.8008,-1.8008,-1.8008,-1.8008,-1.8008,-1.8008,-1.8008,-1.8008,-1.8008,-1.8008,-1.8008,-1.8008,-1.8057,-1.8164,-1.8516,-1.873,-1.8906,-1.9199,-1.9385,-1.958,-1.9922,-2.0029,-1.9937,-1.9425,-1.9235,-1.8697,-1.6952,-1.6382,-1.6159,-1.5508,-1.5585,-1.5765,-1.5818,-1.5792,-1.5772,-1.5818,-1.5792,-1.5772,-1.5818,-1.5832,-1.5832,-1.5832,-1.5832,-1.5832,-1.5832,-1.5832,-1.5832,-1.5832,-1.5832,-1.5832,-1.5832,-1.5832,-1.5832,-1.5832,-1.5832,-1.5832,-1.5832,-1.5832,-1.5832,-1.5832,-1.5832,-1.5832,-1.5832,-1.5832,-1.5832,-1.5832,-1.5832,-1.5832,-1.573,-1.4657,-1.407,-1.3776,-1.2425,-1.1945,-1.1945,-1.2909,-1.3488,-1.3878,-1.3878,-1.3006,-1.2007,-2.9792,-2.9792,-2.9792,-2.9792,-2.9792,-2.9792,-2.9792,-2.9792,-2.9792,-2.9792,-2.8688,-2.7735,-2.7304,-2.5512,-2.3886,-2.2903,-2.2394,-2.2056,-2.1904,-2.1118,-2.0518,-2.04,-1.9678,-1.9424,-1.9736,-1.9326,-1.9141,-1.9199,-1.8516,-1.834,-1.8562,-1.8262,-1.8066,-1.8008,-1.8008,-1.8008,-1.8008,-1.8008,-1.8008,-1.8008,-1.8008,-1.8008,-1.8008,-1.8008,-1.8008,-1.8008,-1.8008,-1.8242,-1.8564,-1.8553,-1.9131,-1.9687,-1.9385,-1.9795,-2.04,-2.0459,-2.0478,-2.0256,-1.9329,-1.8551,-1.7728,-1.649,-1.5704,-1.521,-1.5331,-1.5424,-1.5524,-1.5778,-1.5631,-1.5531,-1.5785,-1.5625,-1.5538,-1.5792,-1.5832,-1.5832,-1.5832,-1.5832,-1.5832,-1.5832,-1.5832,-1.5832,-1.5832,-1.5832,-1.5832,-1.5832,-1.5832,-1.5832,-1.5832,-1.5832,-1.5832,-1.5832,-1.5832,-1.5832,-1.5832,-1.5832,-1.5832,-1.5832,-1.5832,-1.5832,-1.5832,-1.5832,-1.5832,-1.5825,-1.5635,-1.4949,-1.3776,-1.2425,-1.1945,-1.1848,-1.0877,-1.194,-1.3878,-1.3878,-1.3006,-1.1889,-2.9792,-2.9792,-2.9792,-2.9792,-2.9792,-2.9792,-2.9792,-2.9792,-2.9792,-2.9792,-2.8767,-2.7787,-2.7043,-2.5113,-2.3466,-2.2408,-2.2153,-2.1811,-2.1221,-2.0867,-2.0459,-2.0215,-1.9834,-1.9609,-1.957,-1.9141,-1.9043,-1.9287,-1.9385,-1.9287,-1.8994,-1.8809,-1.8467,-1.8008,-1.8008,-1.8008,-1.8008,-1.8008,-1.8008,-1.8008,-1.8008,-1.8008,-1.8008,-1.8008,-1.8008,-1.8008,-1.8008,-1.8125,-1.8359,-1.8838,-1.9258,-1.9619,-1.9912,-2.0264,-2.0566,-2.0566,-2.0566,-2.0293,-1.8734,-1.8095,-1.7375,-1.5605,-1.5082,-1.4997,-1.5124,-1.5284,-1.5656,-1.6699,-1.6743,-1.6693,-1.6828,-1.6736,-1.6514,-1.59,-1.5832,-1.5832,-1.5832,-1.5832,-1.5832,-1.5832,-1.5832,-1.5832,-1.5832,-1.5832,-1.5832,-1.5832,-1.5832,-1.5832,-1.5832,-1.5832,-1.5832,-1.5832,-1.5832,-1.5832,-1.5832,-1.5832,-1.5832,-1.5832,-1.5832,-1.5832,-1.5832,-1.5832,-1.5832,-1.573,-1.5045,-1.3974,-1.2716,-1.1361,-1.0877,-1.0877,-1.0974,-1.2231,-1.3878,-1.3878,-1.2918,-1.1607]},{"header":{"parameterUnit":"m.s-1","parameterCategory":1,"la1":30.6,"la2":28.766,"lo1":-90.7593,"lo2":-88.6598,"dy":0.0162,"dx":0.0183,"nx":116,"ny":114,"refTime":"2023-08-11T06:00:00:Z","depth":0,"parameterNumber":3,"parameterNumberName":"V-component_of_WINDS"},"data":[0.0,0.0,0.0,0.0,0.0,0.0,0.0,0.0,0.0,0.0,0.0,0.0,0.0,0.0,0.0,0.0,0.0,0.0,0.0,0.0,0.0,0.0,0.0,0.0,0.0,0.0,0.0,0.0,0.0,0.0,0.0,0.0,0.0,0.0,0.0,0.0,0.0,0.0,0.0,0.0,0.0,0.0,0.0,0.0,0.0,0.0,0.0,0.0,0.0,0.0,0.0,0.0,0.0,0.0,0.0,0.0,0.0,0.0,0.0,0.0,0.0,0.0,0.0,0.0,0.0,0.0,0.0,0.0,0.0,0.0,0.0,0.0,0.0,0.0,0.0,0.0,0.0,0.0,0.0,0.0,0.0,0.0,0.0,0.0,0.0,0.0,0.0,0.0,0.0,0.0,0.0,0.0,0.0,0.0,0.0,0.0,0.0,0.0,0.0,0.0,0.0,0.0,0.0,0.0,0.0,0.0,0.0,0.0,0.0,0.0,0.0,0.0,0.0,0.0,0.0,0.0,0.0,0.0,0.0,0.0,0.0,0.0,0.0,0.0,0.0,0.0,0.0,0.0,0.0,0.0,0.0,0.0,0.0,0.0,0.0,0.0,0.0,0.0,0.0,0.0,0.0,0.0,0.0,0.0,0.0,0.0,0.0,0.0,0.0,0.0,0.0,0.0,0.0,0.0,0.0,0.0,0.0,0.0,0.0,0.0,0.0,0.0,0.0,0.0,0.0,0.0,0.0,0.0,0.0,0.0,0.0,0.0,0.0,0.0,0.0,0.0,0.0,0.0,0.0,0.0,0.0,0.0,0.0,0.0,0.0,0.0,0.0,0.0,0.0,0.0,0.0,0.0,0.0,0.0,0.0,0.0,0.0,0.0,0.0,0.0,0.0,0.0,0.0,0.0,0.0,0.0,0.0,0.0,0.0,0.0,0.0,0.0,0.0,0.0,0.0,0.0,0.0,0.0,0.0,0.0,0.0,0.0,0.0,0.0,0.0,0.0,0.0,0.0,0.0,0.0,0.0,0.0,0.0,0.0,0.0,0.0,0.0,0.0,0.0,0.0,0.0,0.0,0.0,0.0,0.0,0.0,0.0,0.0,0.0,0.0,0.0,0.0,0.0,0.0,0.0,0.0,0.0,0.0,0.0,0.0,0.0,0.0,0.0,0.0,0.0,0.0,0.0,0.0,0.0,0.0,0.0,0.0,0.0,0.0,0.0,0.0,0.0,0.0,0.0,0.0,0.0,0.0,0.0,0.0,0.0,0.0,0.0,0.0,0.0,0.0,0.0,0.0,0.0,0.0,0.0,0.0,0.0,0.0,0.0,0.0,0.0,0.0,0.0,0.0,0.0,0.0,0.0,0.0,0.0,0.0,0.0,0.0,0.0,0.0,0.0,0.0,0.0,0.0,0.0,0.0,0.0,0.0,0.0,0.0,0.0,0.0,0.0,0.0,0.0,0.0,0.0,0.0,0.0,0.0,0.0,0.0,0.0,0.0,0.0,0.0,0.0,0.0,0.0,0.0,0.0,0.0,0.0,0.0,0.0,0.0,0.0,0.0,0.0,0.0,0.0,0.0,0.0,0.0,0.0,0.0,0.0,0.0,0.0,0.0,0.0,0.0,0.0,0.0,0.0,0.0,0.0,0.0,0.0,0.0,0.0,0.0,0.0,0.0,0.0,0.0,0.0,0.0,0.0,0.0,0.0,0.0,0.0,0.0,0.0,0.0,0.0,0.0,0.0,0.0,0.0,0.0,0.0,0.0,0.0,0.0,0.0,0.0,0.0,0.0,0.0,0.0,0.0,0.0,0.0,0.0,0.0,0.0,0.0,0.0,0.0,0.0,0.0,0.0,0.0,0.0,0.0,0.0,0.0,0.0,0.0,0.0,0.0,0.0,0.0,0.0,0.0,0.0,0.0,0.0,0.0,0.0,0.0,0.0,0.0,0.0,0.0,0.0,0.0,0.0,0.0,0.0,0.0,0.0,0.0,0.0,0.0,0.0,0.0,0.0,0.0,0.0,0.0,0.0,0.0,0.0,0.0,0.0,0.0,0.0,0.0,0.0,0.0,0.0,0.0,0.0,0.0,0.0,0.0,0.0,0.0,0.0,0.0,0.0,0.0,0.0,0.0,0.0,0.0,0.0,0.0,0.0,0.0,0.0,0.0,0.0,0.0,0.0,0.0,0.0,0.0,0.0,0.0,0.0,0.0,0.0,0.0,0.0,0.0,0.0,0.0,0.0,0.0,0.0,0.0,0.0,0.0,0.0,0.0,0.0,0.0,0.0,0.0,0.0,0.0,0.0,0.0,0.0,0.0,0.0,0.0,0.0,0.0,0.0,0.0,0.0,0.0,0.0,0.0,0.0,0.0,0.0,0.0,0.0,0.0,0.0,0.0,0.0,0.0,0.0,0.0,0.0,0.0,0.0,0.0,0.0,0.0,0.0,0.0,0.0,0.0,0.0,0.0,0.0,0.0,0.0,0.0,0.0,0.0,0.0,0.0,0.0,0.0,0.0,0.0,0.0,0.0,0.0,0.0,0.0,0.0,0.0,0.0,0.0,0.0,0.0,0.0,0.0,0.0,0.0,0.0,0.0,0.0,0.0,0.0,0.0,0.0,0.0,0.0,0.0,0.0,0.0,0.0,0.0,0.0,0.0,0.0,0.0,0.0,0.0,0.0,0.0,0.0,0.0,0.0,0.0,0.0,0.0,0.0,0.0,0.0,0.0,0.0,0.0,0.0,0.0,0.0,0.0,0.0,0.0,0.0,0.0,0.0,0.0,0.0,0.0,0.0,0.0,0.0,0.0,0.0,0.0,0.0,0.0,0.0,0.0,0.0,0.0,0.0,0.0,0.0,0.0,0.0,0.0,0.0,0.0,0.0,0.0,0.0,0.0,0.0,0.0,0.0,0.0,0.0,0.0,0.0,0.0,0.0,0.0,0.0,0.0,0.0,0.0,0.0,0.0,0.0,0.0,0.0,0.0,0.0,0.0,0.0,0.0,0.0,0.0,0.0,0.0,0.0,0.0,0.0,0.0,0.0,0.0,0.0,0.0,0.0,0.0,0.0,0.0,0.0,0.0,0.0,0.0,0.0,0.0,0.0,0.0,0.0,0.0,0.0,0.0,0.0,0.0,0.0,0.0,0.0,0.0,0.0,0.0,0.0,0.0,0.0,0.0,0.0,0.0,0.0,0.0,0.0,0.0,0.0,0.0,0.0,0.0,0.0,0.0,0.0,0.0,0.0,0.0,0.0,0.0,0.0,0.0,0.0,0.0,0.0,0.0,0.0,0.0,0.0,0.0,0.0,0.0,0.0,0.0,0.0,0.0,0.0,0.0,0.0,0.0,0.0,0.0,0.0,0.0,0.0,0.0,0.0,0.0,0.0,0.0,0.0,0.0,0.0,0.0,0.0,0.0,0.0,0.0,0.0,0.0,0.0,0.0,0.0,0.0,0.0,0.0,0.0,0.0,0.0,0.0,0.0,0.0,0.0,0.0,0.0,0.0,0.0,0.0,0.0,0.0,0.0,0.0,0.0,0.0,0.0,0.0,0.0,0.0,0.0,0.0,0.0,0.0,0.0,0.0,0.0,0.0,0.0,0.0,0.0,0.0,0.0,0.0,0.0,0.0,0.0,0.0,0.0,0.0,0.0,0.0,0.0,0.0,0.0,0.0,0.0,0.0,0.0,0.0,0.0,0.0,0.0,0.0,0.0,0.0,0.0,0.0,0.0,0.0,0.0,0.0,0.0,0.0,0.0,0.0,0.0,0.0,0.0,0.0,0.0,0.0,0.0,0.0,0.0,0.0,0.0,0.0,0.0,0.0,0.0,0.0,0.0,0.0,0.0,0.0,0.0,0.0,0.0,0.0,0.0,0.0,0.0,0.0,0.0,0.0,0.0,0.0,0.0,0.0,0.0,0.0,0.0,0.0,0.0,0.0,0.0,0.0,0.0,0.0,0.0,0.0,0.0,0.0,0.0,0.0,0.0,0.0,0.0,0.0,0.0,0.0,0.0,0.0,0.0,0.0,0.0,0.0,0.0,0.0,0.0,0.0,0.0,0.0,0.0,0.0,0.0,0.0,0.0,0.0,0.0,0.0,0.0,0.0,0.0,0.0,0.0,0.0,0.0,0.0,0.0,0.0,0.0,0.0,0.0,0.0,0.0,0.0,0.0,0.0,0.0,0.0,0.0,0.0,0.0,0.0,0.0,0.0,0.0,0.0,0.0,0.0,0.0,0.0,0.0,0.0,0.0,0.0,0.0,0.0,0.0,0.0,0.0,0.0,0.0,0.0,0.0,0.0,0.0,0.0,0.0,0.0,0.0,0.0,0.0,0.0,0.0,0.0,0.0,0.0,0.0,0.0,0.0,0.0,0.0,0.0,0.0,0.0,0.0,0.0,0.0,0.0,0.0,0.0,0.0,0.0,0.0,0.0,0.0,0.0,0.0,0.0,0.0,0.0,0.0,0.0,0.0,0.0,0.0,0.0,0.0,0.0,0.0,0.0,0.0,0.0,0.0,0.0,0.0,0.0,0.0,0.0,0.0,0.0,0.0,0.0,0.0,0.0,0.0,0.0,0.0,0.0,0.0,0.0,0.0,0.0,0.0,0.0,0.0,0.0,0.0,0.0,0.0,0.0,0.0,0.0,0.0,0.0,0.0,0.0,0.0,0.0,0.0,0.0,0.0,0.0,0.0,0.0,0.0,0.0,0.0,0.0,0.0,0.0,0.0,0.0,0.0,0.0,0.0,0.0,0.0,0.0,0.0,0.0,0.0,0.0,0.0,0.0,0.0,0.0,0.0,0.0,0.0,0.0,0.0,0.0,0.0,0.0,0.0,0.0,0.0,0.0,0.0,0.0,0.0,0.0,0.0,0.0,0.0,0.0,0.0,0.0,0.0,0.0,0.0,0.0,0.0,0.0,0.0,0.0,0.0,0.0,0.0,0.0,0.0,0.0,0.0,0.0,0.0,0.0,0.0,0.0,0.0,0.0,0.0,0.0,0.0,0.0,0.0,0.0,0.0,0.0,0.0,0.0,0.0,0.0,0.0,0.0,0.0,0.0,0.0,0.0,0.0,0.0,0.0,0.0,0.0,0.0,0.0,0.0,0.0,0.0,0.0,0.0,0.0,0.0,0.0,0.0,0.0,0.0,0.0,0.0,0.0,0.0,0.0,0.0,0.0,0.0,0.0,0.0,0.0,0.0,0.0,0.0,0.0,0.0,0.0,0.0,0.0,0.0,0.0,0.0,0.0,0.0,0.0,0.0,0.0,0.0,0.0,0.0,0.0,0.0,0.0,0.0,0.0,0.0,0.0,0.0,0.0,0.0,0.0,0.0,0.0,0.0,0.0,0.0,0.0,0.0,0.0,0.0,0.0,0.0,0.0,0.0,0.0,0.0,0.0,0.0,0.0,0.0,0.0,0.0,0.0,0.0,0.0,0.0,0.0,0.0,0.0,0.0,0.0,0.0,0.0,0.0,0.0,0.0,0.0,0.0,0.0,0.0,0.0,0.0,0.0,0.0,0.0,0.0,0.0,0.0,0.0,0.0,0.0,0.0,0.0,0.0,0.0,0.0,0.0,0.0,0.0,0.0,0.0,0.0,0.0,0.0,0.0,0.0,0.0,0.0,0.0,0.0,0.0,0.0,0.0,0.0,0.0,0.0,0.0,0.0,0.0,0.0,0.0,0.0,0.0,0.0,0.0,0.0,0.0,0.0,0.0,0.0,0.0,0.0,0.0,0.0,0.0,0.0,0.0,0.0,0.0,0.0,0.0,0.0,0.0,0.0,0.0,0.0,0.0,0.0,0.0,0.0,0.0,0.0,0.0,0.0,0.0,0.0,0.0,0.0,0.0,0.0,0.0,0.0,0.0,0.0,0.0,0.0,0.0,0.0,0.0,0.0,0.0,0.0,0.0,0.0,0.0,0.0,0.0,0.0,0.0,0.0,0.0,0.0,0.0,0.0,0.0,0.0,0.0,0.0,0.0,0.0,0.0,0.0,0.0,0.0,0.0,0.0,0.0,0.0,0.0,0.0,0.0,0.0,0.0,0.0,0.0,0.0,0.0,0.0,0.0,0.0,0.0,0.0,0.0,0.0,0.0,0.0,-4.4048,-4.3938,0.0,0.0,0.0,0.0,0.0,0.0,0.0,0.0,0.0,0.0,0.0,0.0,0.0,0.0,0.0,0.0,0.0,0.0,0.0,0.0,0.0,0.0,0.0,0.0,0.0,0.0,0.0,0.0,0.0,0.0,0.0,0.0,0.0,0.0,0.0,0.0,0.0,0.0,0.0,0.0,0.0,0.0,0.0,0.0,0.0,0.0,0.0,0.0,0.0,0.0,0.0,0.0,0.0,0.0,0.0,0.0,0.0,0.0,0.0,0.0,0.0,0.0,0.0,0.0,0.0,0.0,0.0,0.0,0.0,0.0,0.0,0.0,0.0,0.0,0.0,0.0,0.0,0.0,0.0,0.0,0.0,0.0,0.0,0.0,0.0,0.0,0.0,0.0,0.0,0.0,0.0,0.0,0.0,0.0,0.0,0.0,0.0,0.0,0.0,0.0,0.0,0.0,0.0,0.0,0.0,0.0,0.0,0.0,0.0,0.0,0.0,0.0,0.0,0.0,-4.7223,-4.6361,0.0,0.0,0.0,0.0,0.0,0.0,0.0,0.0,0.0,0.0,0.0,0.0,0.0,0.0,0.0,0.0,0.0,0.0,0.0,0.0,0.0,0.0,0.0,0.0,0.0,0.0,0.0,0.0,0.0,0.0,0.0,0.0,0.0,0.0,0.0,0.0,0.0,0.0,0.0,0.0,0.0,0.0,0.0,0.0,0.0,0.0,0.0,0.0,0.0,0.0,0.0,0.0,0.0,0.0,0.0,0.0,0.0,0.0,0.0,0.0,0.0,0.0,0.0,0.0,0.0,0.0,0.0,0.0,0.0,0.0,0.0,0.0,0.0,0.0,0.0,0.0,0.0,0.0,0.0,0.0,0.0,0.0,0.0,0.0,0.0,0.0,0.0,0.0,0.0,0.0,0.0,0.0,0.0,0.0,0.0,0.0,0.0,0.0,0.0,0.0,0.0,0.0,0.0,0.0,0.0,0.0,0.0,0.0,-4.9389,-5.0453,-5.1022,-5.14,-5.1551,-5.1532,-5.1226,-4.9879,-4.7868,-4.7776,0.0,0.0,0.0,0.0,0.0,0.0,0.0,0.0,0.0,0.0,0.0,0.0,0.0,0.0,0.0,0.0,0.0,0.0,0.0,0.0,0.0,0.0,0.0,0.0,0.0,0.0,0.0,0.0,0.0,0.0,0.0,0.0,0.0,0.0,0.0,0.0,0.0,0.0,0.0,0.0,0.0,0.0,0.0,0.0,0.0,0.0,0.0,0.0,0.0,0.0,0.0,0.0,0.0,0.0,0.0,0.0,0.0,0.0,0.0,0.0,0.0,0.0,0.0,0.0,0.0,0.0,0.0,0.0,0.0,0.0,0.0,0.0,0.0,0.0,0.0,0.0,0.0,0.0,0.0,0.0,0.0,0.0,0.0,0.0,0.0,0.0,-4.1882,-4.1185,0.0,0.0,0.0,0.0,0.0,0.0,0.0,0.0,0.0,0.0,0.0,0.0,0.0,-4.7865,-4.8618,-5.0215,-5.0784,-5.0343,-5.194,-5.2417,-5.1908,-5.3697,-5.454,-5.4615,-5.6326,0.0,-5.0906,-5.0466,0.0,0.0,0.0,0.0,0.0,0.0,0.0,0.0,0.0,0.0,0.0,0.0,0.0,0.0,0.0,0.0,0.0,0.0,0.0,0.0,0.0,0.0,0.0,0.0,0.0,0.0,0.0,0.0,0.0,0.0,0.0,0.0,0.0,0.0,0.0,0.0,0.0,0.0,0.0,0.0,0.0,0.0,0.0,0.0,0.0,0.0,0.0,0.0,0.0,0.0,0.0,0.0,0.0,0.0,0.0,0.0,0.0,0.0,0.0,0.0,0.0,0.0,0.0,0.0,0.0,0.0,0.0,0.0,0.0,0.0,0.0,0.0,0.0,0.0,0.0,0.0,0.0,0.0,0.0,0.0,0.0,0.0,0.0,0.0,0.0,-4.3149,-4.3351,-4.2543,-4.2855,-4.2635,0.0,0.0,0.0,0.0,0.0,0.0,0.0,0.0,0.0,-4.7425,-4.893,-5.0105,-5.093,-5.2087,-5.2949,-5.35,-5.494,-5.5677,-5.5788,-5.6987,-5.7507,-5.758,-5.8759,-5.8135,-5.6192,-5.4352,-5.3086,-5.2199,0.0,0.0,0.0,0.0,-5.1414,-5.1033,0.0,0.0,0.0,0.0,0.0,0.0,0.0,0.0,0.0,0.0,0.0,0.0,0.0,0.0,0.0,0.0,0.0,0.0,0.0,0.0,0.0,0.0,0.0,0.0,0.0,0.0,0.0,0.0,0.0,0.0,0.0,0.0,0.0,0.0,0.0,0.0,0.0,0.0,0.0,0.0,0.0,0.0,0.0,0.0,0.0,0.0,0.0,0.0,0.0,0.0,0.0,0.0,0.0,0.0,0.0,0.0,0.0,0.0,0.0,0.0,0.0,0.0,0.0,0.0,0.0,0.0,0.0,0.0,0.0,0.0,0.0,0.0,0.0,0.0,0.0,0.0,0.0,-4.4727,-4.5094,-4.3663,-4.4929,-4.5131,0.0,0.0,0.0,0.0,0.0,0.0,-4.8269,-4.9517,-5.0563,-5.1408,-5.2417,-5.3335,-5.4142,-5.4546,-5.5423,-5.6694,-5.7695,-5.8402,-5.8932,-5.9807,-5.9975,-5.9611,-6.0332,-6.0474,-6.0092,-5.7492,-5.5864,-5.4876,-5.4085,-5.38,-5.392,-5.4811,-5.4575,-5.4068,0.0,0.0,0.0,0.0,0.0,0.0,0.0,0.0,0.0,0.0,0.0,0.0,0.0,0.0,0.0,0.0,0.0,0.0,0.0,0.0,0.0,0.0,0.0,0.0,0.0,0.0,0.0,0.0,0.0,0.0,0.0,0.0,0.0,0.0,0.0,0.0,0.0,0.0,0.0,0.0,0.0,0.0,0.0,0.0,0.0,0.0,0.0,0.0,0.0,0.0,0.0,0.0,0.0,0.0,0.0,0.0,0.0,0.0,0.0,0.0,0.0,0.0,0.0,0.0,0.0,0.0,0.0,0.0,0.0,0.0,0.0,0.0,0.0,0.0,0.0,0.0,0.0,0.0,0.0,-4.3864,-4.6911,0.0,0.0,0.0,0.0,-4.8049,-5.0233,-5.1628,-5.1738,-5.3959,-5.5592,-5.6418,-5.7978,-5.9171,-5.9979,-5.9281,-5.9171,-5.9673,-5.9793,-5.972,-5.9446,-6.1489,-6.156,-6.0141,-6.1441,-6.1527,-6.0623,-5.8889,-5.8581,-5.9023,-5.7412,-5.6799,-5.6799,-5.6838,-5.6838,-5.6819,0.0,0.0,0.0,0.0,0.0,0.0,0.0,0.0,0.0,0.0,0.0,0.0,0.0,0.0,0.0,0.0,0.0,0.0,0.0,0.0,0.0,0.0,0.0,0.0,0.0,0.0,0.0,0.0,0.0,0.0,0.0,0.0,0.0,0.0,0.0,0.0,0.0,0.0,0.0,0.0,0.0,0.0,0.0,0.0,0.0,0.0,0.0,0.0,0.0,0.0,0.0,0.0,0.0,0.0,0.0,0.0,0.0,0.0,0.0,0.0,0.0,0.0,0.0,0.0,0.0,0.0,0.0,0.0,0.0,0.0,0.0,0.0,0.0,0.0,0.0,0.0,0.0,0.0,0.0,-4.7553,-5.0508,0.0,-4.9609,-5.0637,-5.1885,-5.2913,-5.3812,-5.4987,-5.6565,-5.7464,-5.829,-5.9098,-5.9685,-6.0277,-6.0907,-6.0611,-6.0464,-6.0398,-6.0758,-6.0524,-5.9924,-6.1543,-6.1646,-6.061,-6.1637,-6.1608,-6.0742,-6.0165,-6.0089,-6.0281,-5.9685,-5.9454,-5.9454,-5.9454,-5.9454,-5.9454,0.0,0.0,0.0,0.0,0.0,0.0,0.0,0.0,0.0,0.0,0.0,0.0,0.0,0.0,0.0,0.0,0.0,0.0,0.0,0.0,0.0,0.0,0.0,0.0,0.0,0.0,0.0,0.0,0.0,0.0,0.0,0.0,0.0,0.0,0.0,0.0,0.0,0.0,0.0,0.0,0.0,0.0,-4.3754,0.0,0.0,0.0,0.0,0.0,0.0,0.0,0.0,0.0,0.0,0.0,0.0,0.0,0.0,0.0,0.0,0.0,0.0,0.0,0.0,0.0,0.0,0.0,0.0,0.0,0.0,0.0,0.0,0.0,0.0,0.0,0.0,0.0,0.0,-4.9095,-5.0967,-5.0453,-5.372,-5.539,-5.3775,-5.484,-5.618,-5.7519,-5.8143,-5.9043,-6.0364,-6.097,-6.1245,-6.1208,-6.164,-6.191,-6.201,-6.1902,-6.1808,-6.1761,-6.209,-6.1869,-6.1218,-6.2394,-6.232,-6.1262,-6.1839,-6.1608,-6.08,-6.08,-6.08,-6.08,-6.08,-6.08,-6.0839,-6.1127,-6.105,-6.08,0.0,0.0,0.0,0.0,0.0,0.0,0.0,0.0,0.0,0.0,0.0,0.0,0.0,0.0,0.0,0.0,0.0,0.0,0.0,0.0,0.0,0.0,0.0,0.0,0.0,0.0,0.0,0.0,0.0,0.0,0.0,0.0,0.0,0.0,0.0,0.0,0.0,0.0,0.0,0.0,0.0,0.0,-4.458,0.0,0.0,0.0,0.0,0.0,0.0,0.0,0.0,0.0,0.0,0.0,0.0,0.0,0.0,0.0,0.0,0.0,0.0,0.0,0.0,0.0,0.0,0.0,0.0,0.0,0.0,0.0,0.0,0.0,0.0,0.0,0.0,0.0,-4.7443,-5.1463,-5.3922,-5.2399,-5.6436,-5.8712,-5.7152,-5.9153,-6.0878,-6.1649,-6.3209,-6.3759,-6.2934,-6.442,-6.4618,-6.2983,-6.4216,-6.4469,-6.373,-6.3368,-6.3429,-6.386,-6.389,-6.3695,-6.3339,-6.4166,-6.3666,-6.2089,-6.2089,-6.1608,-6.08,-6.08,-6.08,-6.08,-6.08,-6.08,-6.0896,-6.1743,-6.1512,-6.08,0.0,0.0,0.0,0.0,0.0,0.0,0.0,0.0,0.0,0.0,0.0,0.0,0.0,0.0,0.0,0.0,0.0,0.0,0.0,0.0,0.0,0.0,0.0,0.0,0.0,0.0,0.0,0.0,0.0,0.0,0.0,0.0,0.0,0.0,0.0,0.0,0.0,0.0,0.0,0.0,0.0,0.0,-4.3864,0.0,0.0,0.0,0.0,0.0,0.0,0.0,0.0,0.0,0.0,0.0,0.0,0.0,0.0,0.0,0.0,0.0,0.0,0.0,0.0,0.0,0.0,0.0,0.0,0.0,0.0,0.0,0.0,0.0,0.0,0.0,-4.9793,-5.1995,-5.2344,-5.4564,-5.6418,-5.7134,-5.9942,-6.1649,-6.1208,-6.286,-6.4053,-6.4273,-6.4714,-6.5027,-6.519,-6.5617,-6.5866,-6.5778,-6.615,-6.637,-6.6514,-6.5821,-6.5448,-6.5325,-6.4711,-6.4033,-6.332,-6.3551,-6.3089,-6.2089,-6.2089,-6.1608,-6.08,-6.08,-6.08,-6.08,-6.08,-6.08,-6.0796,-6.0679,-6.0502,-6.0291,0.0,0.0,0.0,0.0,0.0,0.0,0.0,0.0,0.0,0.0,0.0,0.0,0.0,0.0,0.0,0.0,0.0,0.0,0.0,0.0,0.0,0.0,0.0,0.0,0.0,0.0,0.0,0.0,0.0,0.0,0.0,0.0,0.0,0.0,0.0,0.0,0.0,0.0,0.0,0.0,0.0,0.0,-4.548,-4.5278,-4.5626,-4.6067,-4.4911,-4.57,-4.7021,-4.5131,0.0,0.0,0.0,0.0,0.0,0.0,0.0,0.0,0.0,0.0,0.0,0.0,0.0,0.0,0.0,0.0,0.0,0.0,0.0,0.0,0.0,0.0,0.0,0.0,-5.3225,-5.5849,-5.7666,-5.8437,-5.9428,-6.1062,-6.2805,-6.4127,-6.4787,-6.543,-6.6158,-6.7073,-6.6814,-6.6749,-6.6954,-6.7254,-6.7274,-6.6899,-6.7411,-6.7512,-6.7082,-6.6831,-6.6413,-6.5878,-6.5397,-6.4878,-6.4359,-6.3628,-6.3051,-6.2551,-6.1858,-6.1262,-6.0781,-6.0578,-6.0508,-6.0508,0.0,0.0,0.0,0.0,-6.0224,-6.038,0.0,0.0,0.0,0.0,0.0,0.0,0.0,0.0,0.0,0.0,0.0,0.0,0.0,0.0,0.0,0.0,0.0,0.0,0.0,0.0,0.0,0.0,0.0,0.0,0.0,0.0,0.0,0.0,0.0,0.0,0.0,0.0,0.0,0.0,0.0,0.0,0.0,0.0,0.0,0.0,0.0,0.0,-4.7884,-4.6544,-4.6929,-4.7976,-4.6434,-4.6195,-4.6526,-4.6213,0.0,0.0,0.0,0.0,0.0,0.0,0.0,0.0,0.0,0.0,0.0,0.0,0.0,0.0,0.0,0.0,0.0,0.0,0.0,0.0,0.0,0.0,0.0,0.0,-5.7354,-5.9593,-6.2658,-6.2548,-6.2658,-6.4071,-6.4952,-6.5999,-6.7412,-6.7043,-6.7539,-6.9543,-6.908,-6.8653,-6.8467,-6.9168,0.0,0.0,0.0,-6.8215,-6.6784,-6.6987,-6.6744,-6.6032,-6.5936,-6.584,-6.5705,-6.4051,-6.3262,-6.307,-6.1426,-6.0714,-6.069,-6.0189,-6.0025,-6.0025,-6.0025,-6.0025,-6.0025,-6.0025,-6.0298,-6.0648,0.0,0.0,0.0,0.0,0.0,0.0,0.0,0.0,0.0,0.0,0.0,0.0,0.0,0.0,0.0,0.0,0.0,0.0,0.0,0.0,0.0,0.0,0.0,0.0,0.0,0.0,0.0,0.0,0.0,0.0,0.0,0.0,0.0,0.0,0.0,0.0,0.0,0.0,0.0,0.0,0.0,0.0,-4.6397,-4.6746,-4.7076,-4.7223,-4.625,-4.8012,-5.0478,-4.8208,-4.9164,-5.102,-4.93,0.0,0.0,0.0,0.0,0.0,0.0,0.0,0.0,0.0,0.0,0.0,0.0,0.0,0.0,0.0,0.0,0.0,0.0,0.0,0.0,-5.7152,-5.9979,-6.2567,-6.4549,-6.5246,-6.543,-6.5118,-6.5778,-6.6384,-6.6696,-6.758,-6.8602,-6.9714,-7.0042,-7.0378,-7.0737,-7.0889,-7.072,-7.0133,-6.974,-6.9385,-6.9058,-6.7756,-6.7013,-6.6859,-6.6205,0.0,-6.482,-6.3782,-6.2954,-6.2262,-6.0851,-6.0236,-6.0208,-5.9741,-5.9545,-5.9545,-5.9545,-5.9545,-5.9545,-5.9545,-5.9804,-6.0224,0.0,0.0,0.0,0.0,0.0,0.0,0.0,0.0,0.0,0.0,0.0,0.0,0.0,0.0,0.0,0.0,0.0,0.0,0.0,0.0,0.0,0.0,0.0,0.0,0.0,0.0,0.0,0.0,0.0,0.0,0.0,0.0,0.0,0.0,0.0,0.0,0.0,0.0,0.0,0.0,0.0,0.0,-4.7476,-4.8126,-4.8324,-4.8344,-4.8569,-4.9418,-5.038,-5.0025,-5.071,-5.1625,-5.1225,-5.0544,-4.9632,0.0,0.0,0.0,0.0,0.0,0.0,0.0,0.0,0.0,0.0,0.0,0.0,0.0,0.0,-5.2013,-5.4032,0.0,-5.7721,-6.0584,-6.275,-6.4577,-6.6088,-6.7339,-6.7737,-6.6639,-6.7082,-6.7654,-6.806,-6.8586,-6.9547,-7.1086,-7.0687,-7.0756,-7.1758,-7.1394,-7.1064,-7.0918,-7.0129,-6.9494,-6.9052,-6.7744,-6.6898,-6.6494,-6.5647,-6.5013,-6.4551,-6.3027,-6.2123,-6.1682,-6.0327,-5.9741,-5.9741,-5.9511,-5.9389,-5.9389,-5.9389,-5.9389,-5.9424,-5.9677,-5.9885,-6.0132,0.0,0.0,0.0,0.0,0.0,0.0,0.0,0.0,0.0,0.0,0.0,0.0,0.0,0.0,0.0,0.0,0.0,0.0,0.0,0.0,0.0,0.0,0.0,0.0,0.0,0.0,0.0,0.0,0.0,0.0,0.0,0.0,0.0,0.0,0.0,0.0,0.0,0.0,0.0,0.0,0.0,0.0,-4.9295,-4.9676,-4.9787,-4.9843,-5.0738,-5.0262,-4.9543,-5.1477,-5.1689,-5.1424,-5.2978,-5.2752,-5.171,-5.0489,-5.0741,0.0,0.0,0.0,0.0,0.0,0.0,0.0,0.0,-5.0342,-5.1206,-5.2543,-5.3394,-5.4858,-5.8088,-5.9079,-6.0548,-6.3998,-6.5312,-6.6315,-6.7403,-6.88,-6.9304,-6.8139,-6.8517,-6.9164,-6.9818,-6.9618,-7.0252,-7.2233,-7.1193,-7.0999,-7.2149,-7.136,-7.0821,-7.0667,-6.9706,-6.8859,-6.8148,-6.7128,-6.6282,-6.5628,-6.4648,-6.4123,-6.3931,-6.2079,-6.1176,-6.0955,-5.976,-5.9248,-5.9248,-5.9248,-5.9354,-5.9545,-5.9545,-5.9611,-5.9709,-5.9977,-6.0161,-6.0291,0.0,0.0,0.0,0.0,0.0,0.0,0.0,0.0,0.0,0.0,0.0,0.0,0.0,0.0,0.0,0.0,0.0,0.0,0.0,0.0,0.0,0.0,0.0,0.0,0.0,0.0,0.0,0.0,0.0,0.0,0.0,0.0,0.0,0.0,0.0,0.0,0.0,0.0,0.0,0.0,0.0,0.0,-5.0508,-5.056,-5.0597,-5.0553,-4.9943,-5.0037,-5.07,-5.2072,-5.2463,-5.2895,-5.5646,-5.541,-5.3949,-5.3028,0.0,-4.9433,-4.8279,-4.824,-4.9009,-5.0991,-5.1087,-5.189,0.0,-5.6739,-5.6321,-5.76,-5.9287,-6.0658,-6.1098,-6.3007,-6.4879,-6.6035,-6.7302,-6.8174,-6.8343,-6.8928,-6.9303,-6.9167,-6.9849,-7.038,-7.0475,-7.0194,-7.0442,-7.1468,-7.1789,-7.2044,-7.2187,-7.136,-7.0571,-6.986,-6.8244,-6.734,-6.7244,-6.5667,-6.4839,-6.4743,-6.3427,-6.2461,-6.1755,-6.1074,-6.0361,-5.9609,-5.9008,-5.8775,-5.8775,-5.8775,-5.9248,-6.0025,-6.0025,-6.0264,-6.0597,-6.0236,-6.0365,-6.0734,0.0,0.0,0.0,0.0,0.0,0.0,0.0,0.0,0.0,0.0,0.0,0.0,0.0,0.0,0.0,0.0,0.0,0.0,0.0,0.0,0.0,0.0,0.0,0.0,0.0,0.0,0.0,0.0,0.0,0.0,0.0,0.0,0.0,0.0,0.0,0.0,0.0,0.0,0.0,0.0,0.0,0.0,-5.1068,-5.1068,-5.0932,-5.0737,-5.0589,-5.0149,0.0,0.0,-5.1497,-5.188,-5.4084,-5.3953,-5.2818,-5.1991,-5.1318,0.0,-5.1029,-5.1068,-5.1318,-5.2395,-5.3302,-5.4555,-5.6777,-5.7234,-5.7845,-6.0292,-6.1588,-6.275,-6.4182,-6.5583,-6.6734,-6.7549,-6.8408,-6.9064,-6.9374,-7.0043,-7.0302,-6.9608,-7.0252,-7.0629,-7.0343,-7.0457,-7.0938,-7.18,-7.1603,-7.1437,-7.1437,-7.0648,-6.9571,-6.8225,-6.7032,-6.6167,-6.5647,-6.4955,-6.4199,-6.3436,-6.2862,-6.2052,-6.0961,-5.9964,-5.9211,-5.8549,-5.8394,-5.8591,-5.9121,-5.9121,-5.9677,-6.0508,-6.0508,-6.0622,-6.0777,-6.0578,-6.0622,-6.08,0.0,0.0,0.0,0.0,0.0,0.0,0.0,0.0,0.0,0.0,0.0,0.0,0.0,0.0,0.0,0.0,0.0,0.0,0.0,0.0,0.0,0.0,0.0,0.0,0.0,0.0,0.0,0.0,0.0,0.0,0.0,0.0,0.0,0.0,0.0,0.0,0.0,0.0,0.0,0.0,0.0,0.0,-5.1419,-5.096,-5.0596,-5.0375,-5.0661,-4.9847,0.0,0.0,-4.9971,-5.0279,-5.1972,-5.1914,-5.1144,-5.0798,-5.072,-5.0851,-5.1463,-5.205,-5.2637,-5.3054,-5.4821,-5.6567,-5.6975,-5.7749,-5.9246,-6.203,-6.3206,-6.4353,-6.6363,-6.7364,-6.8058,-6.8612,-6.919,-6.9569,-6.9737,-7.0214,-7.0176,-6.9121,-6.9302,-6.9461,-6.931,-6.9827,-7.0475,-7.1091,-7.0571,-7.0206,-7.0206,-6.9225,-6.8071,-6.6801,-6.5743,-6.4878,-6.4262,-6.3873,-6.3234,-6.2269,-6.1755,-6.1054,-6.0115,-5.9154,-5.8591,-5.8394,-5.8394,-5.8835,-5.9592,-5.9592,-6.0055,-6.08,-6.08,-6.08,-6.08,-6.08,-6.08,-6.08,0.0,0.0,0.0,0.0,0.0,0.0,0.0,0.0,0.0,0.0,0.0,0.0,0.0,0.0,0.0,0.0,0.0,0.0,0.0,0.0,0.0,0.0,0.0,0.0,0.0,0.0,0.0,0.0,0.0,0.0,0.0,0.0,0.0,0.0,0.0,0.0,0.0,0.0,0.0,0.0,0.0,0.0,-5.1702,-5.0067,-4.9452,-4.9433,-4.9452,0.0,0.0,0.0,-4.8182,-4.849,-5.0221,-5.0183,0.0,-5.0452,-4.9292,-4.7713,-4.7681,-4.9205,-5.1145,-5.2718,-5.5018,-5.7299,-5.8845,-6.0113,-6.1465,-6.3115,-6.4815,-6.6257,-6.7133,-6.8328,-6.9234,-6.9253,-6.9738,-6.9809,-6.897,-6.8646,-6.8141,-6.7282,-6.6513,-6.6359,-6.7128,-6.7975,-6.8494,-6.8513,-6.8494,-6.8494,-6.8494,-6.6917,-6.5994,-6.5936,-6.4282,-6.3378,-6.3339,-6.2126,-6.1467,-6.14,-5.9646,-5.8791,-5.8772,-5.8713,-5.8951,-5.9373,-5.9373,-5.9644,-6.0084,-6.0084,-6.0365,-6.08,-6.08,-6.08,-6.08,-6.08,-6.08,-6.08,0.0,0.0,0.0,0.0,0.0,0.0,0.0,0.0,0.0,0.0,0.0,0.0,0.0,0.0,0.0,0.0,0.0,0.0,0.0,0.0,0.0,0.0,0.0,0.0,0.0,0.0,0.0,0.0,0.0,0.0,0.0,0.0,0.0,0.0,0.0,0.0,0.0,0.0,0.0,0.0,0.0,0.0,-5.2973,-5.0719,-4.9014,-4.768,0.0,0.0,0.0,0.0,0.0,0.0,-4.5677,-4.6016,-4.6282,-4.6563,-4.6922,-4.7439,-4.8464,-5.0495,-5.2837,-5.5061,-5.642,-5.779,-5.9977,-6.0549,-6.1338,-6.3833,-6.3959,-6.3917,-6.5024,-6.5464,-6.5844,-6.6356,-6.7381,-6.8206,-6.8493,-6.8471,-6.7667,-6.5686,-6.5705,-6.534,-6.3916,-6.557,-6.7205,-6.8321,-6.7859,-6.7532,-6.7532,-6.6494,-6.5378,-6.4205,-6.2789,-6.1753,-6.118,-6.1007,-6.0475,-5.9608,-5.8698,-5.8375,-5.8694,-5.8694,-5.8951,-5.9389,-5.9389,-5.9677,-6.0103,-6.0103,-6.0384,-6.08,-6.08,-6.08,-6.08,-6.08,-6.08,-6.08,0.0,0.0,0.0,0.0,0.0,0.0,0.0,0.0,0.0,0.0,0.0,0.0,0.0,0.0,0.0,0.0,0.0,0.0,0.0,0.0,0.0,0.0,0.0,0.0,0.0,0.0,0.0,0.0,0.0,0.0,0.0,0.0,0.0,0.0,0.0,0.0,0.0,0.0,0.0,0.0,0.0,0.0,-5.168,-4.9417,-4.7745,0.0,0.0,0.0,0.0,0.0,0.0,0.0,-4.2931,-4.3706,-4.4643,-4.4938,-4.6064,-4.7733,-4.9915,-5.1974,-5.411,-5.6314,-5.7237,-5.8145,-6.0194,-6.0444,-6.0985,-6.3593,-6.2982,-6.2277,-6.3368,-6.3125,-6.2911,-6.3427,-6.4262,-6.5147,-6.6032,-6.5878,-6.5186,-6.3858,-6.4205,-6.3897,-6.2243,-6.357,-6.5109,-6.6474,-6.6178,-6.5789,-6.5501,-6.514,-6.4116,-6.2414,-6.1568,-6.0791,-6.0103,-6.0175,-5.9794,-5.8951,-5.8613,-5.8735,-5.9195,-5.9195,-5.9477,-5.9885,-5.9885,-6.0055,-6.0338,-6.0338,-6.0527,-6.08,-6.08,-6.08,-6.08,-6.08,-6.08,-6.08,0.0,0.0,0.0,0.0,0.0,0.0,0.0,0.0,0.0,0.0,0.0,0.0,0.0,0.0,0.0,0.0,0.0,0.0,0.0,0.0,0.0,0.0,0.0,0.0,0.0,0.0,0.0,0.0,0.0,0.0,0.0,0.0,0.0,0.0,0.0,0.0,0.0,0.0,0.0,0.0,0.0,0.0,-4.8192,-4.6401,0.0,0.0,0.0,0.0,0.0,0.0,0.0,-4.2102,-4.2209,-4.3359,-4.4829,-4.5594,-4.6812,-4.859,-5.1695,-5.3518,-5.4895,-5.6473,-5.7428,-5.8344,-5.9608,-5.9887,-6.0441,-6.241,-6.1871,-6.1245,-6.198,-6.128,-6.0608,-6.0608,-6.0742,-6.1166,-6.2031,-6.1454,-6.1223,-6.205,-6.2127,-6.2089,-6.2089,-6.205,-6.2339,-6.3108,-6.3523,-6.3394,-6.265,-6.288,-6.2312,-6.078,-6.0615,-6.0373,-6.0074,-5.9644,-5.9389,-5.9389,-5.9389,-5.9644,-6.0103,-6.0103,-6.0338,-6.08,-6.08,-6.08,-6.08,-6.08,-6.08,-6.08,-6.08,-6.08,-6.08,-6.08,-6.08,-6.08,0.0,0.0,0.0,0.0,0.0,0.0,0.0,0.0,0.0,0.0,0.0,0.0,0.0,0.0,0.0,0.0,0.0,0.0,0.0,0.0,0.0,0.0,0.0,0.0,0.0,0.0,0.0,0.0,0.0,0.0,0.0,0.0,0.0,0.0,0.0,0.0,0.0,0.0,0.0,0.0,0.0,0.0,-4.7983,0.0,0.0,0.0,0.0,0.0,0.0,0.0,-4.1576,-4.2445,-4.3666,-4.4757,-4.5848,-4.7237,-4.9196,-5.1201,-5.2637,-5.4577,-5.6436,-5.7446,-5.8134,-5.8772,-5.9715,-5.9681,-5.9698,-6.0576,-5.9022,-5.7281,-5.6673,-5.7309,-5.7953,-5.7953,-6.0108,-6.205,-6.2878,-6.2801,-6.2762,-6.2974,-6.2454,-6.2089,-6.2089,-6.1512,-6.1223,-6.1416,-6.2131,-6.2714,-6.3098,-6.2279,-6.1647,-6.1241,-6.0221,-5.9685,-5.9578,-5.9458,-5.9389,-5.9389,-5.9389,-5.9644,-6.0103,-6.0103,-6.0338,-6.08,-6.08,-6.08,-6.08,-6.08,-6.08,-6.08,-6.08,-6.08,-6.08,-6.08,-6.08,-6.08,0.0,0.0,0.0,0.0,0.0,0.0,0.0,0.0,0.0,0.0,0.0,0.0,0.0,0.0,0.0,0.0,0.0,0.0,0.0,0.0,0.0,0.0,0.0,0.0,0.0,0.0,0.0,0.0,0.0,0.0,0.0,0.0,0.0,0.0,0.0,0.0,0.0,0.0,0.0,0.0,0.0,0.0,0.0,0.0,0.0,0.0,0.0,0.0,0.0,0.0,-4.3084,-4.3699,-4.5663,-4.6856,-4.7902,-4.9884,-5.1848,-5.3635,-5.4759,-5.6459,-5.8055,-5.852,-5.8796,-5.8878,-5.8441,-5.8457,-5.8254,-5.7218,-5.5574,-5.4015,-5.3007,-5.3587,-5.4337,-5.4703,-5.7011,-5.93,-6.0877,-6.1108,-6.1377,-6.2127,-6.2127,-6.1935,-6.157,-6.1416,-6.1204,-6.0819,-6.1384,-6.1785,-6.1881,-6.1683,-6.1254,-6.0545,-6.0131,-5.987,-5.9709,-5.9709,-5.9804,-6.0025,-5.9823,-5.9946,-6.0411,-6.0411,-6.0553,-6.08,-6.08,-6.08,-6.08,-6.08,-6.08,-6.08,-6.08,-6.08,-6.08,-6.08,-6.08,-6.08,0.0,0.0,0.0,0.0,0.0,0.0,0.0,0.0,0.0,0.0,0.0,0.0,0.0,0.0,0.0,0.0,0.0,0.0,0.0,0.0,0.0,0.0,0.0,0.0,0.0,0.0,0.0,0.0,0.0,0.0,0.0,0.0,0.0,0.0,0.0,0.0,0.0,0.0,0.0,0.0,0.0,0.0,0.0,0.0,0.0,0.0,0.0,0.0,0.0,0.0,-4.5321,-4.5755,-4.8067,-4.9522,-5.0756,-5.2982,-5.4438,-5.566,-5.7041,-5.8296,-5.9238,-5.9238,-5.9254,-5.8784,-5.6749,-5.6719,-5.6294,-5.3385,-5.2062,-5.1139,-5.0218,-5.0334,-5.0851,-5.1751,-5.3407,-5.5525,-5.8174,-5.8489,-5.9088,-6.0762,-6.1531,-6.1666,-6.1031,-6.155,-6.1608,-6.0858,-6.1054,-6.0943,-6.0227,-6.1074,-6.095,-5.9549,-6.0106,-6.0331,-6.0103,-6.0025,-6.0236,-6.069,-6.0291,-6.0338,-6.08,-6.08,-6.08,-6.08,-6.08,-6.08,-6.08,-6.08,-6.08,-6.08,-6.08,-6.08,-6.08,-6.08,-6.08,-6.08,0.0,0.0,0.0,0.0,0.0,0.0,0.0,0.0,0.0,0.0,-3.2307,0.0,0.0,0.0,0.0,0.0,0.0,0.0,0.0,0.0,0.0,0.0,0.0,0.0,0.0,0.0,0.0,0.0,0.0,0.0,0.0,0.0,0.0,0.0,0.0,0.0,0.0,0.0,0.0,0.0,0.0,0.0,0.0,0.0,0.0,0.0,0.0,0.0,0.0,0.0,-4.7416,-4.904,-5.0802,-5.2652,-5.4353,-5.5451,-5.6163,-5.6632,-5.6914,-5.7661,-5.8317,-5.8317,-5.8635,-5.8453,-5.6719,-5.5401,-5.3811,-5.1185,-4.9771,-4.8503,-4.6923,-4.8351,-5.0274,-5.1727,-5.372,-5.6199,-5.9338,-5.9498,-5.9935,-6.1666,-6.1358,-6.1243,-6.182,-6.1358,-6.0954,-6.08,-6.0849,-6.082,-6.069,-6.0504,-6.0251,-5.9996,-5.9744,-5.9763,-6.0103,-5.9709,-5.9741,-6.0236,-6.0132,-6.0338,-6.08,-6.08,-6.08,-6.08,-6.08,-6.08,-6.08,-6.08,-6.08,-6.08,-6.08,-6.08,-6.08,-6.08,-6.08,-6.08,0.0,0.0,0.0,0.0,0.0,0.0,0.0,0.0,0.0,0.0,-3.2949,-3.3423,0.0,0.0,0.0,0.0,0.0,0.0,0.0,0.0,0.0,0.0,0.0,0.0,0.0,0.0,-3.8413,-3.7717,0.0,0.0,0.0,-3.9365,-3.9863,-3.9863,0.0,0.0,0.0,0.0,0.0,0.0,0.0,0.0,0.0,0.0,0.0,0.0,0.0,0.0,0.0,0.0,-4.724,-5.0013,-5.2472,-5.393,-5.4892,-5.5688,-5.6725,-5.7578,-5.7578,-5.8508,-5.9407,-5.8921,-5.8983,-5.8228,-5.4568,-5.3499,-5.2139,-4.8074,-4.7136,-4.6671,-4.5417,-4.6898,-4.8701,-4.9939,-5.1726,-5.4199,-5.7709,-5.8068,-5.8813,-6.1166,-6.105,-6.0954,-6.1377,-6.0827,-6.0437,-6.0437,-6.0208,-6.0264,-6.0757,-6.0578,-6.0338,-6.0103,-5.9885,-5.9741,-5.9741,-5.9248,-5.9389,-6.0103,-5.9855,-6.0103,-6.08,-6.08,-6.08,-6.08,-6.08,-6.08,-6.08,-6.08,-6.08,-6.08,-6.08,-6.08,-6.08,-6.08,-6.08,-6.08,0.0,0.0,0.0,0.0,0.0,0.0,0.0,-3.1952,-3.2527,-3.2527,-3.3812,-3.4769,-3.4882,-3.5491,-3.5904,0.0,0.0,0.0,0.0,0.0,0.0,0.0,0.0,0.0,0.0,0.0,0.0,-3.8065,-3.8953,0.0,0.0,0.0,0.0,0.0,-3.8707,-3.9056,0.0,0.0,0.0,0.0,0.0,-4.0578,0.0,0.0,0.0,0.0,0.0,0.0,0.0,0.0,-4.6367,-4.9297,-5.2197,-5.375,-5.4649,-5.5109,-5.6463,-5.7819,-5.7819,-5.8863,-5.9819,-5.9146,-5.8819,-5.7405,-5.2504,-5.1604,-5.0387,-4.5485,-4.4927,-4.5097,-4.4477,-4.5444,-4.6732,-4.7935,-4.9181,-5.1376,-5.538,-5.6025,-5.7115,-5.9907,-6.0412,-6.0508,-6.0508,-6.0161,-5.9946,-5.9946,-5.9611,-5.9709,-6.0456,-6.0508,-6.0338,-5.9946,-5.9855,-5.9644,-5.9248,-5.8756,-5.9009,-5.9965,-5.9578,-5.9885,-6.08,-6.08,-6.08,-6.08,-6.08,-6.08,-6.08,-6.08,-6.08,-6.08,-6.08,-6.08,-6.08,-6.08,-6.0685,-6.055,0.0,0.0,0.0,0.0,0.0,0.0,0.0,-3.2391,-3.3305,-3.3305,-3.459,-3.5664,-3.6146,-3.6495,-3.6865,0.0,0.0,0.0,0.0,0.0,0.0,0.0,0.0,0.0,0.0,0.0,0.0,-3.8627,-3.8028,0.0,0.0,0.0,0.0,0.0,0.0,-3.8744,-3.8817,-3.8817,0.0,0.0,0.0,0.0,0.0,0.0,0.0,0.0,0.0,0.0,0.0,0.0,0.0,-4.6544,-4.8306,-5.1691,-5.4894,-5.4242,-5.523,-5.6567,-5.6567,-5.6945,-5.7319,-5.7242,-5.6626,-5.5215,-5.2103,-5.0057,-4.789,-4.4707,-4.386,-4.3689,-4.3615,-4.3726,-4.4573,-4.6874,-4.7088,-4.8683,-5.3489,-5.4449,-5.5631,-5.8127,-5.9072,-5.9545,-5.9545,-5.9492,-5.9458,-5.9458,-5.9424,-5.9424,-5.9526,-5.9545,-5.9511,-5.9477,-5.9047,-5.8796,-5.8756,-5.8326,-5.8526,-5.9458,-5.9424,-5.9885,-6.08,-6.08,-6.08,-6.08,-6.08,-6.08,-6.08,-6.08,-6.08,-6.08,-6.08,-6.08,-6.08,-6.08,-6.03,-5.9723,0.0,0.0,0.0,0.0,0.0,0.0,0.0,-3.2459,-3.3406,-3.3406,-3.4976,-3.6354,-3.6997,-3.7895,-3.8342,0.0,0.0,0.0,0.0,0.0,0.0,0.0,0.0,0.0,0.0,0.0,-3.8615,-3.9423,-3.9093,0.0,0.0,0.0,0.0,0.0,0.0,-3.8515,-3.8216,-3.8216,0.0,0.0,0.0,0.0,0.0,0.0,0.0,0.0,0.0,0.0,-4.1941,-4.2816,-4.4038,-4.5204,-4.5351,-4.7629,0.0,-5.1691,-5.3047,-5.4382,-5.5348,-5.6292,-5.6948,-5.6703,-5.558,-5.3804,-5.095,-4.8924,-4.6864,-4.4244,-4.3597,-4.3497,-4.3497,-4.3497,-4.3809,-4.4782,0.0,0.0,-4.9709,-5.0375,-5.2014,-5.6252,-5.704,-5.78,-5.9257,-5.9139,-5.8874,-5.8591,-5.8568,-5.8568,-5.8568,-5.9084,-5.9248,-5.8971,-5.8814,-5.8549,-5.8282,-5.8375,-5.8775,-5.9389,-5.9677,-6.0161,-6.08,-6.08,-6.08,-6.08,-6.08,-6.08,-6.08,-6.08,-6.08,-6.08,-6.08,-6.08,-6.0742,-6.0204,-5.98,-5.9473,0.0,0.0,0.0,0.0,0.0,0.0,-3.119,-3.2459,-3.3406,-3.3406,-3.5002,-3.6414,-3.7101,-3.8251,-3.8871,-3.873,0.0,0.0,0.0,0.0,0.0,0.0,0.0,0.0,0.0,0.0,-3.9221,-4.0249,-3.9772,-4.0194,0.0,0.0,-3.9818,-3.9648,0.0,0.0,0.0,0.0,0.0,0.0,0.0,0.0,0.0,0.0,0.0,0.0,0.0,0.0,0.0,0.0,0.0,0.0,0.0,0.0,0.0,0.0,-5.0768,-5.2563,-5.3683,-5.5106,-5.6198,-5.5892,-5.4353,-5.2294,-4.9956,-4.7947,-4.5996,-4.3907,-4.3497,-4.3497,-4.3497,-4.3497,-4.3497,0.0,0.0,-4.4404,-4.6903,-4.7438,-4.9284,-5.3796,-5.4543,-5.5615,-5.8053,-5.8415,-5.8351,-5.8024,-5.7997,-5.7997,-5.7997,-5.8632,-5.8835,-5.8484,-5.8484,-5.8351,-5.7997,-5.8461,-5.8951,-5.9408,-5.9885,-6.0338,-6.08,-6.08,-6.08,-6.08,-6.08,-6.08,-6.08,-6.08,-6.08,-6.08,-6.08,-6.08,-6.0685,-5.9819,-5.9358,-5.9069,0.0,0.0,0.0,0.0,0.0,0.0,0.0,-3.2459,-3.3406,-3.3406,-3.4692,-3.5827,-3.635,-3.7134,-3.8115,-3.9381,0.0,0.0,0.0,0.0,0.0,0.0,0.0,0.0,0.0,0.0,-3.9478,-4.1093,-3.9496,-3.9937,-4.2249,-4.0653,-3.9601,-3.9102,0.0,0.0,0.0,0.0,0.0,0.0,0.0,0.0,0.0,0.0,0.0,0.0,0.0,0.0,0.0,0.0,0.0,0.0,0.0,0.0,0.0,0.0,-4.853,-5.1428,-5.1428,-5.2967,-5.4522,-5.4522,-5.2666,-5.0519,-4.9286,-4.7079,-4.4978,-4.3729,-4.3497,-4.3497,-4.3497,-4.3497,-4.3497,-4.3497,0.0,0.0,-4.5681,-4.6617,-4.8049,-5.0545,-5.1559,-5.301,-5.5416,-5.706,-5.7997,-5.7997,-5.7997,-5.7997,-5.7997,-5.7997,-5.7997,-5.7997,-5.7997,-5.7997,-5.7997,-5.8461,-5.8951,-5.9408,-5.9885,-6.0338,-6.08,-6.08,-6.08,-6.08,-6.08,-6.08,-6.08,-6.08,-6.08,-6.08,-6.08,-6.08,-6.0685,-5.9819,-5.9011,-5.8319,0.0,0.0,0.0,0.0,0.0,0.0,0.0,-3.2019,-3.2831,-3.3339,-3.4558,-3.5638,-3.6323,-3.7918,-3.8883,-3.8876,0.0,0.0,0.0,0.0,0.0,0.0,0.0,0.0,0.0,0.0,-3.9496,-4.1111,-4.0047,-4.0763,-4.3075,-4.1479,-4.0714,-4.0654,-4.0113,-3.9233,0.0,0.0,0.0,0.0,0.0,0.0,-4.007,0.0,0.0,0.0,0.0,0.0,0.0,0.0,0.0,0.0,0.0,0.0,0.0,0.0,0.0,-4.7886,-4.8993,-4.9751,-5.0358,-5.0665,-4.9257,-4.7697,-4.7442,-4.583,-4.4259,-4.3618,-4.3497,-4.3497,-4.3497,-4.3497,-4.3681,-4.4232,-4.4323,0.0,-4.5021,-4.6728,-4.8655,-5.0582,-5.394,-5.64,-5.7171,-5.7703,-5.7997,-5.7997,-5.7997,-5.7997,-5.7997,-5.7997,-5.7997,-5.7997,-5.7997,-5.7997,-5.7997,-5.8756,-5.9248,-5.9389,-6.0208,-6.0666,-6.08,-6.08,-6.08,-6.08,-6.08,-6.08,-6.08,-6.08,-6.08,-6.0742,-6.0146,-5.9915,-5.9742,-5.8319,-5.7627,-5.7319,0.0,0.0,0.0,0.0,0.0,0.0,0.0,-3.2053,-3.278,-3.2949,-3.4421,-3.5503,-3.565,-3.7351,-3.846,-3.8356,0.0,0.0,0.0,0.0,0.0,0.0,0.0,0.0,0.0,-3.9001,-3.979,-4.1111,-4.0598,-4.1324,-4.3178,-4.1829,-4.1053,-4.0775,-4.0273,-3.941,0.0,0.0,0.0,0.0,0.0,0.0,-4.0121,0.0,0.0,0.0,0.0,0.0,0.0,0.0,0.0,0.0,0.0,0.0,0.0,0.0,-4.4089,-4.5095,0.0,-4.7847,-4.8364,-4.864,-4.7469,-4.6231,-4.6316,-4.5036,-4.374,-4.3548,-4.3497,-4.3497,-4.3497,-4.3497,-4.3644,-4.4176,-4.425,-4.447,-4.5076,-4.6728,-4.8691,-5.0986,-5.4711,-5.7079,-5.7079,-5.7629,-5.7997,-5.7997,-5.7997,-5.7997,-5.7997,-5.7997,-5.7997,-5.7997,-5.7997,-5.8115,-5.8282,-5.9009,-5.9492,-5.9677,-6.0437,-6.08,-6.08,-6.08,-6.08,-6.08,-6.08,-6.0608,0.0,-6.03,-6.0127,-5.98,-5.9261,-5.905,-5.8877,-5.7511,-5.6992,-5.6876,0.0,0.0,0.0,0.0,0.0,0.0,0.0,0.0,0.0,0.0,-3.4218,-3.5284,-3.4643,-3.5983,-3.7221,0.0,0.0,0.0,0.0,0.0,0.0,0.0,0.0,0.0,0.0,-3.9515,-4.0322,-4.1203,-4.1042,-4.1537,-4.2585,-4.1645,-4.0704,-3.9794,-3.9794,-3.9164,0.0,0.0,0.0,0.0,0.0,0.0,0.0,0.0,0.0,0.0,0.0,0.0,0.0,0.0,0.0,0.0,0.0,0.0,0.0,0.0,0.0,0.0,0.0,-4.6782,-4.7957,-4.7957,-4.6838,-4.5736,-4.5736,-4.4562,0.0,-4.3497,-4.3497,-4.3516,-4.3552,-4.3534,-4.3534,-4.3644,-4.3663,-4.4176,-4.5681,-4.6801,-4.8655,-5.1867,-5.4326,-5.5721,-5.5592,-5.706,-5.7997,-5.7997,-5.7997,-5.7997,-5.7997,-5.7997,-5.7997,-5.7997,-5.8024,-5.8238,-5.8694,-5.9195,-5.9677,-6.0103,-6.0578,-6.08,-6.08,-6.08,-6.08,-6.08,-6.08,-6.0339,-5.9588,-5.9531,-5.9069,-5.8377,-5.8261,-5.8204,-5.8107,-5.7223,-5.6896,-5.678,0.0,0.0,0.0,0.0,0.0,0.0,0.0,0.0,0.0,0.0,-3.4083,-3.4848,-3.5105,-3.6973,-3.8477,0.0,0.0,0.0,0.0,0.0,0.0,0.0,0.0,0.0,0.0,-3.979,-4.0598,-4.2029,-4.0357,-4.0329,-4.1738,-3.9958,-3.9347,-3.9794,-3.9794,-3.9731,0.0,0.0,0.0,0.0,0.0,0.0,0.0,0.0,0.0,0.0,-4.1358,-4.1664,0.0,0.0,0.0,0.0,0.0,0.0,0.0,0.0,-4.2422,-4.2822,-4.3317,0.0,-4.4617,-4.4617,-4.4342,-4.4048,0.0,0.0,-4.3497,-4.3497,0.0,-4.3681,-4.4305,-4.3901,-4.3883,-4.5131,-4.5333,-4.5461,-4.5847,-4.8765,-5.1811,-5.4436,-5.6326,-5.695,-5.5702,-5.706,-5.7997,-5.7997,-5.7997,-5.7997,-5.7997,-5.7997,-5.7997,-5.7997,-5.8351,-5.8591,-5.8694,-5.9526,-5.9996,-6.0103,-6.0578,-6.08,-6.08,-6.08,-6.08,-6.08,-6.08,-6.0685,-6.0435,-5.9762,-5.9396,-5.9088,-5.78,-5.73,-5.7203,-5.6319,-5.6011,-5.5931,0.0,0.0,0.0,0.0,0.0,0.0,0.0,0.0,0.0,0.0,0.0,0.0,0.0,0.0,0.0,0.0,0.0,0.0,0.0,0.0,0.0,0.0,0.0,0.0,-3.897,-3.9114,-3.9625,-4.0528,-4.0037,-3.9953,-4.0197,-3.9764,-3.9521,-3.9448,-4.002,-4.0371,0.0,0.0,0.0,0.0,-4.1979,0.0,0.0,0.0,0.0,0.0,-4.1578,-4.181,0.0,-4.279,-4.3105,-4.3014,0.0,0.0,0.0,0.0,-4.2021,-4.2342,-4.2616,-4.3087,-4.3497,-4.3497,-4.3497,-4.3497,-4.3497,0.0,0.0,0.0,0.0,0.0,-4.4066,-4.3791,-4.3773,-4.4654,-4.5424,-4.6434,-4.7939,-5.0362,-5.2894,-5.5299,-5.6363,-5.684,-5.6712,-5.7483,-5.7997,-5.7997,-5.7997,-5.7997,-5.7997,-5.7997,-5.8097,-5.8307,-5.8775,-5.9009,-5.9009,-5.9741,-6.0208,-6.0411,-6.069,-6.08,-6.08,-6.08,-6.08,-6.08,-6.08,-6.0358,-5.9627,-5.9146,-5.8473,-5.7665,-5.6761,-5.6395,-5.6338,-5.5662,-5.5423,-5.5375,0.0,0.0,0.0,0.0,0.0,0.0,0.0,0.0,0.0,0.0,0.0,0.0,0.0,0.0,0.0,0.0,0.0,0.0,0.0,0.0,0.0,0.0,0.0,-3.7844,-3.797,-3.8233,-3.8451,-3.8575,-3.9704,-3.9645,-3.8538,-3.9703,-3.9856,-3.9183,-4.0452,-4.1041,0.0,0.0,-4.1937,-4.1979,-4.2598,0.0,0.0,0.0,0.0,0.0,0.0,0.0,0.0,-4.2576,-4.2595,-4.2217,-4.2121,0.0,0.0,0.0,0.0,0.0,-4.2501,-4.3178,-4.3644,-4.3516,-4.3497,-4.3497,-4.3497,0.0,0.0,0.0,0.0,0.0,0.0,-4.3663,-4.3608,-4.3975,-4.5406,-4.7645,-5.1041,-5.2123,-5.3298,-5.5354,-5.5812,-5.64,-5.7519,-5.7923,-5.8097,-5.8097,-5.8168,-5.8213,-5.8213,-5.8213,-5.8375,-5.8796,-5.9248,-5.9511,-5.9511,-5.9977,-6.0411,-6.08,-6.08,-6.0723,-6.0608,-6.0742,-6.0666,-6.0435,-6.055,-5.97,-5.8174,-5.8058,-5.7094,-5.5685,-5.5615,-5.5577,-5.5489,-5.5212,-5.5061,-5.4952,0.0,0.0,0.0,0.0,0.0,0.0,0.0,0.0,0.0,0.0,0.0,0.0,0.0,0.0,0.0,0.0,0.0,0.0,0.0,0.0,0.0,0.0,-3.8087,-3.7642,-3.8318,-3.8365,-3.8717,-3.9412,-3.8526,-3.7972,-3.7741,-3.7524,-3.8242,-3.9755,-4.1069,-4.1664,-4.1707,-4.2302,-4.2577,-4.2616,-4.3178,0.0,0.0,0.0,0.0,0.0,0.0,0.0,0.0,-4.0197,-4.0143,-3.9984,-3.9456,0.0,0.0,0.0,0.0,0.0,-4.2379,-4.3597,-4.436,-4.3663,-4.3497,-4.3497,-4.3497,0.0,0.0,0.0,0.0,0.0,0.0,-4.4415,-4.4158,-4.6232,-4.7939,-5.038,-5.4308,-5.495,-5.517,-5.5537,-5.6785,-5.7189,-5.6069,-5.7537,-5.8591,-5.8591,-5.8971,-5.9195,-5.9195,-5.9195,-5.9231,-5.9284,-5.9741,-5.9996,-5.9996,-6.0456,-6.0734,-6.08,-6.08,-6.0416,-5.9723,-6.0454,-6.0031,-5.8723,-5.9396,-5.8947,-5.763,-5.6969,-5.6302,-5.5678,-5.5328,-5.4979,-5.472,-5.5007,-5.4876,-5.4516,0.0,0.0,0.0,0.0,0.0,0.0,0.0,0.0,0.0,0.0,0.0,0.0,0.0,0.0,0.0,0.0,0.0,0.0,0.0,0.0,0.0,-3.8649,-3.7543,-3.7089,-3.7288,-3.7061,-3.7049,-3.7438,-3.7239,-3.6953,-3.6542,-3.7408,-3.8918,-4.0937,-4.1878,-4.2302,-4.2342,-4.2884,-4.3124,-4.3124,0.0,0.0,0.0,0.0,0.0,0.0,0.0,0.0,0.0,0.0,-3.9353,-3.9063,-3.8782,0.0,0.0,0.0,0.0,0.0,-4.1823,-4.3014,-4.3956,-4.3589,-4.3828,-4.403,-4.3589,-4.3497,0.0,0.0,0.0,0.0,0.0,-4.5002,-4.5883,-4.9205,-5.038,-5.1848,-5.4564,-5.4806,-5.4988,-5.5881,-5.6865,-5.7506,-5.7637,-5.854,-5.9084,-5.9084,-5.9284,-5.9389,-5.9389,-5.9389,-5.9511,-5.9773,-5.9996,-6.0236,-6.0482,-6.069,-6.055,-6.0089,-5.9665,-5.9242,-5.8877,-5.9281,-5.9031,-5.8296,-5.8424,-5.7882,-5.69,-5.6282,-5.5636,-5.5026,-5.4852,-5.464,-5.4503,-5.4433,-5.4153,-5.3758,0.0,0.0,0.0,0.0,0.0,0.0,0.0,0.0,0.0,0.0,0.0,0.0,0.0,0.0,0.0,0.0,0.0,0.0,0.0,0.0,-3.8751,-3.8176,-3.7449,-3.6797,-3.6241,-3.5827,-3.5622,-3.5622,-3.6214,-3.6457,-3.6355,-3.8225,-4.014,-4.2038,-4.2637,-4.2902,-4.2902,-4.3339,-4.341,-4.3321,0.0,0.0,0.0,0.0,0.0,0.0,0.0,0.0,0.0,0.0,0.0,0.0,0.0,0.0,0.0,-3.8494,-3.9638,-4.0961,-4.1451,-4.2522,-4.3497,-4.3497,0.0,-4.4305,-4.3883,-4.392,-4.4103,0.0,0.0,0.0,-4.5186,-4.592,-4.7682,-5.1389,-5.2307,-5.3212,-5.5122,-5.5183,-5.551,-5.6856,-5.7331,-5.8046,-5.9276,-5.9492,-5.9559,-5.9559,-5.9677,-5.9633,-5.9425,-5.9406,-5.9581,-5.9931,-5.9958,-6.0245,-6.0781,-6.0589,-6.0165,-5.9492,-5.8877,-5.8377,-5.7992,-5.8204,-5.8024,-5.7551,-5.7397,-5.674,-5.5768,-5.539,-5.4852,-5.4206,-5.4307,-5.4322,-5.4288,-5.3833,-5.3484,-5.3206,0.0,0.0,0.0,0.0,0.0,0.0,0.0,0.0,0.0,0.0,0.0,0.0,0.0,0.0,0.0,0.0,0.0,0.0,0.0,0.0,-3.8971,-3.892,-3.821,-3.7127,-3.5684,-3.5622,-3.5622,-3.5622,-3.5673,-3.6648,-3.8477,-3.964,-4.1049,-4.2655,-4.3214,-4.3444,-4.3444,-4.3479,-4.3214,-4.275,-4.275,0.0,0.0,0.0,0.0,0.0,0.0,0.0,0.0,0.0,0.0,0.0,0.0,0.0,-3.7453,-3.8178,-3.8829,-3.9713,-4.1677,-4.2839,-4.3497,-4.3497,-4.3534,-4.3754,-4.447,-4.5186,-4.5938,-4.6709,-4.7443,-4.7755,-4.7076,-4.759,-4.8985,-5.1573,-5.3243,-5.522,-5.7996,-5.8396,-5.8575,-5.9095,-5.9219,-5.9257,-5.9389,-5.9773,-6.0055,-6.0055,-6.0437,-6.0344,-5.9538,-5.9499,-5.9499,-5.9523,-5.9523,-5.995,-6.0781,-5.9992,-5.9569,-5.9492,-5.9435,-5.8588,-5.7107,-5.7934,-5.7196,-5.5389,-5.6145,-5.5553,-5.3999,-5.3962,-5.368,-5.3336,-5.3683,-5.3851,-5.3814,-5.3381,-5.3248,-5.3206,0.0,0.0,0.0,0.0,0.0,0.0,0.0,0.0,0.0,0.0,0.0,0.0,0.0,0.0,0.0,0.0,0.0,0.0,0.0,0.0,-3.8802,-3.8345,-3.8058,-3.7415,-3.6366,-3.5876,-3.5622,-3.5622,-3.6446,-3.7823,-3.9711,-4.0633,-4.1833,-4.3214,-4.341,-4.3321,-4.3014,-4.3014,-4.2675,-4.2121,-4.2121,-4.1768,0.0,0.0,0.0,0.0,0.0,0.0,0.0,0.0,-3.6603,0.0,0.0,0.0,-3.7721,-3.8008,-3.8793,-3.978,-4.0602,-4.1754,-4.2745,-4.2745,-4.313,0.0,0.0,-4.5681,-4.5993,-4.6287,-4.7388,-4.8214,-4.7921,-4.937,-5.1059,-5.2509,-5.4528,-5.6565,-5.8427,-5.8933,-5.9284,-5.9773,-6.0084,-6.0264,-6.0264,-6.0437,-6.0553,-6.0553,-6.0191,-5.9858,-5.9511,-5.9031,-5.8761,-5.8761,-5.8761,-5.9014,-5.9561,-5.8738,-5.8413,-5.8623,-5.7925,-5.7226,-5.6613,-5.6129,-5.5503,-5.472,-5.4773,-5.4434,-5.3777,-5.3545,-5.3336,-5.3206,-5.3359,-5.3422,-5.3422,-5.3272,-5.3206,-5.3206,0.0,0.0,0.0,0.0,0.0,0.0,0.0,0.0,0.0,0.0,0.0,0.0,0.0,0.0,0.0,0.0,0.0,0.0,0.0,-3.7719,-3.8278,-3.8261,-3.8024,-3.7669,-3.7144,-3.6531,-3.6093,-3.5854,-3.7108,-3.8581,-4.0312,-4.1035,-4.2049,-4.325,-4.325,-4.2921,-4.244,-4.244,-4.208,-4.1534,-4.1534,-4.1178,0.0,0.0,0.0,0.0,0.0,0.0,0.0,0.0,0.0,0.0,0.0,0.0,0.0,0.0,-3.8682,-3.957,-3.9827,-4.0891,-4.1992,-4.2249,0.0,0.0,-4.6232,-4.6654,-4.6819,-4.7333,-4.7997,-4.8643,-4.914,-5.0228,-5.1464,-5.2791,-5.4908,-5.6878,-5.8129,-5.8952,-5.9559,-6.0055,-6.0508,-6.08,-6.08,-6.08,-6.0685,-6.0416,-5.9838,-5.9261,-5.8742,-5.8184,-5.7831,-5.77,-5.7831,-5.8016,-5.8232,-5.7797,-5.7661,-5.7748,-5.6564,-5.6042,-5.614,-5.5007,-5.4439,-5.4255,-5.3941,-5.372,-5.3604,-5.3295,-5.3206,-5.3206,-5.3206,-5.3206,-5.3206,-5.3206,-5.3206,-5.3206,0.0,0.0,0.0,0.0,0.0,0.0,0.0,0.0,0.0,0.0,0.0,0.0,0.0,0.0,0.0,0.0,0.0,0.0,-3.6671,-3.6772,-3.7449,-3.892,-3.8294,-3.7905,-3.7922,-3.7624,-3.7136,-3.6433,-3.7433,-3.8723,-4.0312,-4.0876,-4.1683,-4.2711,-4.2711,-4.2342,-4.181,-4.1793,-4.1446,-4.0903,-4.0903,-4.0577,-4.0171,0.0,0.0,0.0,0.0,0.0,0.0,0.0,0.0,0.0,0.0,0.0,0.0,0.0,-3.83,-3.8891,-3.9662,-4.0487,-4.1295,-4.2084,0.0,0.0,-4.7755,-4.8306,-4.8765,-5.0453,-4.9806,-4.9387,-5.1003,-5.0017,-4.9738,-5.212,-5.4238,-5.6031,-5.7332,-5.8596,-5.9559,-6.0036,-6.0508,-6.0781,-6.0781,-6.0781,-6.0435,-5.955,-5.9492,-5.8761,-5.7088,-5.6973,-5.6798,-5.6393,-5.6755,-5.6996,-5.6984,-5.7376,-5.7376,-5.6951,-5.5694,-5.5283,-5.5659,-5.488,-5.4221,-5.3814,-5.3814,-5.3565,-5.3206,-5.3206,-5.3206,-5.3206,-5.3206,-5.3206,-5.3206,-5.3206,-5.3206,-5.3206,0.0,0.0,0.0,0.0,0.0,0.0,0.0,0.0,0.0,0.0,0.0,0.0,0.0,0.0,0.0,0.0,0.0,0.0,-3.5943,-3.6485,-3.7212,-3.8176,-3.8408,-3.8528,-3.8667,-3.8397,-3.8303,-3.831,-3.9158,-4.0077,-4.1087,-4.1868,-4.2147,-4.208,-4.208,-4.1743,-4.1196,-4.062,-4.036,-4.0317,-4.0164,-4.036,-4.0703,0.0,0.0,0.0,0.0,0.0,0.0,0.0,0.0,0.0,0.0,0.0,0.0,0.0,-3.898,-3.946,-3.9148,-3.9643,-4.0451,-4.1258,0.0,-4.5186,0.0,-4.748,0.0,-5.0713,-5.025,-4.9879,-5.1518,-5.1634,-5.1833,-5.2846,-5.449,-5.5992,-5.6941,-5.8159,-5.9071,-5.9226,-5.9626,-5.9896,-5.9896,-5.9896,-5.9531,-5.8723,-5.8665,-5.8165,-5.7049,-5.6415,-5.5896,-5.5515,-5.5594,-5.5636,-5.5602,-5.5146,-5.5267,-5.6014,-5.446,-5.4311,-5.5229,-5.4091,-5.3502,-5.34,-5.34,-5.3295,-5.3206,-5.3206,-5.3206,-5.3206,-5.3206,-5.3206,-5.3206,-5.3206,-5.3206,-5.3206,0.0,0.0,0.0,0.0,0.0,0.0,0.0,0.0,0.0,0.0,0.0,0.0,0.0,0.0,0.0,0.0,0.0,0.0,0.0,0.0,-3.691,-3.8162,-3.8535,-3.897,-3.96,-3.8977,-3.8975,-3.9709,-3.9871,-4.0316,-4.1085,-4.1604,-4.1695,-4.1446,-4.1446,-4.115,-4.0577,-3.9804,-3.9751,-4.0103,-3.9893,-4.0245,-4.0949,0.0,0.0,0.0,0.0,0.0,0.0,0.0,0.0,0.0,0.0,0.0,0.0,-3.9698,-3.9551,-3.946,-3.9625,-4.001,-4.0653,-4.1772,-4.3626,-4.5516,-4.6819,-4.8122,-4.9691,-5.1917,-5.1377,-5.0975,-5.2445,-5.2659,-5.2762,-5.3356,-5.4711,-5.5847,-5.6371,-5.7514,-5.8349,-5.8368,-5.8763,-5.9031,-5.9031,-5.9031,-5.8684,-5.7857,-5.778,-5.7332,-5.6314,-5.5734,-5.5193,-5.4602,-5.476,-5.4678,-5.4288,-5.3962,-5.4086,-5.4638,-5.3335,-5.3263,-5.4346,-5.3557,-5.3206,-5.3188,-5.2858,-5.2729,-5.2729,-5.2729,-5.2729,-5.2766,-5.3096,-5.3206,-5.3206,-5.3206,-5.3206,-5.3206,0.0,0.0,0.0,0.0,0.0,0.0,0.0,0.0,0.0,0.0,0.0,0.0,0.0,0.0,0.0,0.0,0.0,0.0,0.0,0.0,-3.6519,-3.8555,-3.8745,-3.9434,-4.0665,-3.9425,-3.9364,-4.0641,-3.9905,-3.9888,-4.0535,-4.0605,-4.0657,-4.0723,-4.0792,-4.0577,-4.002,-3.9292,-3.9411,-4.0103,-3.9853,-4.0214,-4.0965,-4.2065,0.0,0.0,0.0,0.0,0.0,0.0,0.0,0.0,0.0,0.0,-4.0006,-4.0683,-3.9891,-3.9067,-4.0565,-4.1056,-4.1497,-4.3094,-4.4819,-4.6361,-4.726,-4.9756,-5.2177,-5.3144,-5.2563,-5.2213,-5.3465,-5.3079,-5.2831,-5.3627,-5.4781,-5.5599,-5.5516,-5.67,-5.751,-5.7501,-5.7851,-5.812,-5.812,-5.812,-5.7755,-5.6848,-5.689,-5.6391,-5.5119,-5.5034,-5.4652,-5.3851,-5.4221,-5.4013,-5.3096,-5.3454,-5.3417,-5.2986,-5.2234,-5.227,-5.2986,-5.3078,-5.3096,-5.3059,-5.2234,-5.1885,-5.1885,-5.1958,-5.1995,-5.2068,-5.2821,-5.3151,-5.3206,-5.3133,-5.3151,-5.3206,0.0,0.0,0.0,0.0,0.0,0.0,0.0,0.0,0.0,0.0,0.0,0.0,0.0,0.0,0.0,0.0,0.0,0.0,0.0,0.0,-3.6344,-3.7993,-3.9197,-4.0371,-4.152,-4.0371,-4.0134,-4.0844,-4.0471,-4.0207,-3.9973,-4.0565,-4.0331,-3.9404,-4.0031,-4.0204,-4.002,-3.9292,-3.9411,-4.0052,-3.9713,-4.001,-4.0669,-4.0733,-4.0744,0.0,0.0,0.0,0.0,0.0,0.0,0.0,-4.0853,-4.0199,-3.9544,-3.9463,-3.9242,-3.9164,-3.9932,-4.0616,0.0,-4.3094,-4.5663,-4.8177,-4.9664,-5.0545,-5.0869,-5.0149,-5.0773,-5.1729,-5.2677,-5.2724,-5.2755,-5.3267,-5.4127,-5.4618,-5.4256,-5.588,-5.7019,-5.6706,-5.6752,-5.6804,-5.6804,-5.6804,-5.6336,-5.5131,-5.5957,-5.5976,-5.4697,-5.4609,-5.4369,-5.3814,-5.3905,-5.3385,-5.2252,-5.2338,-5.2026,-5.1316,-5.1151,-5.1151,-5.1353,-5.1977,-5.2252,-5.2197,-5.1408,-5.1059,-5.1114,-5.1738,-5.1995,-5.2013,-5.2179,-5.2637,-5.3133,-5.2491,-5.2656,-5.3206,0.0,0.0,0.0,0.0,0.0,0.0,0.0,0.0,0.0,0.0,0.0,0.0,0.0,0.0,0.0,0.0,0.0,0.0,0.0,0.0,0.0,-3.8203,-3.9727,-4.0767,-4.1358,-4.0563,-4.0067,-4.0014,-3.9882,-3.9882,-3.9963,-3.9997,-3.9822,-3.9529,-3.9918,-4.007,-4.0003,-3.8937,-3.9016,-3.9829,-3.8938,-3.9323,-4.0399,-4.0309,-4.0402,-4.0704,-4.1104,0.0,0.0,0.0,0.0,0.0,0.0,0.0,-4.005,-4.0164,-3.9932,-3.9931,-4.1269,0.0,0.0,-4.414,-4.6195,-4.8067,-4.9334,-4.9315,-4.897,-4.8733,-5.0098,-5.1525,-5.2191,-5.2294,-5.2368,-5.2571,-5.3003,-5.3213,-5.2967,-5.4226,-5.5099,-5.4886,-5.5236,-5.5483,-5.5483,-5.5483,-5.5204,-5.4554,-5.5117,-5.4924,-5.3677,-5.3587,-5.323,-5.2397,-5.234,-5.2056,-5.1426,-5.1426,-5.1206,-5.0802,-5.0398,-5.0215,-5.0251,-5.1059,-5.1426,-5.1371,-5.0563,-5.0215,-5.0251,-5.0674,-5.1077,-5.1463,-5.1848,-5.2491,-5.317,-5.2729,-5.2839,-5.3206,0.0,0.0,0.0,0.0,0.0,0.0,0.0,0.0,0.0,0.0,0.0,0.0,0.0,0.0,0.0,0.0,0.0,0.0,0.0,0.0,0.0,-3.8484,-4.002,-4.0832,-4.078,-4.0199,-3.9597,-3.8988,-3.887,-3.9174,-3.9884,-3.9276,-3.9326,-3.9901,-4.0153,-4.0254,-4.0152,-3.8826,-3.8836,-3.9745,-3.8303,-3.8616,-4.0004,-4.004,-4.0231,-4.0559,-4.0687,-4.0415,-4.0004,-4.0111,0.0,0.0,0.0,0.0,-4.0257,-4.0948,-4.0558,-4.0362,-4.2247,0.0,-4.3094,-4.5498,-4.6617,-4.7297,-4.7957,-4.759,-4.7297,-4.7976,-4.9621,-5.1065,-5.14,-5.1522,-5.1582,-5.1582,-5.1695,-5.179,-5.179,-5.2477,-5.3006,-5.3006,-5.3553,-5.3973,-5.3973,-5.3973,-5.3941,-5.3894,-5.3908,-5.3474,-5.2344,-5.2289,-5.1824,-5.082,-5.0802,-5.0729,-5.0582,-5.0582,-5.0527,-5.0362,-4.9682,-4.937,-4.9389,-5.0068,-5.0453,-5.0545,-4.9719,-4.937,-4.937,-4.9517,-5.0068,-5.0875,-5.1518,-5.2362,-5.3188,-5.3059,-5.3096,-5.3206,0.0,0.0,0.0,0.0,0.0,0.0,0.0,0.0,0.0,0.0,0.0,0.0,0.0,0.0,0.0,0.0,0.0,0.0,-3.4641,0.0,0.0,-3.8014,-3.944,-4.0221,-4.0204,-3.9511,-3.9089,-3.8988,-3.8362,-3.843,-3.914,-3.9039,-3.9039,-3.9206,-4.0285,-4.078,-4.0728,-3.9882,-3.9931,-4.0352,-3.8818,-3.8587,-3.9138,-3.8966,-3.866,-3.843,-3.9099,-3.9067,-3.8762,-3.938,-3.9341,0.0,0.0,0.0,-3.8459,-3.9488,-3.93,-3.894,-3.9517,0.0,-4.392,0.0,-4.704,-4.715,-4.726,-4.7205,-4.715,-4.726,-4.8325,-4.9247,-4.9314,-4.9584,-4.9824,-4.9824,-5.0476,-5.0967,-5.0967,-5.1647,-5.2167,-5.2167,-5.1954,-5.1831,-5.1831,-5.1831,-5.1656,-5.1298,-5.1639,-5.1564,-5.1051,-5.1051,-5.0974,-5.0802,-5.0802,-5.0472,-4.9756,-4.9738,-4.937,-4.8636,-4.8526,-4.8471,-4.8489,-4.8581,-4.904,-4.9701,-4.8838,-4.8471,-4.8526,-4.9279,-5.0068,-5.082,-5.093,-5.1885,-5.3133,-5.2417,-5.2601,-5.3206,0.0,0.0,0.0,0.0,0.0,0.0,0.0,0.0,0.0,0.0,0.0,0.0,0.0,0.0,0.0,-3.2814,-3.3457,-3.4066,-3.4472,-3.6248,-3.7466,-3.7889,-3.8903,-3.9665,-4.007,-3.9377,-3.8802,-3.8379,-3.7635,-3.7806,-3.8843,-3.8843,-3.9289,-4.0096,-4.0993,-4.1402,-4.1314,-4.0122,-3.9905,-4.0221,-3.8383,-3.8151,-3.8773,-3.8394,-3.83,-3.8387,-3.8733,-3.8556,-3.8151,-3.8491,-3.8543,-3.8497,-3.8669,0.0,0.0,0.0,-3.8994,-3.937,-4.0546,-4.2498,-4.4433,-4.5498,-4.5773,-4.5883,-4.6324,-4.6085,-4.5902,-4.6342,-4.6855,-4.7367,-4.781,-4.8377,-4.8516,-4.7638,-4.855,-4.9238,-4.8773,-4.9849,-5.0668,-5.0668,-5.0898,-5.1063,-5.1063,-5.1063,-5.1005,-5.0802,-5.0966,-5.0802,-5.0181,-5.0123,-4.9903,-4.9407,-4.8967,-4.8783,-4.8875,-4.7976,-4.7553,-4.7645,-4.7645,-4.7645,-4.7645,-4.7645,-4.8086,-4.8838,-4.8471,-4.8306,-4.8343,-4.871,-4.937,-5.0123,-5.0123,-5.1114,-5.2435,-5.1628,-5.183,-5.2527,0.0,0.0,0.0,0.0,0.0,0.0,0.0,0.0,0.0,0.0,0.0,0.0,0.0,0.0,0.0,0.0,-3.2797,-3.3508,-3.4438,-3.5926,-3.7043,-3.7601,-3.8497,-3.9157,-3.9512,-3.8988,-3.8362,-3.7618,-3.706,-3.7388,-3.8508,-3.8973,-3.9905,-4.1178,-4.175,-4.2021,-4.1932,-4.0348,-3.9998,-4.0239,-3.7971,-3.7733,-3.864,-3.8031,-3.8085,-3.8515,-3.8515,-3.815,-3.7755,-3.7859,-3.7935,-3.7987,-3.7731,-3.7976,0.0,0.0,0.0,-3.9391,-4.1504,0.0,-4.3938,-4.4562,-4.4709,-4.4874,-4.5461,-4.5131,-4.4874,-4.548,-4.5608,-4.5773,-4.6397,-4.7168,-4.7297,-4.6104,-4.6911,-4.748,-4.6893,-4.7865,-4.8728,-4.893,-4.9499,-4.9866,-4.9866,-4.9866,-4.9866,-4.9866,-4.9682,-4.937,-4.8985,-4.8765,-4.8361,-4.7719,-4.7113,-4.7095,-4.7682,-4.6507,-4.6214,-4.6819,-4.6819,-4.6819,-4.6819,-4.6819,-4.7131,-4.77,-4.7921,-4.8122,-4.8306,-4.8306,-4.8802,-4.9591,-4.9591,-5.0453,-5.161,-5.1022,-5.1187,-5.1701,0.0,0.0,0.0,0.0,0.0,0.0,0.0,0.0,0.0,0.0,0.0,0.0,-3.3491,-3.3406,-3.3102,-3.2341,-3.2364,-3.2949,-3.4404,-3.5926,-3.6806,-3.684,-3.8227,0.0,-3.8041,-3.799,-3.7601,-3.684,-3.6806,-3.7208,-3.8001,-3.9748,-4.1014,-4.1768,-4.2382,-4.2655,-4.2564,-4.0961,-4.0562,-4.0793,-3.7902,-3.753,-3.8615,-3.7826,-3.7708,-3.7946,-3.7946,-3.7649,-3.7285,-3.7755,-3.7596,-3.7463,-3.8636,-3.8327,-3.7577,0.0,0.0,0.0,-4.0687,-4.1376,-4.1846,-4.414,-4.4709,-4.4727,-4.4764,-4.4745,-4.4727,-4.4764,-4.4764,-4.4782,-4.4837,-4.548,-4.5993,-4.5902,-4.5975,-4.6012,-4.5975,-4.603,-4.6379,-4.715,-4.7297,-4.7315,-4.7315,-4.7315,-4.7315,-4.7315,-4.6599,-4.6471,-4.7205,-4.6507,-4.6067,-4.603,-4.5975,-4.5975,-4.6012,-4.5938,-4.592,-4.5957,-4.5957,-4.5957,-4.5957,-4.5957,-4.5993,-4.6067,-4.6838,-4.7609,-4.8306,-4.8306,-4.8802,-4.9591,-4.9591,-5.0105,-5.0857,-5.082,-5.0839,-5.0857,0.0,0.0,0.0,0.0,0.0,0.0,0.0,0.0,0.0,0.0,0.0,0.0,0.0,-3.3119,-3.2916,-3.1698,-3.2459,-3.3423,-3.4421,-3.5453,-3.6265,-3.6755,-3.7753,-3.8396,-3.8599,-3.8142,-3.777,-3.7499,-3.6518,-3.6627,-3.773,-3.839,-3.954,-4.1168,-4.2592,-4.3214,-4.3141,-4.2046,-4.1693,-4.1684,-3.9593,-3.904,-3.9368,-3.8579,-3.8321,-3.8415,-3.8415,-3.8318,-3.8168,-3.835,-3.8318,-3.8171,-3.8271,-3.8062,-3.7751,-3.7788,-3.7891,-3.834,-3.9999,-4.1126,-4.2084,-4.2947,-4.3552,-4.392,-4.392,-4.392,-4.392,-4.392,-4.392,-4.392,-4.392,-4.5002,-4.5553,-4.4525,-4.5223,-4.5718,-4.5204,-4.5571,-4.6012,-4.6305,-4.6342,-4.6342,-4.6342,-4.6342,-4.6342,-4.6342,-4.6067,-4.603,-4.6305,-4.6067,-4.5902,-4.5902,-4.5406,-4.4874,-4.436,-4.4874,-4.5131,-4.5131,-4.5131,-4.5131,-4.5131,-4.5131,-4.5131,-4.5149,-4.5443,-4.603,-4.6764,-4.6764,-4.726,-4.7939,-4.7425,-4.8361,-4.9884,-4.882,-4.9114,-5.0013,0.0,0.0,0.0,0.0,0.0,0.0,0.0,0.0,0.0,-3.2307,0.0,0.0,0.0,0.0,-3.2689,-3.1716,-3.2739,-3.3748,-3.4455,-3.5199,-3.5859,-3.6366,-3.7364,-3.8007,-3.8244,-3.8024,-3.7787,-3.7533,-3.6248,-3.6202,-3.7361,-3.7499,-3.8482,-4.0087,-4.1517,-4.2414,-4.2721,-4.1971,-4.1729,-4.1702,-3.9648,-3.9424,-4.0194,-3.9111,-3.9038,-3.9478,-3.9203,-3.9093,-3.9056,-3.8799,-3.8707,-3.8627,-3.8065,-3.779,-3.7685,-3.7859,-3.8062,-3.8473,-3.9597,-4.0555,-4.135,-4.1864,-4.2268,-4.2577,-4.2577,-4.274,-4.2868,-4.2595,-4.2923,-4.3214,-4.3214,-4.4253,-4.4727,-4.3663,-4.4397,-4.4911,-4.4378,-4.4764,-4.5186,-4.5461,-4.5498,-4.5498,-4.5498,-4.5498,-4.5498,-4.5498,-4.5241,-4.5204,-4.548,-4.5241,-4.5094,-4.5094,-4.458,-4.4048,-4.3497,-4.403,-4.4305,-4.4305,-4.4305,-4.4305,-4.4305,-4.4305,-4.4305,-4.4305,-4.4305,-4.4911,-4.5902,-4.5902,-4.6214,-4.6654,-4.6104,-4.6911,-4.8251,-4.7425,-4.781,-4.8802,0.0,0.0,0.0,0.0,0.0,0.0,0.0,0.0,-3.3136,-3.2408,0.0,0.0,0.0,0.0,0.0,-3.2409,-3.308,-3.3786,-3.4479,-3.5216,-3.5622,-3.5622,-3.7094,-3.7567,-3.6823,-3.755,-3.7567,0.0,0.0,0.0,0.0,-3.7309,-3.7949,-3.866,-3.9276,-4.0182,-4.1266,-4.06,-4.0633,-4.0863,-3.8008,-3.8561,-4.0946,-3.935,-3.9698,-4.0946,-4.0139,-3.9863,-3.9772,-3.8964,-3.8726,-3.8645,-3.8117,-3.7578,-3.7285,-3.779,-3.7893,-3.8176,0.0,0.0,0.0,-4.0924,-4.0974,-4.0689,-4.0707,-4.125,-4.1527,-4.0902,-4.1787,-4.2675,-4.2711,-4.3142,-4.3497,-4.3497,-4.3497,-4.3497,-4.3497,-4.3497,-4.3791,-4.458,-4.4672,-4.4672,-4.4672,-4.4672,-4.4672,-4.4672,-4.3938,-4.3828,-4.4635,-4.392,-4.3497,-4.3497,-4.3497,-4.3497,-4.3497,-4.3497,-4.3497,-4.3497,-4.3497,-4.3497,-4.3497,-4.3497,-4.3497,-4.3497,-4.3497,-4.4378,-4.5828,-4.5828,-4.5847,-4.5865,-4.5847,-4.5865,-4.5993,-4.6764,-4.7076,-4.7223,0.0,0.0,0.0,0.0,0.0,0.0,0.0,0.0,-3.2773,0.0,0.0,0.0,-3.2517,-3.1992,-3.1903,-3.2434,-3.3077,-3.3799,-3.4499,-3.5244,-3.5622,-3.5622,-3.7094,-3.7804,-3.7601,-3.8311,-3.8328,0.0,0.0,0.0,0.0,0.0,0.0,-3.7348,-3.7897,-3.8321,-3.869,-4.0033,-4.0897,-4.1307,-4.0438,-4.0524,-4.1001,-3.9955,-3.9478,-3.9331,-3.9111,-3.9405,-3.9772,-3.8964,-3.9093,-3.9428,-3.8729,-3.7895,-3.7377,-3.8234,-3.8216,-3.7982,-3.8352,0.0,0.0,0.0,0.0,0.0,-4.0583,-4.0458,-4.0557,-4.188,-4.1967,-4.2122,-4.3105,-4.341,-4.3497,-4.3497,-4.3497,-4.3497,-4.3497,-4.3497,-4.3571,-4.3809,-4.3828,-4.3828,-4.3828,-4.3828,-4.3828,-4.3828,-4.3626,-4.3589,-4.3809,-4.3608,-4.3497,-4.3497,-4.3497,-4.3497,-4.3497,-4.3497,-4.3497,-4.3497,-4.3497,-4.3497,-4.3497,-4.3497,-4.3497,-4.3497,-4.3497,-4.3736,-4.4158,-4.4158,-4.4507,-4.4984,-4.4378,-4.4874,-4.5865,-4.5516,-4.6122,-4.715,0.0,0.0,0.0,0.0,0.0,0.0,0.0,-3.4303,-3.3403,0.0,0.0,0.0,-3.2112,-3.1656,-3.1758,-3.2462,-3.314,-3.3843,-3.4543,-3.5207,-3.5622,-3.5622,-3.6789,-3.7584,-3.7905,-3.8328,0.0,0.0,0.0,0.0,0.0,0.0,0.0,0.0,-3.6635,-3.6732,-3.6818,-3.84,-3.9717,-4.0569,-3.9676,-4.0306,-4.163,-4.0237,-4.0138,-4.062,-4.0039,-4.0288,-4.0781,-3.9974,-4.001,-4.0194,-3.9056,-3.8522,-3.8363,-3.8624,-3.83,-3.7893,-3.7893,-3.7936,-3.7975,-3.8016,0.0,0.0,-3.8972,-3.899,-3.9146,-4.0063,-4.0455,-4.0899,-4.1704,-4.2466,-4.3002,-4.3002,-4.3277,-4.3497,-4.3497,-4.3497,-4.3497,-4.3497,-4.3497,-4.3497,-4.3497,-4.3497,-4.3497,-4.3497,-4.3497,-4.3497,-4.3497,-4.3497,-4.3497,-4.3497,-4.3497,-4.3497,-4.3497,-4.3497,-4.3497,-4.3497,-4.3497,-4.3497,-4.3497,-4.3497,-4.3497,-4.3497,-4.3497,-4.3497,-4.3497,-4.3497,-4.3773,-4.4158,-4.3681,-4.4066,-4.4874,-4.4764,-4.5296,-4.6214,0.0,0.0,0.0,0.0,0.0,0.0,0.0,-3.4938,-3.4464,0.0,-3.3891,-3.2885,-3.1573,-3.146,-3.1739,-3.2437,-3.3093,-3.3735,-3.4333,-3.5052,-3.547,-3.547,-3.632,-3.7094,-3.777,-3.7939,0.0,0.0,0.0,0.0,0.0,0.0,0.0,0.0,0.0,-3.5622,-3.5673,-3.6349,-3.7644,-3.9042,-3.7328,-3.8942,-4.2163,-4.0242,-4.0975,-4.2862,-4.1687,-4.1705,-4.2194,-4.1479,-4.113,-4.0744,-3.9405,-3.9331,-3.9643,-3.9019,-3.8437,-3.798,-3.7859,-3.7193,-3.6696,-3.7162,-3.709,0.0,-3.6818,-3.7297,-3.7618,-3.7102,-3.8235,-3.9345,-3.9474,-4.0943,-4.2132,-4.2132,-4.279,-4.3356,-4.3479,-4.3497,-4.3497,-4.3497,-4.3497,-4.3497,-4.3497,-4.3497,-4.3497,-4.3497,-4.3497,-4.3497,-4.3497,-4.3497,-4.3497,-4.3497,-4.3406,-4.3369,-4.3369,-4.3369,-4.3369,-4.3369,-4.3442,-4.3497,-4.3497,-4.3497,-4.3497,-4.3497,-4.3497,-4.3497,-4.3497,-4.3497,-4.3497,-4.3497,-4.3497,-4.3497,-4.3589,-4.4305,-4.4635,-4.4929,-3.8398,0.0,0.0,0.0,0.0,0.0,0.0,0.0,-3.3934,-3.4519,-3.3509,-3.2423,-3.1585,-3.1507,-3.1582,-3.1682,-3.2382,-3.2841,-3.2986,-3.4137,-3.48,-3.48,-3.6101,-3.6857,-3.6992,-3.8176,0.0,0.0,0.0,0.0,0.0,0.0,0.0,0.0,0.0,-3.5622,-3.5639,-3.5774,-3.6401,-3.737,-3.8009,-3.8975,-4.0077,-3.9656,-3.9669,-4.002,-4.0311,-4.1233,-4.2286,-4.2121,-4.1203,-4.0194,-4.0543,-3.9863,-3.9038,-3.9515,-3.9122,-3.835,-3.756,-3.747,-3.734,-3.6251,-3.6696,0.0,-3.6893,-3.6891,-3.7279,-3.8153,-3.8165,-3.8303,-3.9385,-4.0352,-4.1006,-4.1006,-4.1627,-4.2426,-4.3356,-4.3497,-4.3497,-4.3497,-4.3497,-4.3497,-4.3497,-4.3497,-4.3497,-4.3497,-4.3497,-4.3497,-4.3497,-4.3497,-4.3497,-4.3497,-4.2873,-4.2525,-4.2525,-4.2525,-4.2525,-4.2543,-4.3185,-4.3497,-4.3497,-4.3497,-4.3497,-4.3497,-4.3497,-4.3497,-4.3497,-4.3497,-4.3497,-4.3497,-4.3497,-4.3497,-4.3516,-4.3663,-4.414,-4.4856,-3.8619,0.0,0.0,0.0,0.0,0.0,0.0,0.0,-3.4281,-3.5021,-3.3898,-3.2773,-3.2063,-3.2018,-3.2018,-3.2018,-3.2649,-3.3076,-3.3108,-3.4327,-3.5084,-3.5115,-3.584,-3.6383,-3.6772,-3.7499,0.0,0.0,0.0,0.0,0.0,0.0,0.0,0.0,0.0,-3.5419,-3.5081,-3.5453,-3.6062,-3.6898,-3.7801,-3.8746,-3.9684,-3.9976,-4.001,-3.9996,-4.0579,-4.1451,-4.2197,-4.1535,-4.1476,-4.1501,-4.0458,-4.0084,-4.0045,-3.9928,-3.9295,-3.8577,-3.8221,-3.8233,-3.8188,-3.7718,-3.7777,0.0,0.0,-3.7387,-3.6989,-3.8408,-3.7793,-3.7321,-3.8362,-3.9423,-4.0099,-4.0099,-4.1049,-4.2103,-4.2976,-4.3105,-4.3214,-4.3463,-4.3497,-4.3497,-4.3497,-4.3497,-4.3497,-4.3497,-4.3497,-4.3497,-4.3497,-4.3497,-4.3563,-4.374,-4.2968,-4.2543,-4.2538,-4.2168,-4.206,-4.2304,-4.2708,-4.3112,-4.3497,-4.3497,-4.3497,-4.3497,-4.3497,-4.3497,-4.3497,-4.3497,-4.3497,-4.3497,-4.3497,-4.3497,-4.3497,-4.3497,-4.3754,-4.4213,-3.875,-3.8799,0.0,0.0,0.0,0.0,0.0,0.0,-3.4691,-3.5122,-3.4213,-3.329,-3.2766,-3.2587,-3.2557,-3.2691,-3.2813,-3.3208,-3.3752,-3.47,-3.5283,-3.5396,-3.5667,-3.5994,-3.6332,-3.662,-3.6705,0.0,0.0,0.0,0.0,0.0,0.0,0.0,0.0,-3.5368,-3.4962,-3.5419,-3.6062,-3.6864,-3.7387,-3.827,-3.9289,-3.9781,-4.0017,-4.02,-4.082,-4.1361,-4.1593,-4.0528,-4.1289,-4.234,-4.0095,-4.0146,-4.0869,-4.0068,-3.9345,-3.8804,-3.8938,-3.899,-3.9105,-3.9492,-3.9295,-3.9029,0.0,0.0,0.0,-3.807,-3.718,-3.6439,-3.7042,-3.8136,-3.8995,-3.8995,-4.0363,-4.164,-4.2246,-4.2526,-4.2902,-4.3444,-4.3497,-4.3497,-4.3497,-4.3497,-4.3497,-4.3497,-4.3497,-4.3497,-4.3497,-4.3563,-4.3726,-4.3986,-4.3114,-4.2669,-4.266,-4.1791,-4.1549,-4.1908,-4.2026,-4.2488,-4.3259,-4.3259,-4.3332,-4.3497,-4.3497,-4.3497,-4.3497,-4.3497,-4.3497,-4.3497,-4.3497,-4.3497,-4.3497,-4.3497,-4.3497,-4.3608,-3.9411,-3.8286,-3.7084,0.0,0.0,0.0,0.0,0.0,-3.4297,-3.3787,-3.3591,-3.3469,-3.3395,-3.2856,-3.2751,-3.3335,-3.1807,-3.1875,-3.439,-3.4155,-3.4152,-3.4688,-3.5971,-3.6062,-3.4776,-3.6079,-3.6451,0.0,0.0,0.0,0.0,0.0,0.0,0.0,-3.5588,-3.596,-3.6485,-3.5876,-3.6062,-3.6864,-3.7387,-3.7421,-3.7148,-3.724,-3.7531,-3.8108,-3.9368,-3.9872,-3.9893,-3.9726,-3.9815,-4.0028,-4.0392,-4.0121,-3.962,-3.9562,-3.9421,-3.9194,-3.8631,-3.9256,-3.9942,-3.9651,-4.0331,-4.063,-3.8922,0.0,-3.8105,-3.6918,0.0,-3.5728,-3.5813,0.0,0.0,-3.7104,-3.8739,-4.0211,-4.0849,-4.1934,-4.2902,-4.3444,-4.3497,-4.3497,-4.3497,-4.3497,-4.3497,-4.3497,-4.3497,-4.3497,-4.3497,-4.3772,-4.3955,-4.4016,-4.2817,-4.2165,-4.2191,-4.1025,-4.0458,-4.0541,-4.1014,-4.1662,-4.2433,-4.2433,-4.2818,-4.3497,-4.3497,-4.3497,-4.3497,-4.3497,-4.3497,-4.3497,-4.3497,-4.3497,-4.3497,-4.3497,-4.3497,-4.3608,-3.8975,-3.7976,-3.678,0.0,0.0,0.0,0.0,0.0,-3.4696,-3.3634,-3.3829,-3.4068,-3.4068,-3.3484,-3.335,-3.4008,-3.3319,-3.3501,-3.5165,-3.54,-3.5744,-3.6465,-3.6683,-3.6485,-3.5842,-3.6011,-3.5943,-3.5622,-3.5943,0.0,0.0,0.0,0.0,0.0,-3.5419,-3.5554,-3.5453,-3.5571,-3.5808,-3.6096,-3.6376,-3.6287,-3.6316,-3.8133,-3.8673,-3.8457,-3.8456,-3.8619,-3.8876,-3.8538,-3.8959,-3.9474,-3.9024,-3.8933,-3.8975,-3.8881,-3.9021,-3.9215,-3.9444,-4.0295,-4.1117,-4.1179,-4.1214,-4.0924,-3.9787,-3.8631,-3.7819,-3.7748,0.0,0.0,0.0,0.0,0.0,0.0,-3.8955,-4.0317,-4.0381,-4.1297,-4.234,-4.3389,-4.3497,-4.3497,-4.3497,-4.3497,-4.3497,-4.3497,-4.3497,-4.3497,-4.3497,-4.3836,-4.4087,-4.4346,-4.29,-4.2089,-4.2095,-4.0443,-3.977,-4.0074,-4.0754,-4.1534,-4.2323,-4.2782,-4.3167,-4.3497,-4.3497,-4.3497,-4.3497,-4.3497,-4.3497,-4.3497,-4.3497,-4.3497,-4.3497,-4.3497,-4.3791,-4.4176,-3.7994,-3.7138,-3.618,-3.6435,0.0,0.0,0.0,-3.519,-3.516,-3.4173,-3.4457,-3.4756,-3.4756,-3.4337,-3.4233,-3.4711,-3.4652,-3.4951,-3.5911,-3.6502,-3.692,-3.7249,-3.7347,-3.7009,-3.6163,-3.6011,-3.5825,-3.5622,0.0,0.0,0.0,0.0,0.0,0.0,-3.5368,-3.5436,-3.5131,-3.5487,-3.574,-3.591,-3.5707,-3.5694,-3.6044,-3.8197,-3.8658,-3.8046,-3.7321,-3.7314,-3.7545,-3.7188,-3.786,-3.8688,-3.7932,-3.8171,-3.8743,-3.8622,-3.8756,-3.9204,-4.0135,-4.0949,-4.164,-4.2156,-4.1864,-4.1162,-4.0202,-3.8723,-3.7641,-3.7965,-3.6764,0.0,0.0,0.0,-3.7272,-3.738,0.0,-4.0199,-4.022,-4.0872,-4.1777,-4.3023,-4.3369,-4.3497,-4.3497,-4.3497,-4.3406,-4.3185,-4.3167,-4.3167,-4.3167,-4.3503,-4.3922,-4.4401,-4.2925,-4.2089,-4.2095,-4.0113,-3.9407,-4.0001,-4.0551,-4.1203,-4.2011,-4.28,-4.3167,-4.3167,-4.3387,-4.3497,-4.3497,-4.3497,-4.3497,-4.3497,-4.3497,-4.3497,-4.3497,-4.3497,-4.3864,-4.4287,-3.6622,-3.5548,-3.4817,-3.5533,-3.555,-3.5489,-3.5474,-3.5489,-3.5489,-3.5444,-3.5459,-3.5474,-3.5474,-3.5459,-3.5444,-3.5474,-3.5018,-3.5243,-3.6557,-3.6885,-3.6619,-3.5712,-3.777,-3.755,-3.4624,-3.5994,-3.6366,-3.5622,0.0,0.0,0.0,0.0,0.0,0.0,-3.5605,-3.6028,-3.6654,-3.5926,-3.6045,-3.6671,-3.5926,-3.5898,-3.635,-3.5905,-3.5745,-3.5728,-3.5701,-3.5701,-3.5701,-3.5656,-3.6209,-3.7034,-3.7699,-3.841,-3.9003,-3.8969,-3.9003,-3.9245,-4.0398,-4.0707,-4.1002,-4.2063,-4.2286,-4.1727,-3.9623,-3.8759,-3.7994,-3.6748,-3.6019,-3.5756,-3.6284,-3.6426,-3.6615,-3.715,-3.8276,0.0,0.0,-4.0755,-4.1409,-4.2249,-4.302,-4.3497,-4.3497,-4.3497,-4.3167,-4.2396,-4.2341,-4.2341,-4.2341,-4.265,-4.3208,-4.3979,-4.2776,-4.2108,-4.2108,-4.0106,-3.9508,-4.0272,-4.005,-4.0359,-4.1185,-4.1974,-4.2341,-4.2378,-4.3149,-4.3497,-4.3497,-4.3497,-4.3497,-4.3497,-4.3497,-4.3497,-4.3497,-4.3497,-4.3516,-4.3516,-3.541,-3.4926,-3.4634,-3.4932,-3.4896,-3.4981,-3.5429,-3.5504,-3.5804,-3.6656,-3.6761,-3.7105,-3.7988,-3.7689,-3.7662,-3.8233,-3.7716,-3.7844,-3.8867,-3.8999,-3.8924,-3.8582,-3.8836,-3.8514,-3.7483,-3.7009,-3.6654,-3.6383,-3.5876,0.0,0.0,0.0,0.0,0.0,0.0,-3.5774,-3.5994,-3.574,-3.5774,-3.5994,-3.5723,-3.5694,-3.5854,-3.565,-3.581,-3.6097,-3.5739,-3.5622,-3.5622,-3.5622,-3.6129,-3.6823,-3.7077,-3.7669,-3.8278,-3.8278,-3.8853,-3.9571,-3.9858,-4.0517,-4.1229,-4.1439,-4.1111,-4.0427,-3.9351,-3.8564,-3.7864,-3.7091,-3.6803,-3.6706,-3.6921,-3.7155,-3.763,-3.8331,-3.9114,-3.9725,0.0,-4.0189,-4.0414,-4.0671,-4.1882,-4.291,-4.3442,-4.302,-4.2598,-4.2323,-4.1809,-4.1515,-4.1515,-4.1816,-4.2126,-4.2406,-4.1474,-4.0974,-4.0974,-3.9546,-3.8973,-3.9239,-3.9687,-4.0322,-4.1148,-4.1937,-4.2598,-4.3112,-4.3369,-4.3497,-4.3497,-4.3497,-4.3497,-4.3497,-4.3497,-4.3497,-4.3497,-4.3497,-4.3828,-4.4287,-3.5481,-3.4927,-3.445,-3.43,-3.4394,-3.4711,-3.54,-3.5893,-3.6477,-3.73,-3.7823,-3.8577,-3.9758,-3.9455,-3.9474,-4.0128,-4.0048,-3.9943,-3.9682,-4.0182,-4.0121,-3.9343,-3.9343,-3.9005,-3.8227,-3.7787,-3.7313,-3.6772,-3.6552,-3.6688,0.0,0.0,0.0,0.0,0.0,-3.5622,-3.5622,-3.581,-3.5783,-3.5622,-3.5622,-3.5622,-3.5622,-3.5622,-3.581,-3.6054,-3.5739,-3.5622,-3.5622,-3.5622,-3.6129,-3.6823,-3.7094,-3.7516,-3.7987,-3.8397,-3.8769,-3.9103,-3.9625,-4.0141,-4.0601,-4.0683,-4.0286,-3.9694,-3.8862,-3.8254,-3.7845,-3.764,-3.7423,-3.7337,-3.779,-3.7864,-3.8142,-3.8855,-3.9264,-3.946,0.0,-3.9717,-3.99,-3.99,-4.1313,-4.2396,-4.2616,-4.2433,-4.2066,-4.1497,-4.0965,-4.0671,-4.0671,-4.088,-4.1141,-4.139,-4.064,-4.0232,-4.0232,-3.9227,-3.8836,-3.9129,-3.9643,-4.0322,-4.1148,-4.1937,-4.258,-4.3075,-4.3369,-4.3497,-4.3497,-4.3497,-4.3497,-4.3497,-4.3497,-4.3497,-4.3497,-4.3497,-4.3828,-4.4268,-3.6615,-3.5506,-3.4292,-3.3694,-3.4083,-3.4711,-3.54,-3.6582,-3.7434,-3.7494,-3.8676,-3.9914,-4.0861,-4.0982,-4.1006,-4.1259,-4.1945,-4.1379,-3.9226,-4.0433,-4.029,-3.8108,-3.9343,-3.9089,-3.6992,-3.8294,-3.8294,-3.6891,-3.7567,0.0,0.0,0.0,0.0,0.0,-3.596,-3.5622,-3.565,-3.6182,-3.6097,-3.5622,-3.5622,-3.5622,-3.5622,-3.5622,-3.5622,-3.5622,-3.5622,-3.5622,-3.5622,-3.5622,-3.6129,-3.6907,-3.7618,-3.7872,-3.8119,-3.9279,-3.8676,-3.7969,-3.9691,-3.9644,-3.9259,-3.9768,-3.9863,-3.953,-3.8319,-3.8036,-3.8078,-3.8445,-3.7942,-3.7772,-3.894,-3.8542,-3.8207,-3.8682,-3.8762,-3.8762,-3.8707,-3.935,-3.9845,-3.99,-4.124,-4.1901,-4.1185,-4.1772,-4.1552,-4.001,-3.9845,-3.9827,-3.9827,-3.9827,-4.0194,-4.0965,-4.0249,-3.9827,-3.9827,-3.9074,-3.9074,-3.9827,-3.9827,-4.0267,-4.1075,-4.1882,-4.2268,-4.2341,-4.3149,-4.3497,-4.3497,-4.3497,-4.3497,-4.3497,-4.3497,-4.3497,-4.3497,-4.3497,-4.3497,-4.3497,-3.6615,-3.5506,-3.4577,-3.4936,-3.4711,-3.4711,-3.54,-3.6582,-3.7764,-3.8766,-4.0644,-4.2412,-4.3634,-4.3961,-4.4096,-4.4264,-4.399,-4.3131,-4.151,-4.1791,-4.1255,-3.9597,-3.9884,-3.9817,-3.9242,-3.9073,-3.8802,-3.843,-3.8075,0.0,-3.7889,0.0,0.0,0.0,0.0,-3.581,-3.6224,-3.6333,-3.6291,-3.6182,-3.5783,-3.5622,-3.5622,-3.5622,-3.5622,-3.5622,-3.5622,-3.5622,-3.5622,-3.5622,-3.6129,-3.6806,-3.7009,-3.7449,-3.8018,-3.8687,-3.8911,-3.9022,-3.9246,-3.9509,-3.9717,-3.985,-3.9441,-3.9227,-4.0101,-3.9812,-3.9579,-4.0281,-4.0247,-4.0008,-3.9758,-4.0014,-4.0138,-3.968,-3.9588,-3.9386,-3.8781,-3.8891,-3.9239,-3.9827,-4.0249,-4.0671,-4.1075,-4.0744,-4.0341,-3.9918,-3.935,-3.9019,-3.9019,-3.9019,-3.9111,-3.9313,-3.9129,-3.9019,-3.9019,-3.8799,-3.8799,-3.9019,-3.9019,-3.9423,-4.023,-4.1038,-4.1735,-4.2341,-4.3149,-4.3497,-4.3497,-4.3497,-4.3497,-4.3497,-4.3497,-4.3497,-4.3497,-4.3497,-4.3497,-4.3497,-3.6615,-3.5915,-3.5385,-3.5489,-3.6239,-3.6702,-3.6379,-3.7261,-3.8402,-3.9753,-4.1899,-4.3668,-4.4522,-4.5021,-4.5342,-4.5518,-4.4907,-4.3846,-4.2422,-4.2286,-4.1627,-4.0138,-4.007,-3.9783,-3.914,-3.9039,-3.8836,-3.8514,-3.8108,-3.8075,-3.8362,0.0,0.0,0.0,0.0,-3.5783,-3.6054,-3.6054,-3.6182,-3.6333,-3.5827,-3.5622,0.0,-3.5622,-3.5622,-3.5622,-3.5622,-3.5622,-3.5622,-3.5622,-3.6129,-3.6772,-3.6772,-3.706,-3.7568,-3.8252,-3.8491,-3.8531,-3.881,-3.9122,-3.9386,-3.9386,-3.9038,-3.9038,-4.0304,-4.023,-4.023,-4.1387,-4.135,-4.0965,-4.0506,-4.0506,-4.0304,-3.9515,-3.9386,-3.9221,-3.8762,-3.8707,-3.8872,-3.9313,-3.968,-3.9937,-4.0047,-3.9955,-3.9753,-3.9405,-3.9276,-3.9074,-3.8726,-3.9038,-3.9056,-3.8707,-3.8707,-3.8707,-3.8707,-3.8707,-3.8707,-3.8707,-3.8465,-3.8933,-4.0063,-4.0518,-4.1375,-4.2486,-4.3208,-4.3497,-4.3497,-4.3497,-4.3497,-4.3497,-4.3497,-4.3497,-4.3497,-4.3497,-4.3497,-4.3497,-3.6446,-3.6539,-3.6451,-3.5789,-3.7935,-3.9439,-3.8167,-3.8765,-3.9769,-4.0882,-4.3099,-4.451,-4.4614,-4.528,-4.5685,-4.5578,-4.4885,-4.3748,-4.2129,-4.2028,-4.1403,-4.002,-4.002,-3.9445,-3.8075,-3.8667,-3.8684,-3.8041,-3.7956,-3.8227,0.0,0.0,0.0,0.0,0.0,-3.5667,-3.5694,-3.5694,-3.5968,-3.6333,-3.5827,-3.5622,-3.5622,-3.5622,-3.5622,-3.5622,-3.5622,-3.5622,-3.5622,-3.5622,-3.6062,-3.662,-3.662,-3.662,-3.6831,-3.7842,-3.7721,-3.7414,-3.8433,-3.8707,-3.8707,-3.8707,-3.8707,-3.8909,-3.9717,-3.99,-4.0322,-4.1827,-4.1589,-4.1111,-4.1111,-4.0451,-3.9735,-3.9258,-3.8909,-3.8781,-3.8982,-3.8927,-3.8909,-3.9001,-3.9533,0.0,-3.8927,-3.9478,-3.957,-3.8762,-3.935,-3.9441,-3.8744,-3.935,-3.9423,-3.8726,-3.8707,-3.8762,-3.8854,-3.8762,-3.8713,-3.8742,-3.8186,-3.858,-3.9805,-4.0094,-4.0996,-4.2425,-4.3123,-4.3444,-4.3497,-4.3497,-4.3497,-4.3497,-4.3497,-4.3497,-4.3497,-4.3497,-4.3497,-4.3497,-3.5668,-3.6603,-3.7184,-3.6507,-3.837,-4.0274,-4.1086,-4.2343,-4.3304,-4.3559,-4.555,-4.6733,-4.6174,-4.6891,-4.6726,-4.4942,-4.4073,-4.2725,-4.0636,-4.0503,-4.005,-3.9172,-3.9731,-3.9681,-3.8819,-3.892,-3.8937,-3.8802,-3.821,-3.7973,0.0,0.0,0.0,0.0,0.0,-3.5871,-3.6266,-3.6266,-3.6291,-3.6333,-3.5827,-3.5622,-3.5622,-3.5622,-3.5622,-3.5622,-3.5622,-3.5622,-3.5622,-3.5622,-3.5707,-3.5825,-3.5825,-3.5825,-3.6014,-3.7075,-3.7279,-3.7414,-3.8433,-3.8707,-3.8707,-3.8707,-3.8707,-3.8909,-3.9717,-3.99,-4.0175,-4.113,-4.1203,-4.1111,-4.1111,-4.0451,-4.0286,-4.1479,-4.001,-3.9166,-4.0506,-4.0102,-3.9937,-4.0616,-4.0212,-3.9827,-3.9698,-3.9808,-3.957,-3.8762,-3.8836,-3.8854,-3.8707,-3.8836,-3.8854,-3.8707,-3.8707,-3.9019,-3.968,-3.9038,-3.8793,-3.9007,-3.8253,-3.7828,-3.7785,-3.9064,-4.0045,-4.0799,-4.2229,-4.3087,-4.3497,-4.3497,-4.3497,-4.3497,-4.3497,-4.3497,-4.3497,-4.3497,-4.3497,-4.3497,-3.717,-3.8074,-3.8825,-3.8918,-4.082,-4.2623,-4.3697,-4.5173,-4.5795,-4.4952,-4.5854,-4.6335,-4.5584,-4.5868,-4.535,-4.3571,-4.2654,-4.139,-3.9617,-3.986,-3.9754,-3.8941,-3.9662,-3.9563,-3.8447,-3.843,-3.843,-3.843,-3.7686,-3.7533,0.0,0.0,0.0,-3.5622,-3.5622,-3.5739,-3.5985,-3.5985,-3.5985,-3.5985,-3.5694,-3.5622,-3.5622,-3.5622,-3.5622,-3.5622,-3.5622,-3.5622,-3.5622,-3.5622,-3.5622,-3.5622,-3.5622,-3.5783,-3.6165,-3.696,-3.736,-3.7738,-3.8496,-3.8707,-3.8707,-3.8707,-3.8707,-3.8909,-3.9717,-3.99,-4.012,-4.0946,-4.1111,-4.0983,-4.0561,-3.9827,-3.9662,-4.0855,-4.0084,-3.9735,-4.0946,-4.0781,-4.0671,-4.1056,-4.0763,-4.0359,-3.9937,-3.99,-3.957,-3.8762,-3.9093,-3.9148,-3.8726,-3.9093,-3.9129,-3.8707,-3.8707,-3.8891,-3.9276,-3.8615,-3.8365,-3.8453,-3.7557,-3.7214,-3.7399,-3.8435,-3.9491,-4.0566,-4.1923,-4.2885,-4.3497,-4.3497,-4.3497,-4.3497,-4.3497,-4.3497,-4.3497,-4.3497,-4.3497,-4.3497,-3.9185,-3.9974,-4.0817,-4.1504,-4.342,-4.5114,-4.5756,-4.7015,-4.744,-4.6076,-4.5778,-4.5387,-4.463,-4.4274,-4.3502,-4.1911,-4.1148,-4.0187,-3.8777,-3.9389,-3.9589,-3.8941,-3.9662,-3.9462,-3.8159,-3.799,-3.7821,-3.7669,-3.706,-3.7009,-3.7415,0.0,0.0,-3.5622,-3.5622,-3.5622,-3.5622,-3.5622,-3.5622,-3.5622,-3.5622,-3.5622,-3.5622,-3.5622,-3.5622,-3.5622,-3.5622,-3.5622,-3.5622,-3.5622,-3.5622,-3.5622,-3.5739,-3.6054,-3.6522,-3.7173,-3.7614,-3.8032,-3.8546,-3.8707,-3.8707,-3.8707,-3.8707,-3.8872,-3.9496,-3.9643,-3.9827,-4.0469,-4.0744,-4.0653,-4.001,-3.9515,-3.9423,-4.0047,-4.0157,-4.0432,-4.1258,-4.1368,-4.1295,-4.113,-4.1111,-4.0726,-3.9735,-3.9643,-3.9386,-3.8762,-3.9129,-3.9184,-3.8726,-3.9294,-3.9423,-3.8964,-3.8964,-3.8988,-3.9058,-3.8262,-3.788,-3.7811,-3.6992,-3.6793,-3.7299,-3.8033,-3.9181,-4.0677,-4.1669,-4.2624,-4.3497,-4.3497,-4.3497,-4.3497,-4.3497,-4.3497,-4.3497,-4.3497,-4.3497,-4.3497,-4.0704,-4.1996,-4.3048,-4.3174,-4.5033,-4.6583,-4.671,-4.7368,-4.7825,-4.7696,-4.6391,-4.5239,-4.4467,-4.3716,-4.2398,-4.028,-4.0043,-3.939,-3.7998,-3.8567,-3.899,-3.8908,-3.9662,-3.9698,-3.8903,-3.8244,-3.7567,-3.6891,-3.6806,-3.6451,-3.5842,-3.6485,-3.6366,-3.5622,-3.5622,-3.5622,-3.5622,-3.5622,-3.5622,-3.5622,-3.5622,-3.5622,-3.5622,-3.5622,-3.5622,-3.5622,-3.5622,-3.5622,-3.5622,-3.5622,-3.5622,-3.5694,-3.6182,-3.6333,-3.6603,-3.756,-3.7877,-3.8032,-3.8546,-3.8707,-3.8707,-3.8707,-3.8707,-3.8726,-3.8799,-3.8817,-3.8836,-3.8909,-3.9496,-3.9992,-3.99,-4.0432,-4.091,-4.0983,-4.1001,-4.1277,-4.2066,-4.2194,-4.1919,-4.1203,-4.1111,-4.0506,-3.8964,-3.8817,-3.8781,-3.8707,-3.8083,-3.801,-3.867,-3.8781,-3.9111,-3.9772,-3.979,-3.9889,-4.0166,-3.865,-3.7809,-3.7614,-3.7277,-3.6917,-3.6537,-3.7765,-3.9035,-4.0365,-4.116,-4.225,-4.3497,-4.3497,-4.3497,-4.3497,-4.3497,-4.3497,-4.3497,-4.3497,-4.3497,-4.3497,-4.3663,-4.4291,-4.5018,-4.5949,-4.649,-4.6802,-4.6703,-4.6557,-4.6105,-4.514,-4.4891,-4.4532,-4.3717,-4.2075,-4.0751,-3.9998,-3.9059,-3.8288,-3.7812,-3.8469,-3.8908,-3.8908,-3.9662,-3.9529,-3.8362,-3.8058,-3.7533,-3.6772,-3.7229,-3.7297,-3.6992,-3.7313,-3.6806,-3.5622,-3.5622,-3.5622,-3.5622,-3.5622,-3.5622,-3.5622,-3.5622,-3.5622,-3.5622,-3.5622,-3.5622,-3.5622,-3.5622,-3.5622,-3.5622,-3.5622,-3.581,-3.6139,-3.6333,-3.6825,-3.7379,-3.779,-3.8132,-3.8433,-3.8627,-3.8707,-3.8707,-3.8707,-3.8707,-3.8707,-3.8707,-3.8707,-3.8707,-3.8707,-3.8964,-3.9184,-3.9184,-3.9441,-3.9827,-4.0304,-4.0781,-4.1387,-4.2194,-4.2304,-4.2176,-4.1864,-4.0543,-3.9606,-3.9441,-3.8542,-3.8377,-3.935,-3.867,-3.856,-3.9368,-3.8964,-3.9294,-4.0579,-3.9349,-3.8985,-3.9571,-3.83,-3.7399,-3.6866,-3.7213,-3.7056,-3.6433,-3.8046,-3.9788,-4.1519,-4.2303,-4.2975,-4.3497,-4.3497,-4.3497,-4.3497,-4.3497,-4.3497,-4.3497,-4.3497,-4.3497,-4.3497,-4.6072,-4.6096,-4.6344,-4.7603,-4.7166,-4.6507,-4.6258,-4.5554,-4.4497,-4.2919,-4.2864,-4.2799,-4.2137,-4.0255,-3.9094,-3.9201,-3.8449,-3.8004,-3.8141,-3.8816,-3.9262,-3.9262,-3.9782,-3.9597,-3.8565,-3.8125,-3.7533,-3.6772,-3.7313,-3.7347,-3.6907,-3.7127,-3.6654,-3.5622,-3.5622,-3.5622,-3.5622,-3.5622,-3.5622,-3.5622,-3.5622,-3.5622,-3.5622,-3.5622,-3.5622,-3.5622,-3.5622,-3.5622,-3.5622,-3.5622,-3.6054,-3.6661,-3.6661,-3.721,-3.7946,-3.8099,-3.8415,-3.8707,-3.8707,-3.8707,-3.8707,-3.8707,-3.8707,-3.8707,-3.8707,-3.8707,-3.8707,-3.8707,-3.8707,-3.8707,-3.8707,-3.8891,-3.9166,-3.9478,-4.0432,-4.1222,-4.1552,-4.1809,-4.1864,-4.1625,-4.0084,-3.9184,-3.9515,-3.8505,-3.8303,-3.946,-3.9239,-3.9294,-3.9863,-3.935,-3.9488,-4.0474,-3.9023,-3.851,-3.897,-3.7761,-3.7051,-3.687,-3.7245,-3.723,-3.701,-3.8851,-4.0662,-4.2341,-4.3149,-4.3497,-4.3497,-4.3497,-4.3497,-4.3497,-4.3497,-4.3497,-4.3497,-4.3497,-4.3497,-4.3497,-4.7417,-4.7141,-4.6732,-4.7457,-4.6867,-4.5987,-4.5298,-4.4609,-4.3584,-4.2015,-4.0603,-3.9765,-3.9749,-3.8394,-3.7458,-3.7636,-3.832,-3.8834,-3.8903,-3.9662,-4.007,-4.007,-4.007,-4.007,-4.0054,-3.865,-3.7533,-3.6772,-3.6789,-3.6011,-3.4556,-3.5301,-3.5639,-3.5622,-3.5622,-3.5622,-3.5622,-3.5622,-3.5622,-3.5622,-3.5622,-3.5622,-3.5622,-3.5622,-3.5622,-3.5622,-3.5622,-3.5622,-3.5622,-3.5622,-3.6333,-3.7173,-3.7173,-3.7506,-3.8013,-3.8546,-3.8707,-3.8707,-3.8707,-3.8707,-3.8707,-3.8707,-3.8707,-3.8707,-3.8707,-3.8707,-3.8707,-3.8707,-3.8707,-3.8707,-3.8707,-3.935,-3.9625,-3.8836,-4.0065,-4.0836,-4.0029,-4.0616,-4.0836,-4.001,-3.99,-3.957,-3.8799,-3.8707,-3.8689,-3.8707,-3.9441,-3.9882,-3.99,-3.9882,-3.9634,-3.9155,-3.9102,-3.895,-3.8703,-3.7161,-3.693,-3.7855,-3.7434,-3.7598,-3.832,-4.0217,-4.1534,-4.2341,-4.3149,-4.3497,-4.3497,-4.3497,-4.3497,-4.3497,-4.3497,-4.3497,-4.3497,-4.3497,-4.3497,-4.3497,-4.5946,-4.6218,-4.6257,-4.5999,-4.5745,-4.4931,-4.3151,-4.2651,-4.193,-4.033,-3.9001,-3.8354,-3.887,-3.7673,-3.7238,-3.8336,-3.8237,-3.8561,-3.9627,-3.9952,-4.007,-4.007,-3.9597,-3.9343,-3.9343,-3.8396,-3.7533,-3.6772,-3.7297,-3.7026,-3.6062,-3.6299,-3.6129,-3.5622,-3.5622,-3.5622,-3.5622,-3.5622,-3.5622,-3.5571,-3.5064,-3.4844,-3.4844,-3.4844,-3.4844,-3.4912,-3.5436,-3.5622,-3.5622,-3.5622,-3.6054,-3.6643,-3.6643,-3.7487,-3.8465,-3.8658,-3.8707,-3.8707,-3.8707,-3.8707,-3.8707,-3.8707,-3.8707,-3.8707,-3.8707,-3.8707,-3.8707,-3.8707,-3.8707,-3.8707,-3.8707,-3.8909,-3.9001,-3.8744,-3.9588,-4.0194,-3.9937,-4.012,-3.9974,-3.9184,-3.8597,-3.8138,-3.79,-3.7863,-3.834,-3.9441,-4.0267,-4.0487,-3.9918,-3.99,-4.0056,-4.0455,-3.9229,-3.8525,-3.8513,-3.8641,-3.8355,-3.7723,-3.9284,-4.0419,-4.1069,-4.1638,-4.2359,-4.313,-4.3387,-4.3497,-4.3497,-4.3497,-4.3497,-4.3497,-4.3497,-4.3497,-4.3497,-4.3497,-4.3497,-4.3497,-4.5154,-4.5428,-4.5468,-4.4772,-4.4378,-4.3494,-4.1607,-4.125,-4.0822,-3.9571,-3.8242,-3.7729,-3.8496,-3.7373,-3.7156,-3.8679,-3.8448,-3.8761,-4.002,-4.007,-4.007,-4.007,-3.9648,-3.9276,-3.9005,-3.8278,-3.7533,-3.6772,-3.6958,-3.6806,-3.6349,-3.6349,-3.6079,-3.5622,-3.5622,-3.5622,-3.5622,-3.5622,-3.5622,-3.5554,-3.4793,-3.4489,-3.4455,-3.4184,-3.4083,-3.4184,-3.4928,-3.5199,-3.5233,-3.552,-3.5941,-3.6374,-3.6374,-3.719,-3.8168,-3.835,-3.8382,-3.8446,-3.8658,-3.8707,-3.8707,-3.8707,-3.8707,-3.8707,-3.8707,-3.8707,-3.8707,-3.8707,-3.8707,-3.8707,-3.8707,-3.8707,-3.8707,-3.8707,-3.9129,-3.9441,-3.9441,-3.9184,-3.8909,-3.8726,-3.7973,-3.7606,-3.7918,-3.7936,-3.8358,-3.9368,-4.0469,-4.0763,-3.9937,-4.0469,-4.0661,-4.0367,-3.9211,-3.8801,-3.9266,-3.8971,-3.8804,-3.8716,-4.0221,-4.1433,-4.2304,-4.2304,-4.2745,-4.3497,-4.3497,-4.3497,-4.3497,-4.3497,-4.3497,-4.3497,-4.3497,-4.3497,-4.3497,-4.3497,-4.3497,-4.3497,-4.4788,-4.4736,-4.4458,-4.3793,-4.2955,-4.1863,-4.0591,-4.0367,-4.0098,-3.9439,-3.8212,-3.7714,-3.8565,-3.7483,-3.7306,-3.8854,-3.8908,-3.9262,-4.007,-4.007,-4.007,-4.007,-4.002,-3.9681,-3.9005,-3.8278,-3.7533,-3.6772,-3.5994,-3.5622,-3.5622,-3.5571,-3.5571,-3.5622,-3.5504,-3.5504,-3.5537,-3.5487,-3.547,-3.5402,-3.4641,-3.4336,-3.4269,-3.3575,-3.3322,-3.3423,-3.415,-3.4455,-3.459,-3.525,-3.5822,-3.6264,-3.6264,-3.6636,-3.7177,-3.7737,-3.7893,-3.8032,-3.8546,-3.8707,-3.8707,-3.8707,-3.8707,-3.8707,-3.8707,-3.8707,-3.8707,-3.8707,-3.8707,-3.8707,-3.8707,-3.8707,-3.8707,-3.8707,-3.8707,-3.8689,-3.8615,-3.801,-3.7808,-3.8469,-3.7955,-3.7845,-3.856,-3.867,-3.8726,-3.8781,-4.023,-4.0781,-4.001,-4.1515,-4.1421,-3.9316,-3.9228,-3.9732,-4.0654,-3.8614,-3.8685,-4.0813,-4.0556,-4.1106,-4.2378,-4.2378,-4.2782,-4.3497,-4.3497,-4.3497,-4.3497,-4.3497,-4.3497,-4.3497,-4.3497,-4.3497,-4.3497,-4.3497,-4.3497,-4.3497,-4.2162,-4.2637,-4.2908,-4.2742,-4.2152,-4.1339,-4.0531,-3.9978,-3.9409,-3.8721,-3.7913,-3.7785,-3.862,-3.8039,-3.8133,-3.9662,-3.9262,-3.9262,-4.007,-4.007,-4.007,-4.007,-3.9546,-3.9174,-3.8988,-3.8278,-3.7533,-3.6772,-3.5994,-3.5622,-3.5605,-3.503,-3.5064,-3.5571,-3.4438,-3.4235,-3.4726,-3.4167,-3.3931,-3.3863,-3.3119,-3.2797,-3.278,-3.2611,-3.2544,-3.2645,-3.3406,-3.4015,-3.4438,-3.4049,-3.4372,-3.4959,-3.4959,-3.5304,-3.6015,-3.747,-3.7893,-3.8032,-3.8546,-3.8707,-3.8707,-3.8707,-3.8707,-3.8707,-3.8707,-3.8707,-3.8707,-3.8707,-3.8707,-3.8707,-3.8707,-3.8707,-3.8707,-3.8707,-3.8707,-3.8487,-3.7863,-3.8138,-3.8028,-3.6982,-3.7771,-3.8248,-3.7826,-3.834,-3.8946,-3.957,-4.0543,-4.1038,-4.0836,-4.2341,-4.2436,-4.0672,-4.0763,-4.0726,-4.0398,-4.1063,-4.1883,-4.2832,-4.2757,-4.288,-4.3222,-4.3222,-4.3314,-4.3497,-4.3497,-4.3497,-4.3497,-4.3497,-4.3497,-4.3497,-4.3497,-4.3497,-4.3497,-4.3497,-4.3497,-4.3497,-4.0412,-4.125,-4.1818,-4.1519,-4.1175,-4.0606,-3.9634,-3.9185,-3.8706,-3.8033,-3.7389,-3.7339,-3.8167,-3.7987,-3.8262,-3.9437,-3.9489,-3.961,-4.007,-4.007,-4.007,-4.007,-3.9377,-3.8836,-3.8497,-3.777,-3.7026,-3.6248,-3.5825,-3.5622,-3.5605,-3.4844,-3.4709,-3.5064,-3.3914,-3.3626,-3.3964,-3.3575,-3.3406,-3.3339,-3.2594,-3.2313,-3.2239,-3.1918,-3.1782,-3.1884,-3.2628,-3.3136,-3.3474,-3.3423,-3.3677,-3.3998,-3.3998,-3.4193,-3.468,-3.5876,-3.6863,-3.7685,-3.8183,-3.8332,-3.8382,-3.8627,-3.8707,-3.8707,-3.8707,-3.8707,-3.8707,-3.8707,-3.8707,-3.8707,-3.8707,-3.8707,-3.8579,-3.8212,-3.8469,-3.8414,-3.7606,-3.7863,-3.7955,-3.7459,-3.7845,-3.812,-3.8046,-3.8781,-3.9423,-3.9863,-4.0983,-4.1662,-4.1662,-4.2818,-4.2928,-4.1699,-4.1754,-4.1795,-4.1758,-4.225,-4.2667,-4.2947,-4.2947,-4.313,-4.3497,-4.3497,-4.3497,-4.3497,-4.3497,-4.3497,-4.3497,-4.3497,-4.3497,-4.3497,-4.3497,-4.3497,-4.3497,-4.3497,-4.3497,-4.3497,-3.9544,-4.0382,-4.0965,-4.0606,-4.0382,-3.9903,-3.8856,-3.8527,-3.8153,-3.7494,-3.6866,-3.6799,-3.7561,-3.7745,-3.8149,-3.9032,-3.9731,-4.007,-4.007,-4.007,-4.002,-3.9918,-3.9326,-3.8599,-3.7753,-3.6992,-3.6282,-3.5622,-3.5622,-3.5622,-3.5605,-3.4726,-3.4387,-3.4455,-3.3508,-3.3136,-3.3237,-3.3119,-3.3068,-3.3017,-3.2374,-3.2121,-3.2053,-3.1427,-3.119,-3.1275,-3.1901,-3.2188,-3.2357,-3.2899,-3.3136,-3.3237,-3.3237,-3.3279,-3.3444,-3.4012,-3.5486,-3.6996,-3.7505,-3.7769,-3.8013,-3.8578,-3.8707,-3.8707,-3.8707,-3.8707,-3.8707,-3.8707,-3.8707,-3.8707,-3.8707,-3.8707,-3.8524,-3.7936,-3.8322,-3.8469,-3.7771,-3.7661,-3.7881,-3.845,-3.812,-3.812,-3.8817,-3.9606,-4.012,-4.0249,-4.1534,-4.2359,-4.247,-4.313,-4.3185,-4.2506,-4.2488,-4.28,-4.3479,-4.2818,-4.2488,-4.2488,-4.2488,-4.2837,-4.3497,-4.3497,-4.3497,-4.3497,-4.3497,-4.3497,-4.3497,-4.3497,-4.3497,-4.3497,-4.3497,-4.3497,-4.3497,-4.3497,-4.3497,-4.3497,-4.0142,-3.9963,-4.0038,-4.1055,-4.0307,-3.9694,-4.0038,-3.9125,-3.8153,-3.7494,-3.6866,-3.6797,-3.7694,-3.777,-3.8374,-3.9782,-4.002,-4.007,-4.007,-4.007,-3.98,-3.9191,-3.9056,-3.8345,-3.6992,-3.6197,-3.574,-3.5622,-3.5622,-3.5622,-3.5588,-3.4218,-3.3897,-3.4404,-3.2425,-3.1884,-3.2408,-3.1799,-3.1529,-3.1529,-3.141,-3.136,-3.136,-3.1241,-3.119,-3.1207,-3.1326,-3.1749,-3.2205,-3.1698,-3.1952,-3.2459,-3.2459,-3.2786,-3.3277,-3.3934,-3.4809,-3.5706,-3.6164,-3.7076,-3.8013,-3.8578,-3.8707,-3.8707,-3.8707,-3.8707,-3.8707,-3.8707,-3.8707,-3.8707,-3.8707,-3.8707,-3.8891,-3.9423,-3.9056,-3.867,-3.8524,-3.8505,-3.8303,-3.7734,-3.8762,-3.957,-3.9698,-4.0451,-4.1203,-4.1882,-4.2158,-4.2598,-4.3277,-4.3424,-4.3424,-4.3314,-4.3296,-4.3369,-4.3497,-4.3369,-4.3296,-4.3296,-4.3296,-4.3369,-4.3497,-4.3497,-4.3497,-4.3497,-4.3497,-4.3497,-4.3497,-4.3497,-4.3497,-4.3497,-4.3497,-4.3497,-4.3497,-4.3497,-4.3497,-4.3497,-3.8721,-3.8542,-3.8527,-3.914,-3.9035,-3.8841,-3.8796,-3.8257,-3.7629,-3.7,-3.6693,-3.669,-3.7131,-3.7905,-3.8707,-3.9385,-3.9833,-4.007,-4.007,-4.007,-3.9749,-3.9022,-3.8616,-3.7702,-3.6197,-3.5808,-3.5622,-3.5622,-3.5216,-3.5013,-3.4979,-3.3491,-3.2983,-3.3237,-3.1816,-3.1376,-3.1681,-3.1326,-3.119,-3.119,-3.119,-3.119,-3.119,-3.119,-3.119,-3.119,-3.119,-3.141,-3.1647,-3.1309,-3.141,-3.176,-3.1944,-3.2193,-3.2505,-3.3071,-3.4386,-3.5776,-3.6463,-3.7256,-3.8013,-3.8578,-3.8707,-3.8707,-3.8707,-3.8707,-3.8817,-3.9258,-3.9001,-3.8836,-3.9276,-3.9001,-3.8817,-3.9184,-3.8946,-3.8854,-3.9294,-3.935,-3.9368,-3.9423,-4.0084,-4.0561,-4.0561,-4.1277,-4.1901,-4.2268,-4.269,-4.3112,-4.3461,-4.3497,-4.3497,-4.3497,-4.3497,-4.3497,-4.3497,-4.3497,-4.3497,-4.3497,-4.3497,-4.3497,-4.3497,-4.3497,-4.3497,-4.3497,-4.3497,-4.3497,-4.3497,-4.3497,-4.3497,-4.3497,-4.3497,-4.3497,-4.3497,-4.3497,-4.3497,-4.3497,-3.7404,-3.73,-3.724,-3.7389,-3.7704,-3.7893,-3.7722,-3.7526,-3.7389,-3.7086,-3.694,-3.6964,-3.7128,-3.8213,-3.8962,-3.9139,-3.9714,-4.007,-4.007,-3.9918,-3.9512,-3.8768,-3.7872,-3.6823,-3.5639,-3.5622,-3.5537,-3.5351,-3.4776,-3.4404,-3.4218,-3.2899,-3.2313,-3.2297,-3.1512,-3.119,-3.119,-3.119,-3.119,-3.119,-3.119,-3.119,-3.119,-3.119,-3.119,-3.119,-3.119,-3.119,-3.119,-3.119,-3.1252,-3.1372,-3.1696,-3.188,-3.2022,-3.2366,-3.3987,-3.5826,-3.6677,-3.7327,-3.7877,-3.8546,-3.8707,-3.8707,-3.8707,-3.8836,-3.9148,-3.9772,-3.9551,-3.946,-4.0065,-3.968,-3.9331,-3.9515,-3.9386,-3.9551,-4.0341,-4.0304,-4.0414,-4.1038,-4.1277,-4.1387,-4.1387,-4.2121,-4.258,-4.258,-4.3149,-4.3497,-4.3497,-4.3497,-4.3497,-4.3497,-4.3497,-4.3497,-4.3497,-4.3497,-4.3497,-4.3497,-4.3497,-4.3497,-4.3497,-4.3497,-4.3497,-4.3497,-4.3497,-4.3497,-4.3497,-4.3497,-4.3497,-4.3497,-4.3497,-4.3497,-4.3497,-4.3497,-4.3497,-4.3497,-3.7404,-3.6941,-3.6731,-3.73,-3.6971,-3.7059,-3.8354,-3.799,-3.781,-3.8562,-3.8062,-3.7978,-3.869,-3.8854,-3.9193,-3.9952,-4.007,-4.007,-4.007,-3.9445,-3.8751,-3.8024,-3.6569,-3.574,-3.5622,-3.5622,-3.5284,-3.4573,-3.4523,-3.415,-3.3457,-3.2662,-3.2313,-3.2297,-3.1512,-3.119,-3.119,-3.119,-3.119,-3.119,-3.119,-3.119,-3.119,-3.119,-3.119,-3.119,-3.119,-3.119,-3.119,-3.119,-3.1449,-3.1752,-3.1789,-3.2092,-3.2451,-3.2484,-3.3632,-3.5049,-3.5881,-3.6643,-3.7487,-3.8451,-3.8707,-3.8707,-3.8707,-3.9276,-3.9827,-3.9882,-4.0451,-4.0946,-4.102,-4.0965,-4.1185,-4.1919,-4.1423,-4.1203,-4.2011,-4.1479,-4.1038,-4.1111,-4.1772,-4.2213,-4.2213,-4.2928,-4.3406,-4.3406,-4.3461,-4.3497,-4.3497,-4.3497,-4.3497,-4.3497,-4.3497,-4.3497,-4.3497,-4.3497,-4.3497,-4.3497,-4.3497,-4.3497,-4.3497,-4.3497,-4.3497,-4.3497,-4.3497,-4.3497,-4.3497,-4.3497,-4.3497,-4.3497,-4.3497,-4.3497,-4.3497,-4.3497,-4.3497,-4.3497,-3.6836,-3.6312,-3.5953,-3.6193,-3.6773,-3.7379,-3.793,-3.8169,-3.8426,-3.8743,-3.8642,-3.858,-3.8854,-3.9368,-3.9782,-4.007,-4.007,-4.007,-4.007,-3.8971,-3.799,-3.7246,-3.6197,-3.5622,-3.5622,-3.5622,-3.525,-3.4489,-3.4032,-3.344,-3.2696,-3.1952,-3.1613,-3.1596,-3.1326,-3.119,-3.119,-3.119,-3.119,-3.119,-3.119,-3.119,-3.119,-3.119,-3.119,-3.119,-3.119,-3.119,-3.119,-3.119,-3.1291,-3.1507,-3.2074,-3.2179,-3.2232,-3.3016,-3.3969,-3.5031,-3.6182,-3.704,-3.7808,-3.8515,-3.8707,-3.8707,-3.8707,-3.9313,-4.0029,-4.0543,-4.0891,-4.1258,-4.1754,-4.1442,-4.1368,-4.2176,-4.1625,-4.157,-4.2855,-4.2359,-4.2029,-4.2525,-4.2855,-4.3039,-4.3039,-4.3314,-4.3497,-4.3497,-4.3497,-4.3497,-4.3497,-4.3497,-4.3497,-4.3497,-4.3497,-4.3497,-4.3497,-4.3497,-4.3497,-4.3497,-4.3497,-4.3497,-4.3497,-4.3497,-4.3497,-4.3497,-4.3497,-4.3497,-4.3497,-4.3497,-4.3497,-4.3497,-4.3497,-4.3497,-4.3497,-4.3497,-4.3497,-4.3497,-3.6178,-3.5818,-3.5504,-3.5504,-3.6338,-3.7029,-3.725,-3.7989,-3.8584,-3.8801,-3.9112,-3.9262,-3.9262,-3.9782,-4.007,-4.007,-4.007,-4.007,-4.007,-3.8717,-3.7466,-3.6468,-3.591,-3.5622,-3.5622,-3.5385,-3.4895,-3.415,-3.3423,-3.2679,-3.1935,-3.1427,-3.119,-3.119,-3.119,-3.119,-3.119,-3.119,-3.119,-3.119,-3.119,-3.119,-3.119,-3.119,-3.119,-3.119,-3.119,-3.119,-3.119,-3.119,-3.1291,-3.1487,-3.2074,-3.2231,-3.2437,-3.386,-3.4692,-3.5509,-3.7,-3.7784,-3.8234,-3.8627,-3.8891,-3.9074,-3.9074,-3.9882,-4.0818,-4.1368,-4.168,-4.2029,-4.258,-4.2231,-4.2029,-4.2598,-4.2213,-4.2249,-4.3332,-4.302,-4.2873,-4.3424,-4.3497,-4.3497,-4.3497,-4.3497,-4.3497,-4.3497,-4.3497,-4.3497,-4.3497,-4.3497,-4.3497,-4.3497,-4.3497,-4.3497,-4.3497,-4.3497,-4.3497,-4.3497,-4.3497,-4.3497,-4.3497,-4.3497,-4.3497,-4.3497,-4.3497,-4.3497,-4.3497,-4.3497,-4.3563,-4.3646,-4.3646,-4.3726,-4.3855,-4.3855,-4.3758,-4.3646,-3.5504,-3.5504,-3.5504,-3.5504,-3.5504,-3.5797,-3.6492,-3.7279,-3.8092,-3.8799,-3.961,-4.007,-4.007,-4.007,-4.007,-4.007,-4.007,-4.007,-4.0054,-3.87,-3.7212,-3.5673,-3.5605,-3.5605,-3.5605,-3.4878,-3.4134,-3.3406,-3.2662,-3.1918,-3.119,-3.119,-3.119,-3.119,-3.119,-3.119,-3.119,-3.119,-3.119,-3.119,-3.119,-3.119,-3.119,-3.119,-3.119,-3.119,-3.119,-3.119,-3.119,-3.119,-3.1487,-3.1789,-3.1789,-3.2362,-3.331,-3.5068,-3.5771,-3.6399,-3.8214,-3.8707,-3.8707,-3.8707,-3.9313,-3.99,-3.99,-4.1148,-4.2304,-4.2304,-4.2928,-4.3497,-4.3497,-4.3497,-4.3497,-4.3497,-4.3497,-4.3497,-4.3497,-4.3497,-4.3497,-4.3497,-4.3497,-4.3497,-4.3497,-4.3497,-4.3497,-4.3497,-4.3497,-4.3497,-4.3497,-4.3497,-4.3497,-4.3497,-4.3497,-4.3497,-4.3497,-4.3497,-4.3497,-4.3497,-4.3497,-4.3497,-4.3497,-4.3497,-4.3497,-4.3497,-4.3497,-4.3497,-4.3497,-4.3497,-4.3712,-4.4016,-4.4016,-4.4233,-4.458,-4.458,-4.4318,-4.4016,-3.5504,-3.5504,-3.5504,-3.5504,-3.5958,-3.6337,-3.6554,-3.7716,-3.8635,-3.8854,-3.961,-4.007,-4.007,-4.007,-4.007,-4.007,-4.007,-3.9648,-3.8616,-3.7652,-3.6434,-3.4895,-3.4827,-3.4827,-3.4827,-3.4607,-3.4134,-3.3406,-3.3186,-3.2425,-3.119,-3.119,-3.119,-3.119,-3.119,-3.119,-3.119,-3.119,-3.119,-3.119,-3.119,-3.119,-3.119,-3.119,-3.119,-3.119,-3.119,-3.119,-3.119,-3.119,-3.1291,-3.1475,-3.1986,-3.2149,-3.2572,-3.4736,-3.5069,-3.5159,-3.7131,-3.7895,-3.8361,-3.9323,-3.9717,-4.0047,-4.0616,-4.1552,-4.2304,-4.2304,-4.2928,-4.3497,-4.3497,-4.3497,-4.3497,-4.3497,-4.3497,-4.3497,-4.3497,-4.3497,-4.3497,-4.3497,-4.3497,-4.3497,-4.3497,-4.3497,-4.3497,-4.3497,-4.3497,-4.3497,-4.3497,-4.3497,-4.3497,-4.3497,-4.3497,-4.3497,-4.3497,-4.3497,-4.3497,-4.3497,-4.3497,-4.3497,-4.3497,-4.3497,-4.3497,-4.3497,-4.3497,-4.3497,-4.3497,-4.3497,-4.3582,-4.3646,-4.3646,-4.3726,-4.3823,-4.3823,-4.3758,-4.3646,-3.5504,-3.5504,-3.5504,-3.5504,-3.5894,-3.6165,-3.6165,-3.7188,-3.7987,-3.7987,-3.8962,-3.961,-3.961,-3.961,-3.961,-3.961,-3.9359,-3.8807,-3.799,-3.7195,-3.596,-3.4134,-3.4066,-3.4066,-3.4066,-3.3778,-3.3406,-3.2949,-3.2662,-3.207,-3.119,-3.119,-3.119,-3.119,-3.119,-3.119,-3.119,-3.119,-3.119,-3.119,-3.119,-3.119,-3.119,-3.119,-3.119,-3.119,-3.119,-3.119,-3.119,-3.119,-3.119,-3.1275,-3.1715,-3.1952,-3.2376,-3.4298,-3.4757,-3.5014,-3.6723,-3.7396,-3.8025,-3.9649,-4.0211,-4.0506,-4.1001,-4.1974,-4.2763,-4.2763,-4.3149,-4.3497,-4.3497,-4.3497,-4.3497,-4.3497,-4.3497,-4.3497,-4.3497,-4.3497,-4.3497,-4.3497,-4.3497,-4.3497,-4.3497,-4.3497,-4.3497,-4.3497,-4.3497,-4.3497,-4.3497,-4.3497,-4.3497,-4.3497,-4.3497,-4.3497,-4.3497,-4.3497,-4.3497,-4.3497,-4.3497,-4.3497,-4.3497,-4.3497,-4.3497,-4.3497,-4.3497,-4.3497,-4.3497,-4.3497,-4.3679,-4.3931,-4.3758,-4.3868,-4.4106,-4.3974,-4.3836,-4.3693,-3.5504,-3.5504,-3.5504,-3.5504,-3.5504,-3.5504,-3.5504,-3.6117,-3.6615,-3.6615,-3.7873,-3.8799,-3.8799,-3.8854,-3.8875,-3.8826,-3.8117,-3.7734,-3.779,-3.7094,-3.5723,-3.3592,-3.344,-3.3372,-3.3305,-3.2628,-3.2313,-3.2313,-3.1613,-3.1258,-3.119,-3.119,-3.119,-3.119,-3.119,-3.119,-3.119,-3.119,-3.119,-3.119,-3.119,-3.119,-3.119,-3.119,-3.119,-3.119,-3.119,-3.119,-3.119,-3.119,-3.1241,-3.1309,-3.1376,-3.185,-3.2649,-3.3933,-3.4748,-3.5509,-3.677,-3.7243,-3.7767,-3.9716,-4.0684,-4.124,-4.1313,-4.2451,-4.3497,-4.3497,-4.3497,-4.3497,-4.3497,-4.3497,-4.3497,-4.3497,-4.3497,-4.3497,-4.3497,-4.3497,-4.3497,-4.3497,-4.3497,-4.3497,-4.3497,-4.3497,-4.3497,-4.3497,-4.3497,-4.3497,-4.3497,-4.3497,-4.3497,-4.3497,-4.3497,-4.3497,-4.3497,-4.3497,-4.3497,-4.3497,-4.3497,-4.3497,-4.3497,-4.3497,-4.3497,-4.3497,-4.3497,-4.3513,-4.3548,-4.3548,-4.3931,-4.4501,-4.4175,-4.4409,-4.4943,-4.4682,-4.4364,-4.3998,-3.5504,-3.5504,-3.5504,-3.5504,-3.5504,-3.5504,-3.5504,-3.6117,-3.6615,-3.6615,-3.744,-3.8035,-3.8035,-3.858,-3.8694,-3.8081,-3.7403,-3.702,-3.7026,-3.6299,-3.5385,-3.4303,-3.3711,-3.3136,-3.2544,-3.2357,-3.2313,-3.2313,-3.2121,-3.1749,-3.119,-3.119,-3.119,-3.119,-3.119,-3.119,-3.119,-3.119,-3.119,-3.119,-3.119,-3.119,-3.119,-3.119,-3.119,-3.119,-3.119,-3.119,-3.119,-3.119,-3.1562,-3.2138,-3.2747,-3.3034,-3.3423,-3.4873,-3.4984,-3.4968,-3.6249,-3.7321,-3.8336,-3.9175,-4.0719,-4.2194,-4.2837,-4.324,-4.3497,-4.3497,-4.3497,-4.3497,-4.3497,-4.3497,-4.3497,-4.3497,-4.3497,-4.3497,-4.3497,-4.3497,-4.3497,-4.3497,-4.3497,-4.3497,-4.3497,-4.3497,-4.3497,-4.3497,-4.3497,-4.3497,-4.3497,-4.3497,-4.3497,-4.3497,-4.3497,-4.3497,-4.3497,-4.3497,-4.3497,-4.3497,-4.3497,-4.3497,-4.3497,-4.3497,-4.3497,-4.3497,-4.3497,-4.3646,-4.3912,-4.3912,-4.3986,-4.4146,-4.4373,-4.4223,-4.3899,-4.4419,-4.4364,-4.3935,-3.5504,-3.5504,-3.5504,-3.5504,-3.5504,-3.5504,-3.5504,-3.5831,-3.6054,-3.6054,-3.7115,-3.7678,-3.7285,-3.791,-3.8064,-3.734,-3.6605,-3.6393,-3.6772,-3.6045,-3.5115,-3.4015,-3.3609,-3.3051,-3.2347,-3.1935,-3.1935,-3.2313,-3.2645,-3.2442,-3.1715,-3.1715,-3.1529,-3.119,-3.119,-3.119,-3.119,-3.119,-3.119,-3.119,-3.119,-3.119,-3.119,-3.119,-3.119,-3.119,-3.119,-3.119,-3.1241,-3.1596,-3.1968,-3.2408,-3.3169,-3.3406,-3.3626,-3.4759,-3.4793,-3.4856,-3.6515,-3.7481,-3.8254,-3.9391,-4.0508,-4.1626,-4.2693,-4.3222,-4.3497,-4.3497,-4.3497,-4.3497,-4.3497,-4.3497,-4.3497,-4.3497,-4.3497,-4.3497,-4.3497,-4.3497,-4.3497,-4.3497,-4.3497,-4.3497,-4.3497,-4.3497,-4.3497,-4.3497,-4.3497,-4.3497,-4.3497,-4.3497,-4.3497,-4.3497,-4.3497,-4.3497,-4.3497,-4.3497,-4.3497,-4.3497,-4.3497,-4.3497,-4.3497,-4.3497,-4.3497,-4.3532,-4.3679,-4.3836,-4.3998,-4.4204,-4.4308,-4.429,-4.4308,-4.4076,-4.3772,-4.4165,-4.429,-4.4177,-3.5504,-3.5504,-3.5504,-3.5504,-3.5504,-3.5504,-3.5504,-3.5504,-3.5504,-3.5504,-3.6707,-3.7303,-3.6603,-3.6967,-3.7072,-3.6567,-3.586,-3.5727,-3.6367,-3.5932,-3.5064,-3.3846,-3.3541,-3.3169,-3.2679,-3.1935,-3.1867,-3.2476,-3.2848,-3.278,-3.2313,-3.2154,-3.1782,-3.119,-3.119,-3.119,-3.119,-3.119,-3.119,-3.119,-3.119,-3.119,-3.119,-3.119,-3.119,-3.119,-3.119,-3.1275,-3.1461,-3.207,-3.2442,-3.2747,-3.3254,-3.3575,-3.3914,-3.4506,-3.4692,-3.506,-3.692,-3.7547,-3.8123,-3.9696,-4.0293,-4.0761,-4.2035,-4.2818,-4.3314,-4.3461,-4.3387,-4.3332,-4.3461,-4.3387,-4.3332,-4.3461,-4.3497,-4.3497,-4.3497,-4.3497,-4.3497,-4.3497,-4.3497,-4.3497,-4.3497,-4.3497,-4.3497,-4.3497,-4.3497,-4.3497,-4.3497,-4.3497,-4.3497,-4.3497,-4.3497,-4.3497,-4.3497,-4.3497,-4.3497,-4.3497,-4.3497,-4.3497,-4.3497,-4.3497,-4.3497,-4.3513,-4.3804,-4.3955,-4.4028,-4.4428,-4.458,-4.458,-4.429,-4.4117,-4.4016,-4.4016,-4.4261,-4.4421,-3.5504,-3.5504,-3.5504,-3.5504,-3.5504,-3.5504,-3.5504,-3.5504,-3.5504,-3.5504,-3.6228,-3.6473,-3.5745,-3.5276,-3.5247,-3.5778,-3.5152,-3.4789,-3.4885,-3.5321,-3.5537,-3.5334,-3.4083,-3.3643,-3.4184,-3.3474,-3.3152,-3.3254,-3.207,-3.1765,-3.2313,-3.163,-3.1292,-3.119,-3.119,-3.119,-3.119,-3.119,-3.119,-3.119,-3.119,-3.119,-3.119,-3.119,-3.119,-3.119,-3.119,-3.1596,-3.2154,-3.2297,-3.3136,-3.41,-3.3575,-3.4286,-3.5334,-3.5436,-3.547,-3.562,-3.6353,-3.7411,-3.8454,-3.9086,-4.0122,-4.1229,-4.2121,-4.2378,-4.2653,-4.3351,-4.2947,-4.2671,-4.3369,-4.2928,-4.269,-4.3387,-4.3497,-4.3497,-4.3497,-4.3497,-4.3497,-4.3497,-4.3497,-4.3497,-4.3497,-4.3497,-4.3497,-4.3497,-4.3497,-4.3497,-4.3497,-4.3497,-4.3497,-4.3497,-4.3497,-4.3497,-4.3497,-4.3497,-4.3497,-4.3497,-4.3497,-4.3497,-4.3497,-4.3497,-4.3497,-4.3479,-4.3548,-4.3726,-4.4028,-4.4428,-4.458,-4.4606,-4.4872,-4.4561,-4.4016,-4.4016,-4.4261,-4.4372,-3.5504,-3.5504,-3.5504,-3.5504,-3.5504,-3.5504,-3.5504,-3.5504,-3.5504,-3.5504,-3.6165,-3.6212,-3.5084,-3.4407,-3.4304,-3.5005,-3.4773,-3.4736,-3.5144,-3.5424,-3.5436,-3.5013,-3.4353,-3.3964,-3.3897,-3.3152,-3.2983,-3.3406,-3.3575,-3.3406,-3.2899,-3.2577,-3.1985,-3.119,-3.119,-3.119,-3.119,-3.119,-3.119,-3.119,-3.119,-3.119,-3.119,-3.119,-3.119,-3.119,-3.119,-3.1393,-3.1799,-3.2628,-3.3355,-3.3981,-3.4489,-3.5098,-3.5622,-3.5622,-3.5622,-3.5868,-3.7167,-3.7937,-3.8572,-3.9363,-4.0339,-4.1203,-4.1552,-4.1992,-4.2438,-4.2941,-4.2778,-4.265,-4.2996,-4.2759,-4.2741,-4.3389,-4.3497,-4.3497,-4.3497,-4.3497,-4.3497,-4.3497,-4.3497,-4.3497,-4.3497,-4.3497,-4.3497,-4.3497,-4.3497,-4.3497,-4.3497,-4.3497,-4.3497,-4.3497,-4.3497,-4.3497,-4.3497,-4.3497,-4.3497,-4.3497,-4.3497,-4.3497,-4.3497,-4.3497,-4.3497,-4.3513,-4.3693,-4.3986,-4.4346,-4.4732,-4.4872,-4.4872,-4.4849,-4.4482,-4.4016,-4.4016,-4.3962,-4.37]}]]